Wetterdaten: Freitag, 14.07.2017
Datum Zeit Temp. A. Pool Temp. Feuchte A. Luftdruck Regen Wind Richtung Richtung Sonnenschein ET UV Solar Taupunkt Windchill Windben Empfang
14.07.2017 00:00 12,9 C 25,0 C 67 % 1017,0 hPa 0,0 l/m 0,0 km/h (0 Bft) O-SO 120 0 min 0,000 mm 0,0 UV-I 0 W/m 6,9 C 12,9 C 0,0 km/h (0 Bft) 94,00 %
14.07.2017 00:02 12,9 C 25,0 C 68 % 1017,0 hPa 0,0 l/m 0,0 km/h (0 Bft) O-SO 120 0 min 0,000 mm 0,0 UV-I 0 W/m 7,1 C 12,9 C 0,0 km/h (0 Bft) 94,44 %
14.07.2017 00:04 12,9 C 25,0 C 68 % 1017,0 hPa 0,0 l/m 0,0 km/h (0 Bft) O-SO 120 0 min 0,000 mm 0,0 UV-I 0 W/m 7,1 C 12,9 C 0,0 km/h (0 Bft) 92,00 %
14.07.2017 00:06 12,8 C 24,4 C 68 % 1017,0 hPa 0,0 l/m 0,0 km/h (0 Bft) O-SO 120 0 min 0,000 mm 0,0 UV-I 0 W/m 7,0 C 12,8 C 0,0 km/h (0 Bft) 96,00 %
14.07.2017 00:08 12,8 C 24,4 C 68 % 1017,0 hPa 0,0 l/m 0,4 km/h (0 Bft) O-SO 120 0 min 0,000 mm 0,0 UV-I 0 W/m 7,0 C 12,8 C 3,2 km/h (1 Bft) 92,68 %
14.07.2017 00:10 12,8 C 24,4 C 67 % 1017,0 hPa 0,0 l/m 2,3 km/h (1 Bft) O-SO 120 0 min 0,000 mm 0,0 UV-I 0 W/m 6,8 C 12,8 C 3,2 km/h (1 Bft) 98,00 %
14.07.2017 00:12 12,8 C 24,4 C 67 % 1017,0 hPa 0,0 l/m 0,0 km/h (0 Bft) O-SO 120 0 min 0,000 mm 0,0 UV-I 0 W/m 6,8 C 12,8 C 1,6 km/h (1 Bft) 96,23 %
14.07.2017 00:14 12,7 C 24,4 C 69 % 1017,0 hPa 0,0 l/m 2,0 km/h (1 Bft) O-SO 120 0 min 0,000 mm 0,0 UV-I 0 W/m 7,2 C 12,7 C 4,8 km/h (1 Bft) 97,37 %
14.07.2017 00:16 12,7 C 24,4 C 68 % 1017,0 hPa 0,0 l/m 2,0 km/h (1 Bft) O-SO 120 0 min 0,000 mm 0,0 UV-I 0 W/m 6,9 C 12,7 C 4,8 km/h (1 Bft) 92,45 %
14.07.2017 00:18 12,6 C 24,4 C 69 % 1017,0 hPa 0,0 l/m 1,3 km/h (1 Bft) O-SO 120 0 min 0,000 mm 0,0 UV-I 0 W/m 7,1 C 12,6 C 1,6 km/h (1 Bft) 97,37 %
14.07.2017 00:20 12,5 C 24,4 C 70 % 1017,0 hPa 0,0 l/m 0,8 km/h (0 Bft) O-SO 120 0 min 0,000 mm 0,0 UV-I 0 W/m 7,2 C 12,5 C 3,2 km/h (1 Bft) 98,00 %
14.07.2017 00:22 12,4 C 24,4 C 71 % 1016,9 hPa 0,0 l/m 0,0 km/h (0 Bft) O-SO 120 0 min 0,000 mm 0,0 UV-I 0 W/m 7,3 C 12,4 C 0,0 km/h (0 Bft) 94,34 %
14.07.2017 00:24 12,3 C 24,4 C 70 % 1016,9 hPa 0,0 l/m 0,0 km/h (0 Bft) O-SO 120 0 min 0,000 mm 0,0 UV-I 0 W/m 7,0 C 12,3 C 0,0 km/h (0 Bft) 94,87 %
14.07.2017 00:26 12,3 C 24,4 C 71 % 1017,0 hPa 0,0 l/m 0,0 km/h (0 Bft) O-SO 120 0 min 0,000 mm 0,0 UV-I 0 W/m 7,2 C 12,3 C 0,0 km/h (0 Bft) 96,00 %
14.07.2017 00:28 12,3 C 24,4 C 71 % 1016,9 hPa 0,0 l/m 1,0 km/h (0 Bft) O-SO 120 0 min 0,000 mm 0,0 UV-I 0 W/m 7,2 C 12,3 C 3,2 km/h (1 Bft) 98,18 %
14.07.2017 00:30 12,3 C 24,4 C 70 % 1016,9 hPa 0,0 l/m 0,4 km/h (0 Bft) O-SO 120 0 min 0,000 mm 0,0 UV-I 0 W/m 7,0 C 12,3 C 3,2 km/h (1 Bft) 97,22 %
14.07.2017 00:32 12,3 C 24,4 C 70 % 1016,9 hPa 0,0 l/m 0,0 km/h (0 Bft) O-SO 120 0 min 0,000 mm 0,0 UV-I 0 W/m 7,0 C 12,3 C 0,0 km/h (0 Bft) 98,00 %
14.07.2017 00:34 12,3 C 24,4 C 70 % 1016,9 hPa 0,0 l/m 0,3 km/h (0 Bft) O-SO 120 0 min 0,000 mm 0,0 UV-I 0 W/m 7,0 C 12,3 C 1,6 km/h (1 Bft) 100,00 %
14.07.2017 00:36 12,3 C 24,4 C 70 % 1016,9 hPa 0,0 l/m 0,1 km/h (0 Bft) O-SO 120 0 min 0,000 mm 0,0 UV-I 0 W/m 7,0 C 12,3 C 1,6 km/h (1 Bft) 97,87 %
14.07.2017 00:38 12,3 C 24,4 C 70 % 1016,9 hPa 0,0 l/m 0,0 km/h (0 Bft) O-SO 120 0 min 0,000 mm 0,0 UV-I 0 W/m 7,0 C 12,3 C 1,6 km/h (1 Bft) 96,00 %
14.07.2017 00:40 12,2 C 24,4 C 70 % 1016,9 hPa 0,0 l/m 0,7 km/h (0 Bft) O-SO 120 0 min 0,000 mm 0,0 UV-I 0 W/m 6,9 C 12,2 C 1,6 km/h (1 Bft) 97,37 %
14.07.2017 00:42 12,1 C 24,4 C 71 % 1016,9 hPa 0,0 l/m 0,1 km/h (0 Bft) O-SO 120 0 min 0,000 mm 0,0 UV-I 0 W/m 7,0 C 12,1 C 1,6 km/h (1 Bft) 98,00 %
14.07.2017 00:44 12,1 C 24,4 C 71 % 1016,8 hPa 0,0 l/m 0,0 km/h (0 Bft) O-SO 120 0 min 0,000 mm 0,0 UV-I 0 W/m 7,0 C 12,1 C 0,0 km/h (0 Bft) 97,87 %
14.07.2017 00:46 12,1 C 24,4 C 72 % 1016,8 hPa 0,0 l/m 0,0 km/h (0 Bft) O-SO 120 0 min 0,000 mm 0,0 UV-I 0 W/m 7,2 C 12,1 C 0,0 km/h (0 Bft) 95,74 %
14.07.2017 00:48 12,0 C 24,4 C 71 % 1016,8 hPa 0,0 l/m 0,0 km/h (0 Bft) O-SO 120 0 min 0,000 mm 0,0 UV-I 0 W/m 6,9 C 12,0 C 0,0 km/h (0 Bft) 97,87 %
14.07.2017 00:50 12,1 C 24,4 C 71 % 1016,8 hPa 0,0 l/m 0,0 km/h (0 Bft) O-SO 120 0 min 0,000 mm 0,0 UV-I 0 W/m 7,0 C 12,1 C 0,0 km/h (0 Bft) 96,00 %
14.07.2017 00:52 12,1 C 24,4 C 72 % 1016,8 hPa 0,0 l/m 0,1 km/h (0 Bft) O-SO 120 0 min 0,000 mm 0,0 UV-I 0 W/m 7,2 C 12,1 C 1,6 km/h (1 Bft) 93,62 %
14.07.2017 00:54 12,1 C 24,4 C 71 % 1016,8 hPa 0,0 l/m 0,5 km/h (0 Bft) O-SO 120 0 min 0,000 mm 0,0 UV-I 0 W/m 7,0 C 12,1 C 1,6 km/h (1 Bft) 100,00 %
14.07.2017 00:56 12,2 C 24,4 C 70 % 1016,8 hPa 0,0 l/m 0,1 km/h (0 Bft) O-SO 120 0 min 0,000 mm 0,0 UV-I 0 W/m 6,9 C 12,2 C 1,6 km/h (1 Bft) 96,23 %
14.07.2017 00:58 12,2 C 24,4 C 69 % 1016,8 hPa 0,0 l/m 0,3 km/h (0 Bft) O-SO 120 0 min 0,000 mm 0,0 UV-I 0 W/m 6,7 C 12,2 C 1,6 km/h (1 Bft) 97,87 %
14.07.2017 01:00 12,2 C 24,4 C 69 % 1016,7 hPa 0,0 l/m 1,1 km/h (1 Bft) O-SO 120 0 min 0,000 mm 0,0 UV-I 0 W/m 6,7 C 12,2 C 1,6 km/h (1 Bft) 96,00 %
14.07.2017 01:02 12,2 C 24,4 C 71 % 1016,7 hPa 0,0 l/m 0,3 km/h (0 Bft) O-SO 120 0 min 0,000 mm 0,0 UV-I 0 W/m 7,1 C 12,2 C 1,6 km/h (1 Bft) 97,62 %
14.07.2017 01:04 12,2 C 24,4 C 70 % 1016,6 hPa 0,0 l/m 0,0 km/h (0 Bft) O-SO 120 0 min 0,000 mm 0,0 UV-I 0 W/m 6,9 C 12,2 C 0,0 km/h (0 Bft) 94,34 %
14.07.2017 01:06 12,1 C 24,4 C 71 % 1016,7 hPa 0,0 l/m 0,0 km/h (0 Bft) O-SO 120 0 min 0,000 mm 0,0 UV-I 0 W/m 7,0 C 12,1 C 0,0 km/h (0 Bft) 95,74 %
14.07.2017 01:08 11,9 C 24,4 C 71 % 1016,7 hPa 0,0 l/m 0,5 km/h (0 Bft) O-SO 120 0 min 0,000 mm 0,0 UV-I 0 W/m 6,8 C 11,9 C 1,6 km/h (1 Bft) 94,87 %
14.07.2017 01:10 11,8 C 24,4 C 71 % 1016,6 hPa 0,0 l/m 0,4 km/h (0 Bft) O-SO 120 0 min 0,000 mm 0,0 UV-I 0 W/m 6,7 C 11,8 C 1,6 km/h (1 Bft) 96,00 %
14.07.2017 01:12 11,7 C 24,4 C 70 % 1016,6 hPa 0,0 l/m 0,9 km/h (0 Bft) O-SO 120 0 min 0,000 mm 0,0 UV-I 0 W/m 6,4 C 11,7 C 3,2 km/h (1 Bft) 95,83 %
14.07.2017 01:14 11,8 C 24,4 C 70 % 1016,6 hPa 0,0 l/m 1,8 km/h (1 Bft) O-SO 120 0 min 0,000 mm 0,0 UV-I 0 W/m 6,5 C 11,8 C 3,2 km/h (1 Bft) 96,00 %
14.07.2017 01:16 11,8 C 24,4 C 69 % 1016,6 hPa 0,0 l/m 0,5 km/h (0 Bft) O-SO 120 0 min 0,000 mm 0,0 UV-I 0 W/m 6,3 C 11,8 C 1,6 km/h (1 Bft) 94,74 %
14.07.2017 01:18 11,9 C 24,4 C 69 % 1016,6 hPa 0,0 l/m 0,0 km/h (0 Bft) O-SO 120 0 min 0,000 mm 0,0 UV-I 0 W/m 6,4 C 11,9 C 0,0 km/h (0 Bft) 94,00 %
14.07.2017 01:20 11,9 C 24,4 C 70 % 1016,5 hPa 0,0 l/m 0,1 km/h (0 Bft) O-SO 120 0 min 0,000 mm 0,0 UV-I 0 W/m 6,6 C 11,9 C 1,6 km/h (1 Bft) 97,87 %
14.07.2017 01:22 11,9 C 24,4 C 70 % 1016,5 hPa 0,0 l/m 0,6 km/h (0 Bft) O-SO 120 0 min 0,000 mm 0,0 UV-I 0 W/m 6,6 C 11,9 C 1,6 km/h (1 Bft) 95,74 %
14.07.2017 01:24 11,9 C 24,4 C 71 % 1016,4 hPa 0,0 l/m 2,4 km/h (1 Bft) O-SO 120 0 min 0,000 mm 0,0 UV-I 0 W/m 6,8 C 11,9 C 4,8 km/h (1 Bft) 95,74 %
14.07.2017 01:26 11,7 C 24,4 C 73 % 1016,4 hPa 0,0 l/m 3,3 km/h (1 Bft) O-SO 120 0 min 0,000 mm 0,0 UV-I 0 W/m 7,0 C 11,7 C 4,8 km/h (1 Bft) 96,00 %
14.07.2017 01:28 11,6 C 24,4 C 73 % 1016,3 hPa 0,0 l/m 4,9 km/h (1 Bft) O-SO 104 0 min 0,000 mm 0,0 UV-I 0 W/m 6,9 C 11,6 C 6,4 km/h (2 Bft) 97,56 %
14.07.2017 01:30 11,6 C 24,4 C 72 % 1016,3 hPa 0,0 l/m 4,6 km/h (1 Bft) O 94 0 min 0,000 mm 0,0 UV-I 0 W/m 6,7 C 11,6 C 6,4 km/h (2 Bft) 96,00 %
14.07.2017 01:32 11,8 C 24,4 C 71 % 1016,3 hPa 0,0 l/m 3,5 km/h (1 Bft) O 94 0 min 0,000 mm 0,0 UV-I 0 W/m 6,7 C 11,8 C 4,8 km/h (1 Bft) 96,00 %
14.07.2017 01:34 12,0 C 24,4 C 72 % 1016,4 hPa 0,0 l/m 3,7 km/h (1 Bft) O 94 0 min 0,000 mm 0,0 UV-I 0 W/m 7,1 C 12,0 C 6,4 km/h (2 Bft) 97,87 %
14.07.2017 01:36 12,3 C 24,4 C 71 % 1016,3 hPa 0,0 l/m 2,4 km/h (1 Bft) O 94 0 min 0,000 mm 0,0 UV-I 0 W/m 7,2 C 12,3 C 4,8 km/h (1 Bft) 90,24 %
14.07.2017 01:38 12,2 C 24,4 C 72 % 1016,3 hPa 0,0 l/m 1,5 km/h (1 Bft) O 94 0 min 0,000 mm 0,0 UV-I 0 W/m 7,3 C 12,2 C 3,2 km/h (1 Bft) 96,00 %
14.07.2017 01:40 11,9 C 24,4 C 72 % 1016,4 hPa 0,0 l/m 1,2 km/h (1 Bft) O 94 0 min 0,000 mm 0,0 UV-I 0 W/m 7,0 C 11,9 C 3,2 km/h (1 Bft) 93,62 %
14.07.2017 01:42 11,8 C 24,4 C 74 % 1016,4 hPa 0,0 l/m 1,2 km/h (1 Bft) O 94 0 min 0,000 mm 0,0 UV-I 0 W/m 7,3 C 11,8 C 3,2 km/h (1 Bft) 100,00 %
14.07.2017 01:44 11,7 C 24,4 C 74 % 1016,3 hPa 0,0 l/m 1,5 km/h (1 Bft) O 94 0 min 0,000 mm 0,0 UV-I 0 W/m 7,2 C 11,7 C 3,2 km/h (1 Bft) 95,16 %
14.07.2017 01:46 11,8 C 24,4 C 74 % 1016,3 hPa 0,0 l/m 3,0 km/h (1 Bft) O 94 0 min 0,000 mm 0,0 UV-I 0 W/m 7,3 C 11,8 C 4,8 km/h (1 Bft) 95,74 %
14.07.2017 01:48 12,0 C 24,4 C 73 % 1016,3 hPa 0,0 l/m 3,0 km/h (1 Bft) O 94 0 min 0,000 mm 0,0 UV-I 0 W/m 7,3 C 12,0 C 4,8 km/h (1 Bft) 100,00 %
14.07.2017 01:50 12,1 C 24,4 C 73 % 1016,3 hPa 0,0 l/m 1,8 km/h (1 Bft) O 94 0 min 0,000 mm 0,0 UV-I 0 W/m 7,4 C 12,1 C 3,2 km/h (1 Bft) 98,18 %
14.07.2017 01:52 12,3 C 24,4 C 73 % 1016,3 hPa 0,0 l/m 1,0 km/h (0 Bft) O 94 0 min 0,000 mm 0,0 UV-I 0 W/m 7,6 C 12,3 C 1,6 km/h (1 Bft) 100,00 %
14.07.2017 01:54 12,4 C 24,4 C 73 % 1016,4 hPa 0,0 l/m 1,0 km/h (0 Bft) O 94 0 min 0,000 mm 0,0 UV-I 0 W/m 7,7 C 12,4 C 3,2 km/h (1 Bft) 100,00 %
14.07.2017 01:56 12,4 C 24,4 C 73 % 1016,4 hPa 0,0 l/m 0,8 km/h (0 Bft) O 94 0 min 0,000 mm 0,0 UV-I 0 W/m 7,7 C 12,4 C 1,6 km/h (1 Bft) 98,11 %
14.07.2017 01:58 12,4 C 24,4 C 73 % 1016,4 hPa 0,0 l/m 0,2 km/h (0 Bft) O 94 0 min 0,000 mm 0,0 UV-I 0 W/m 7,7 C 12,4 C 1,6 km/h (1 Bft) 94,74 %
14.07.2017 02:00 12,3 C 24,4 C 73 % 1016,4 hPa 0,0 l/m 0,0 km/h (0 Bft) O 94 0 min 0,000 mm 0,0 UV-I 0 W/m 7,6 C 12,3 C 0,0 km/h (0 Bft) 100,00 %
14.07.2017 02:02 12,3 C 24,4 C 73 % 1016,5 hPa 0,0 l/m 0,0 km/h (0 Bft) O 94 0 min 0,000 mm 0,0 UV-I 0 W/m 7,6 C 12,3 C 0,0 km/h (0 Bft) 95,74 %
14.07.2017 02:04 12,3 C 24,4 C 74 % 1016,5 hPa 0,0 l/m 0,0 km/h (0 Bft) O 94 0 min 0,000 mm 0,0 UV-I 0 W/m 7,8 C 12,3 C 0,0 km/h (0 Bft) 97,56 %
14.07.2017 02:06 12,1 C 24,4 C 75 % 1016,4 hPa 0,0 l/m 0,0 km/h (0 Bft) O 94 0 min 0,000 mm 0,0 UV-I 0 W/m 7,8 C 12,1 C 0,0 km/h (0 Bft) 91,49 %
14.07.2017 02:08 11,9 C 24,4 C 76 % 1016,4 hPa 0,0 l/m 0,0 km/h (0 Bft) O 94 0 min 0,000 mm 0,0 UV-I 0 W/m 7,8 C 11,9 C 0,0 km/h (0 Bft) 98,11 %
14.07.2017 02:10 11,7 C 24,4 C 77 % 1016,4 hPa 0,0 l/m 0,0 km/h (0 Bft) O 94 0 min 0,000 mm 0,0 UV-I 0 W/m 7,8 C 11,7 C 0,0 km/h (0 Bft) 96,00 %
14.07.2017 02:12 11,5 C 24,4 C 78 % 1016,4 hPa 0,0 l/m 0,0 km/h (0 Bft) O 94 0 min 0,000 mm 0,0 UV-I 0 W/m 7,8 C 11,5 C 0,0 km/h (0 Bft) 95,74 %
14.07.2017 02:14 11,3 C 24,4 C 78 % 1016,4 hPa 0,0 l/m 0,0 km/h (0 Bft) O 94 0 min 0,000 mm 0,0 UV-I 0 W/m 7,6 C 11,3 C 0,0 km/h (0 Bft) 97,56 %
14.07.2017 02:16 11,3 C 24,4 C 78 % 1016,4 hPa 0,0 l/m 0,0 km/h (0 Bft) O 94 0 min 0,000 mm 0,0 UV-I 0 W/m 7,6 C 11,3 C 0,0 km/h (0 Bft) 96,00 %
14.07.2017 02:18 11,4 C 24,4 C 77 % 1016,4 hPa 0,0 l/m 0,0 km/h (0 Bft) O 94 0 min 0,000 mm 0,0 UV-I 0 W/m 7,5 C 11,4 C 0,0 km/h (0 Bft) 97,87 %
14.07.2017 02:20 11,5 C 24,4 C 77 % 1016,3 hPa 0,0 l/m 0,0 km/h (0 Bft) O 94 0 min 0,000 mm 0,0 UV-I 0 W/m 7,6 C 11,5 C 0,0 km/h (0 Bft) 94,44 %
14.07.2017 02:22 11,7 C 24,4 C 76 % 1016,3 hPa 0,0 l/m 0,0 km/h (0 Bft) O 94 0 min 0,000 mm 0,0 UV-I 0 W/m 7,6 C 11,7 C 0,0 km/h (0 Bft) 96,55 %
14.07.2017 02:24 11,7 C 24,4 C 76 % 1016,4 hPa 0,0 l/m 0,0 km/h (0 Bft) O 94 0 min 0,000 mm 0,0 UV-I 0 W/m 7,6 C 11,7 C 0,0 km/h (0 Bft) 94,87 %
14.07.2017 02:26 11,6 C 24,4 C 76 % 1016,3 hPa 0,0 l/m 0,0 km/h (0 Bft) O 94 0 min 0,000 mm 0,0 UV-I 0 W/m 7,5 C 11,6 C 0,0 km/h (0 Bft) 94,00 %
14.07.2017 02:28 11,5 C 24,4 C 76 % 1016,4 hPa 0,0 l/m 1,6 km/h (1 Bft) O 94 0 min 0,000 mm 0,0 UV-I 0 W/m 7,4 C 11,5 C 3,2 km/h (1 Bft) 98,08 %
14.07.2017 02:30 11,5 C 24,4 C 76 % 1016,3 hPa 0,0 l/m 2,7 km/h (1 Bft) O 94 0 min 0,000 mm 0,0 UV-I 0 W/m 7,4 C 11,5 C 4,8 km/h (1 Bft) 97,44 %
14.07.2017 02:32 11,5 C 24,4 C 76 % 1016,3 hPa 0,0 l/m 3,3 km/h (1 Bft) O 94 0 min 0,000 mm 0,0 UV-I 0 W/m 7,4 C 11,5 C 4,8 km/h (1 Bft) 93,62 %
14.07.2017 02:34 11,7 C 24,4 C 75 % 1016,3 hPa 0,0 l/m 5,0 km/h (1 Bft) O 90 0 min 0,000 mm 0,0 UV-I 0 W/m 7,4 C 11,7 C 9,7 km/h (2 Bft) 97,87 %
14.07.2017 02:36 11,8 C 24,4 C 75 % 1016,3 hPa 0,0 l/m 4,2 km/h (1 Bft) O 82 0 min 0,000 mm 0,0 UV-I 0 W/m 7,5 C 11,8 C 6,4 km/h (2 Bft) 96,23 %
14.07.2017 02:38 11,9 C 24,4 C 74 % 1016,2 hPa 0,0 l/m 3,0 km/h (1 Bft) O 82 0 min 0,000 mm 0,0 UV-I 0 W/m 7,4 C 11,9 C 3,2 km/h (1 Bft) 94,00 %
14.07.2017 02:40 12,0 C 24,4 C 74 % 1016,2 hPa 0,0 l/m 3,6 km/h (1 Bft) O 82 0 min 0,000 mm 0,0 UV-I 0 W/m 7,5 C 12,0 C 4,8 km/h (1 Bft) 97,37 %
14.07.2017 02:42 12,1 C 24,4 C 74 % 1016,2 hPa 0,0 l/m 5,3 km/h (1 Bft) NO 56 0 min 0,000 mm 0,0 UV-I 0 W/m 7,6 C 12,1 C 6,4 km/h (2 Bft) 98,21 %
14.07.2017 02:44 12,1 C 24,4 C 74 % 1016,2 hPa 0,0 l/m 4,4 km/h (1 Bft) NO 53 0 min 0,000 mm 0,0 UV-I 0 W/m 7,6 C 12,1 C 6,4 km/h (2 Bft) 94,74 %
14.07.2017 02:46 12,1 C 24,4 C 74 % 1016,2 hPa 0,0 l/m 4,1 km/h (1 Bft) NO 55 0 min 0,000 mm 0,0 UV-I 0 W/m 7,6 C 12,1 C 6,4 km/h (2 Bft) 100,00 %
14.07.2017 02:48 12,2 C 24,4 C 74 % 1016,2 hPa 0,0 l/m 5,0 km/h (1 Bft) O-NO 63 0 min 0,000 mm 0,0 UV-I 0 W/m 7,7 C 12,2 C 6,4 km/h (2 Bft) 98,21 %
14.07.2017 02:50 12,2 C 24,4 C 75 % 1016,2 hPa 0,0 l/m 6,0 km/h (2 Bft) O-NO 69 0 min 0,000 mm 0,0 UV-I 0 W/m 7,9 C 12,2 C 8,0 km/h (2 Bft) 97,73 %
14.07.2017 02:52 12,1 C 23,9 C 75 % 1016,3 hPa 0,0 l/m 6,2 km/h (2 Bft) O-NO 72 0 min 0,000 mm 0,0 UV-I 0 W/m 7,8 C 12,1 C 8,0 km/h (2 Bft) 100,00 %
14.07.2017 02:54 12,1 C 23,9 C 75 % 1016,2 hPa 0,0 l/m 6,5 km/h (2 Bft) O-NO 69 0 min 0,000 mm 0,0 UV-I 0 W/m 7,8 C 12,1 C 9,7 km/h (2 Bft) 96,00 %
14.07.2017 02:56 12,1 C 23,9 C 75 % 1016,2 hPa 0,0 l/m 6,2 km/h (2 Bft) O-NO 69 0 min 0,000 mm 0,0 UV-I 0 W/m 7,8 C 12,1 C 9,7 km/h (2 Bft) 100,00 %
14.07.2017 02:58 12,1 C 23,9 C 76 % 1016,2 hPa 0,0 l/m 5,1 km/h (1 Bft) O-NO 66 0 min 0,000 mm 0,0 UV-I 0 W/m 8,0 C 12,1 C 8,0 km/h (2 Bft) 97,87 %
14.07.2017 03:00 12,1 C 23,9 C 76 % 1016,2 hPa 0,0 l/m 4,2 km/h (1 Bft) O-NO 64 0 min 0,025 mm 0,0 UV-I 0 W/m 8,0 C 12,1 C 6,4 km/h (2 Bft) 98,00 %
14.07.2017 03:02 12,0 C 23,9 C 76 % 1016,2 hPa 0,0 l/m 3,9 km/h (1 Bft) O-NO 64 0 min 0,000 mm 0,0 UV-I 0 W/m 7,9 C 12,0 C 6,4 km/h (2 Bft) 95,74 %
14.07.2017 03:04 11,9 C 23,9 C 77 % 1016,2 hPa 0,0 l/m 2,9 km/h (1 Bft) O-NO 64 0 min 0,000 mm 0,0 UV-I 0 W/m 8,0 C 11,9 C 4,8 km/h (1 Bft) 97,87 %
14.07.2017 03:06 11,9 C 23,9 C 77 % 1016,1 hPa 0,0 l/m 2,7 km/h (1 Bft) O-NO 64 0 min 0,000 mm 0,0 UV-I 0 W/m 8,0 C 11,9 C 4,8 km/h (1 Bft) 100,00 %
14.07.2017 03:08 11,9 C 23,9 C 77 % 1016,2 hPa 0,0 l/m 2,6 km/h (1 Bft) O-NO 64 0 min 0,000 mm 0,0 UV-I 0 W/m 8,0 C 11,9 C 4,8 km/h (1 Bft) 97,44 %
14.07.2017 03:10 11,9 C 23,9 C 78 % 1016,2 hPa 0,0 l/m 2,8 km/h (1 Bft) O-NO 64 0 min 0,000 mm 0,0 UV-I 0 W/m 8,2 C 11,9 C 3,2 km/h (1 Bft) 100,00 %
14.07.2017 03:12 11,8 C 23,9 C 78 % 1016,2 hPa 0,0 l/m 2,6 km/h (1 Bft) O-NO 64 0 min 0,000 mm 0,0 UV-I 0 W/m 8,1 C 11,8 C 4,8 km/h (1 Bft) 95,74 %
14.07.2017 03:14 11,8 C 23,9 C 78 % 1016,2 hPa 0,0 l/m 1,3 km/h (1 Bft) O-NO 64 0 min 0,000 mm 0,0 UV-I 0 W/m 8,1 C 11,8 C 3,2 km/h (1 Bft) 97,87 %
14.07.2017 03:16 11,8 C 23,9 C 78 % 1016,2 hPa 0,0 l/m 2,0 km/h (1 Bft) O-NO 64 0 min 0,000 mm 0,0 UV-I 0 W/m 8,1 C 11,8 C 3,2 km/h (1 Bft) 95,45 %
14.07.2017 03:18 11,8 C 23,9 C 79 % 1016,2 hPa 0,0 l/m 0,0 km/h (0 Bft) O-NO 64 0 min 0,000 mm 0,0 UV-I 0 W/m 8,3 C 11,8 C 1,6 km/h (1 Bft) 98,00 %
14.07.2017 03:20 11,8 C 23,9 C 79 % 1016,2 hPa 0,0 l/m 0,1 km/h (0 Bft) O-NO 64 0 min 0,000 mm 0,0 UV-I 0 W/m 8,3 C 11,8 C 1,6 km/h (1 Bft) 100,00 %
14.07.2017 03:22 11,8 C 23,9 C 79 % 1016,2 hPa 0,0 l/m 0,4 km/h (0 Bft) O-NO 64 0 min 0,000 mm 0,0 UV-I 0 W/m 8,3 C 11,8 C 1,6 km/h (1 Bft) 96,23 %
14.07.2017 03:24 11,7 C 23,9 C 79 % 1016,1 hPa 0,0 l/m 1,0 km/h (0 Bft) O-NO 64 0 min 0,000 mm 0,0 UV-I 0 W/m 8,2 C 11,7 C 1,6 km/h (1 Bft) 100,00 %
14.07.2017 03:26 11,7 C 23,9 C 80 % 1016,1 hPa 0,0 l/m 0,6 km/h (0 Bft) O-NO 64 0 min 0,000 mm 0,0 UV-I 0 W/m 8,4 C 11,7 C 1,6 km/h (1 Bft) 98,00 %
14.07.2017 03:28 11,7 C 23,9 C 79 % 1016,1 hPa 0,0 l/m 0,6 km/h (0 Bft) O-NO 64 0 min 0,000 mm 0,0 UV-I 0 W/m 8,2 C 11,7 C 3,2 km/h (1 Bft) 100,00 %
14.07.2017 03:30 11,7 C 23,9 C 79 % 1016,1 hPa 0,0 l/m 1,8 km/h (1 Bft) O-NO 64 0 min 0,000 mm 0,0 UV-I 0 W/m 8,2 C 11,7 C 3,2 km/h (1 Bft) 96,00 %
14.07.2017 03:32 11,8 C 23,9 C 79 % 1016,1 hPa 0,0 l/m 0,9 km/h (0 Bft) O-NO 64 0 min 0,000 mm 0,0 UV-I 0 W/m 8,3 C 11,8 C 4,8 km/h (1 Bft) 95,74 %
14.07.2017 03:34 11,7 C 23,9 C 79 % 1016,1 hPa 0,0 l/m 0,5 km/h (0 Bft) O-NO 64 0 min 0,000 mm 0,0 UV-I 0 W/m 8,2 C 11,7 C 1,6 km/h (1 Bft) 98,00 %
14.07.2017 03:36 11,7 C 23,9 C 79 % 1016,1 hPa 0,0 l/m 0,2 km/h (0 Bft) O-NO 64 0 min 0,000 mm 0,0 UV-I 0 W/m 8,2 C 11,7 C 1,6 km/h (1 Bft) 97,56 %
14.07.2017 03:38 11,7 C 23,9 C 79 % 1016,0 hPa 0,0 l/m 0,5 km/h (0 Bft) O-NO 64 0 min 0,000 mm 0,0 UV-I 0 W/m 8,2 C 11,7 C 1,6 km/h (1 Bft) 100,00 %
14.07.2017 03:40 11,7 C 23,9 C 80 % 1015,9 hPa 0,0 l/m 2,7 km/h (1 Bft) O-NO 63 0 min 0,000 mm 0,0 UV-I 0 W/m 8,4 C 11,7 C 4,8 km/h (1 Bft) 98,00 %
14.07.2017 03:42 11,7 C 23,9 C 80 % 1015,9 hPa 0,0 l/m 6,0 km/h (2 Bft) O-NO 63 0 min 0,000 mm 0,0 UV-I 0 W/m 8,4 C 11,7 C 14,5 km/h (3 Bft) 97,87 %
14.07.2017 03:44 11,7 C 23,9 C 79 % 1015,8 hPa 0,0 l/m 8,5 km/h (2 Bft) O-NO 71 0 min 0,000 mm 0,0 UV-I 0 W/m 8,2 C 10,3 C 12,9 km/h (3 Bft) 100,00 %
14.07.2017 03:46 11,8 C 23,9 C 78 % 1015,8 hPa 0,0 l/m 8,8 km/h (2 Bft) O-NO 73 0 min 0,000 mm 0,0 UV-I 0 W/m 8,1 C 10,3 C 12,9 km/h (3 Bft) 97,44 %
14.07.2017 03:48 11,8 C 23,9 C 78 % 1015,8 hPa 0,0 l/m 9,4 km/h (2 Bft) O-NO 77 0 min 0,000 mm 0,0 UV-I 0 W/m 8,1 C 9,9 C 14,5 km/h (3 Bft) 100,00 %
14.07.2017 03:50 11,9 C 23,9 C 77 % 1015,8 hPa 0,0 l/m 7,7 km/h (2 Bft) O-NO 77 0 min 0,000 mm 0,0 UV-I 0 W/m 8,0 C 11,0 C 14,5 km/h (3 Bft) 98,31 %
14.07.2017 03:52 12,0 C 23,9 C 76 % 1015,8 hPa 0,0 l/m 10,4 km/h (2 Bft) O 86 0 min 0,000 mm 0,0 UV-I 0 W/m 7,9 C 9,6 C 14,5 km/h (3 Bft) 97,37 %
14.07.2017 03:54 12,1 C 23,9 C 76 % 1015,7 hPa 0,0 l/m 13,5 km/h (3 Bft) O-NO 72 0 min 0,000 mm 0,0 UV-I 0 W/m 8,0 C 8,3 C 16,1 km/h (3 Bft) 100,00 %
14.07.2017 03:56 12,2 C 23,9 C 76 % 1015,7 hPa 0,0 l/m 12,7 km/h (3 Bft) O 98 0 min 0,000 mm 0,0 UV-I 0 W/m 8,1 C 8,7 C 16,1 km/h (3 Bft) 94,64 %
14.07.2017 03:58 12,2 C 23,9 C 75 % 1015,7 hPa 0,0 l/m 11,9 km/h (2 Bft) O-NO 58 0 min 0,000 mm 0,0 UV-I 0 W/m 7,9 C 9,1 C 17,7 km/h (3 Bft) 97,73 %
14.07.2017 04:00 12,2 C 23,9 C 75 % 1015,7 hPa 0,0 l/m 10,6 km/h (2 Bft) O-NO 67 0 min 0,026 mm 0,0 UV-I 0 W/m 7,9 C 9,7 C 14,5 km/h (3 Bft) 97,73 %
14.07.2017 04:04 12,3 C 23,9 C 74 % 1015,6 hPa 0,0 l/m 9,8 km/h (2 Bft) O 81 0 min 0,000 mm 0,0 UV-I 0 W/m 7,8 C 10,2 C 16,1 km/h (3 Bft) 94,44 %
14.07.2017 04:06 12,3 C 23,9 C 75 % 1015,6 hPa 0,0 l/m 10,4 km/h (2 Bft) O-NO 74 0 min 0,000 mm 0,0 UV-I 0 W/m 8,0 C 9,9 C 14,5 km/h (3 Bft) 95,12 %
14.07.2017 04:08 12,3 C 23,9 C 74 % 1015,6 hPa 0,0 l/m 7,8 km/h (2 Bft) O-NO 67 0 min 0,000 mm 0,0 UV-I 0 W/m 7,8 C 11,4 C 12,9 km/h (3 Bft) 92,45 %
14.07.2017 04:10 12,3 C 23,9 C 74 % 1015,6 hPa 0,0 l/m 8,0 km/h (2 Bft) O-NO 69 0 min 0,000 mm 0,0 UV-I 0 W/m 7,8 C 11,3 C 12,9 km/h (3 Bft) 97,87 %
14.07.2017 04:12 12,3 C 23,9 C 74 % 1015,6 hPa 0,0 l/m 8,1 km/h (2 Bft) O-NO 76 0 min 0,000 mm 0,0 UV-I 0 W/m 7,8 C 11,2 C 12,9 km/h (3 Bft) 89,47 %
14.07.2017 04:14 12,3 C 23,9 C 75 % 1015,6 hPa 0,0 l/m 3,9 km/h (1 Bft) O 101 0 min 0,000 mm 0,0 UV-I 0 W/m 8,0 C 12,3 C 4,8 km/h (1 Bft) 95,45 %
14.07.2017 04:16 12,3 C 23,9 C 74 % 1015,7 hPa 0,0 l/m 3,9 km/h (1 Bft) O 88 0 min 0,000 mm 0,0 UV-I 0 W/m 7,8 C 12,3 C 8,0 km/h (2 Bft) 94,34 %
14.07.2017 04:18 12,2 C 23,9 C 74 % 1015,6 hPa 0,0 l/m 8,2 km/h (2 Bft) O 90 0 min 0,000 mm 0,0 UV-I 0 W/m 7,7 C 11,0 C 12,9 km/h (3 Bft) 92,68 %
14.07.2017 04:20 12,3 C 23,9 C 74 % 1015,6 hPa 0,0 l/m 7,5 km/h (2 Bft) O-NO 69 0 min 0,000 mm 0,0 UV-I 0 W/m 7,8 C 11,6 C 11,3 km/h (2 Bft) 95,24 %
14.07.2017 04:22 12,2 C 23,9 C 74 % 1015,6 hPa 0,0 l/m 6,2 km/h (2 Bft) O-NO 71 0 min 0,000 mm 0,0 UV-I 0 W/m 7,7 C 12,2 C 11,3 km/h (2 Bft) 94,34 %
14.07.2017 04:24 12,2 C 23,9 C 75 % 1015,6 hPa 0,0 l/m 7,0 km/h (2 Bft) O-NO 69 0 min 0,000 mm 0,0 UV-I 0 W/m 7,9 C 11,8 C 11,3 km/h (2 Bft) 94,00 %
14.07.2017 04:26 12,2 C 23,9 C 75 % 1015,6 hPa 0,0 l/m 7,4 km/h (2 Bft) O 82 0 min 0,000 mm 0,0 UV-I 0 W/m 7,9 C 11,5 C 12,9 km/h (3 Bft) 89,36 %
14.07.2017 04:28 12,2 C 23,9 C 75 % 1015,6 hPa 0,0 l/m 6,2 km/h (2 Bft) O-NO 71 0 min 0,000 mm 0,0 UV-I 0 W/m 7,9 C 12,2 C 11,3 km/h (2 Bft) 97,56 %
14.07.2017 04:30 12,1 C 23,9 C 75 % 1015,6 hPa 0,0 l/m 6,5 km/h (2 Bft) O-NO 63 0 min 0,000 mm 0,0 UV-I 0 W/m 7,8 C 12,1 C 11,3 km/h (2 Bft) 92,86 %
14.07.2017 04:32 12,1 C 23,9 C 75 % 1015,6 hPa 0,0 l/m 4,9 km/h (1 Bft) O 82 0 min 0,000 mm 0,0 UV-I 0 W/m 7,8 C 12,1 C 8,0 km/h (2 Bft) 92,68 %
14.07.2017 04:34 12,1 C 23,9 C 75 % 1015,6 hPa 0,0 l/m 4,1 km/h (1 Bft) O-NO 73 0 min 0,000 mm 0,0 UV-I 0 W/m 7,8 C 12,1 C 6,4 km/h (2 Bft) 96,23 %
14.07.2017 04:36 11,9 C 23,9 C 76 % 1015,7 hPa 0,0 l/m 4,0 km/h (1 Bft) O-NO 73 0 min 0,000 mm 0,0 UV-I 0 W/m 7,8 C 11,9 C 6,4 km/h (2 Bft) 93,62 %
14.07.2017 04:38 11,8 C 23,9 C 77 % 1015,8 hPa 0,0 l/m 3,5 km/h (1 Bft) O-NO 73 0 min 0,000 mm 0,0 UV-I 0 W/m 7,9 C 11,8 C 4,8 km/h (1 Bft) 94,00 %
14.07.2017 04:40 11,7 C 23,9 C 78 % 1015,8 hPa 0,0 l/m 3,0 km/h (1 Bft) O-NO 68 0 min 0,000 mm 0,0 UV-I 0 W/m 8,0 C 11,7 C 4,8 km/h (1 Bft) 94,29 %
14.07.2017 04:43 11,6 C 23,9 C 78 % 1015,8 hPa 0,0 l/m 2,7 km/h (1 Bft) O-NO 68 0 min 0,000 mm 0,0 UV-I 0 W/m 7,9 C 11,6 C 4,8 km/h (1 Bft) 93,24 %
14.07.2017 04:44 11,6 C 23,9 C 78 % 1015,8 hPa 0,0 l/m 2,6 km/h (1 Bft) O-NO 68 0 min 0,000 mm 0,0 UV-I 0 W/m 7,9 C 11,6 C 3,2 km/h (1 Bft) 95,65 %
14.07.2017 04:46 11,6 C 23,9 C 78 % 1015,9 hPa 0,0 l/m 1,7 km/h (1 Bft) O-NO 68 0 min 0,000 mm 0,0 UV-I 0 W/m 7,9 C 11,6 C 3,2 km/h (1 Bft) 94,34 %
14.07.2017 04:48 11,7 C 23,9 C 78 % 1015,9 hPa 0,0 l/m 0,1 km/h (0 Bft) O-NO 68 0 min 0,000 mm 0,0 UV-I 0 W/m 8,0 C 11,7 C 1,6 km/h (1 Bft) 97,37 %
14.07.2017 04:50 11,7 C 23,9 C 78 % 1015,9 hPa 0,0 l/m 1,2 km/h (1 Bft) O-NO 68 0 min 0,000 mm 0,0 UV-I 0 W/m 8,0 C 11,7 C 3,2 km/h (1 Bft) 96,23 %
14.07.2017 04:52 11,6 C 23,9 C 78 % 1015,8 hPa 0,0 l/m 1,9 km/h (1 Bft) O-NO 68 0 min 0,000 mm 0,0 UV-I 0 W/m 7,9 C 11,6 C 3,2 km/h (1 Bft) 96,00 %
14.07.2017 04:54 11,5 C 23,9 C 78 % 1015,8 hPa 0,0 l/m 2,7 km/h (1 Bft) O-NO 67 0 min 0,000 mm 0,0 UV-I 0 W/m 7,8 C 11,5 C 4,8 km/h (1 Bft) 97,14 %
14.07.2017 04:56 11,5 C 23,9 C 79 % 1015,8 hPa 0,0 l/m 4,1 km/h (1 Bft) NO 47 0 min 0,000 mm 0,0 UV-I 0 W/m 8,0 C 11,5 C 6,4 km/h (2 Bft) 94,64 %
14.07.2017 04:58 11,5 C 23,9 C 78 % 1015,8 hPa 0,0 l/m 1,4 km/h (1 Bft) NO 47 0 min 0,000 mm 0,0 UV-I 0 W/m 7,8 C 11,5 C 4,8 km/h (1 Bft) 96,00 %
14.07.2017 05:00 11,5 C 23,9 C 78 % 1015,8 hPa 0,0 l/m 0,2 km/h (0 Bft) NO 47 0 min 0,025 mm 0,0 UV-I 0 W/m 7,8 C 11,5 C 1,6 km/h (1 Bft) 95,83 %
14.07.2017 05:02 11,5 C 23,9 C 79 % 1015,8 hPa 0,0 l/m 1,5 km/h (1 Bft) NO 47 0 min 0,000 mm 0,0 UV-I 2 W/m 8,0 C 11,5 C 3,2 km/h (1 Bft) 94,29 %
14.07.2017 05:04 11,4 C 23,9 C 79 % 1015,8 hPa 0,0 l/m 1,0 km/h (0 Bft) NO 47 0 min 0,000 mm 0,0 UV-I 5 W/m 7,9 C 11,4 C 3,2 km/h (1 Bft) 95,24 %
14.07.2017 05:06 11,3 C 23,9 C 80 % 1015,7 hPa 0,0 l/m 0,6 km/h (0 Bft) NO 47 0 min 0,000 mm 0,0 UV-I 5 W/m 8,0 C 11,3 C 3,2 km/h (1 Bft) 97,56 %
14.07.2017 05:08 11,3 C 23,9 C 80 % 1015,7 hPa 0,0 l/m 1,3 km/h (1 Bft) NO 47 0 min 0,000 mm 0,0 UV-I 5 W/m 8,0 C 11,3 C 3,2 km/h (1 Bft) 97,87 %
14.07.2017 05:10 11,3 C 23,9 C 80 % 1015,7 hPa 0,0 l/m 1,1 km/h (1 Bft) NO 47 0 min 0,000 mm 0,0 UV-I 5 W/m 8,0 C 11,3 C 1,6 km/h (1 Bft) 95,74 %
14.07.2017 05:12 11,3 C 23,9 C 80 % 1015,7 hPa 0,0 l/m 0,7 km/h (0 Bft) NO 47 0 min 0,000 mm 0,0 UV-I 5 W/m 8,0 C 11,3 C 3,2 km/h (1 Bft) 100,00 %
14.07.2017 05:14 11,3 C 23,9 C 80 % 1015,7 hPa 0,0 l/m 0,0 km/h (0 Bft) NO 47 0 min 0,000 mm 0,0 UV-I 5 W/m 8,0 C 11,3 C 0,0 km/h (0 Bft) 93,62 %
14.07.2017 05:16 11,3 C 23,9 C 80 % 1015,7 hPa 0,0 l/m 0,7 km/h (0 Bft) NO 47 0 min 0,000 mm 0,0 UV-I 5 W/m 8,0 C 11,3 C 1,6 km/h (1 Bft) 100,00 %
14.07.2017 05:18 11,2 C 23,9 C 80 % 1015,7 hPa 0,0 l/m 0,3 km/h (0 Bft) NO 47 0 min 0,000 mm 0,0 UV-I 6 W/m 7,9 C 11,2 C 1,6 km/h (1 Bft) 98,00 %
14.07.2017 05:20 11,2 C 23,9 C 80 % 1015,7 hPa 0,0 l/m 1,3 km/h (1 Bft) NO 47 0 min 0,000 mm 0,0 UV-I 7 W/m 7,9 C 11,2 C 4,8 km/h (1 Bft) 97,87 %
14.07.2017 05:22 11,2 C 23,9 C 81 % 1015,7 hPa 0,0 l/m 1,4 km/h (1 Bft) NO 47 0 min 0,000 mm 0,0 UV-I 7 W/m 8,1 C 11,2 C 3,2 km/h (1 Bft) 95,12 %
14.07.2017 05:24 11,1 C 23,9 C 81 % 1015,7 hPa 0,0 l/m 0,7 km/h (0 Bft) NO 47 0 min 0,000 mm 0,0 UV-I 7 W/m 8,0 C 11,1 C 1,6 km/h (1 Bft) 98,00 %
14.07.2017 05:26 11,1 C 23,9 C 81 % 1015,7 hPa 0,0 l/m 2,2 km/h (1 Bft) NO 47 0 min 0,000 mm 0,0 UV-I 8 W/m 8,0 C 11,1 C 3,2 km/h (1 Bft) 100,00 %
14.07.2017 05:28 11,1 C 23,9 C 81 % 1015,7 hPa 0,0 l/m 2,1 km/h (1 Bft) NO 47 0 min 0,000 mm 0,0 UV-I 9 W/m 8,0 C 11,1 C 3,2 km/h (1 Bft) 97,73 %
14.07.2017 05:30 11,1 C 23,9 C 81 % 1015,6 hPa 0,0 l/m 1,5 km/h (1 Bft) NO 47 0 min 0,000 mm 0,0 UV-I 10 W/m 8,0 C 11,1 C 3,2 km/h (1 Bft) 100,00 %
14.07.2017 05:32 11,1 C 23,9 C 81 % 1015,6 hPa 0,0 l/m 1,4 km/h (1 Bft) NO 47 2 min 0,000 mm 0,0 UV-I 11 W/m 8,0 C 11,1 C 3,2 km/h (1 Bft) 97,56 %
14.07.2017 05:34 11,1 C 23,9 C 81 % 1015,7 hPa 0,0 l/m 1,6 km/h (1 Bft) NO 47 0 min 0,000 mm 0,0 UV-I 12 W/m 8,0 C 11,1 C 3,2 km/h (1 Bft) 98,00 %
14.07.2017 05:36 11,1 C 23,9 C 81 % 1015,7 hPa 0,0 l/m 0,8 km/h (0 Bft) NO 47 0 min 0,000 mm 0,0 UV-I 14 W/m 8,0 C 11,1 C 1,6 km/h (1 Bft) 97,56 %
14.07.2017 05:38 11,0 C 23,9 C 81 % 1015,7 hPa 0,0 l/m 1,6 km/h (1 Bft) NO 47 0 min 0,000 mm 0,0 UV-I 16 W/m 7,9 C 11,0 C 3,2 km/h (1 Bft) 100,00 %
14.07.2017 05:40 11,0 C 23,9 C 81 % 1015,7 hPa 0,0 l/m 0,9 km/h (0 Bft) NO 47 0 min 0,000 mm 0,0 UV-I 19 W/m 7,9 C 11,0 C 3,2 km/h (1 Bft) 97,87 %
14.07.2017 05:42 10,9 C 23,9 C 81 % 1015,7 hPa 0,0 l/m 0,9 km/h (0 Bft) NO 47 0 min 0,000 mm 0,0 UV-I 19 W/m 7,8 C 10,9 C 3,2 km/h (1 Bft) 98,08 %
14.07.2017 05:44 10,9 C 23,3 C 81 % 1015,6 hPa 0,0 l/m 1,8 km/h (1 Bft) NO 47 0 min 0,000 mm 0,0 UV-I 19 W/m 7,8 C 10,9 C 3,2 km/h (1 Bft) 98,00 %
14.07.2017 05:46 10,9 C 23,9 C 81 % 1015,6 hPa 0,0 l/m 1,5 km/h (1 Bft) NO 47 0 min 0,000 mm 0,0 UV-I 19 W/m 7,8 C 10,9 C 3,2 km/h (1 Bft) 97,92 %
14.07.2017 05:48 10,9 C 23,3 C 81 % 1015,6 hPa 0,0 l/m 1,3 km/h (1 Bft) NO 47 0 min 0,000 mm 0,0 UV-I 21 W/m 7,8 C 10,9 C 3,2 km/h (1 Bft) 97,56 %
14.07.2017 05:50 10,8 C 23,3 C 82 % 1015,5 hPa 0,0 l/m 1,0 km/h (0 Bft) NO 47 0 min 0,000 mm 0,0 UV-I 22 W/m 7,9 C 10,8 C 3,2 km/h (1 Bft) 97,87 %
14.07.2017 05:52 10,8 C 23,3 C 82 % 1015,5 hPa 0,0 l/m 1,0 km/h (0 Bft) NO 47 0 min 0,000 mm 0,0 UV-I 26 W/m 7,9 C 10,8 C 3,2 km/h (1 Bft) 95,74 %
14.07.2017 05:54 10,7 C 23,9 C 81 % 1015,5 hPa 0,0 l/m 4,2 km/h (1 Bft) O-NO 75 0 min 0,000 mm 0,0 UV-I 30 W/m 7,6 C 10,7 C 6,4 km/h (2 Bft) 100,00 %
14.07.2017 05:56 10,7 C 23,9 C 81 % 1015,4 hPa 0,0 l/m 4,8 km/h (1 Bft) O-NO 74 0 min 0,000 mm 0,0 UV-I 36 W/m 7,6 C 10,7 C 8,0 km/h (2 Bft) 96,00 %
14.07.2017 05:58 10,8 C 23,3 C 81 % 1015,4 hPa 0,0 l/m 3,9 km/h (1 Bft) O-NO 74 0 min 0,000 mm 0,0 UV-I 30 W/m 7,7 C 10,8 C 6,4 km/h (2 Bft) 100,00 %
14.07.2017 06:00 11,0 C 23,3 C 80 % 1015,4 hPa 0,0 l/m 4,0 km/h (1 Bft) O-NO 74 0 min 0,026 mm 0,0 UV-I 26 W/m 7,7 C 11,0 C 6,4 km/h (2 Bft) 98,21 %
14.07.2017 06:02 11,1 C 23,3 C 80 % 1015,4 hPa 0,0 l/m 4,7 km/h (1 Bft) O-NO 74 0 min 0,000 mm 0,0 UV-I 29 W/m 7,8 C 11,1 C 6,4 km/h (2 Bft) 97,56 %
14.07.2017 06:04 11,2 C 23,3 C 80 % 1015,4 hPa 0,0 l/m 4,9 km/h (1 Bft) O-NO 67 0 min 0,000 mm 0,0 UV-I 48 W/m 7,9 C 11,2 C 6,4 km/h (2 Bft) 100,00 %
14.07.2017 06:06 11,2 C 23,3 C 79 % 1015,4 hPa 0,0 l/m 5,2 km/h (1 Bft) O-NO 71 0 min 0,000 mm 0,0 UV-I 56 W/m 7,7 C 11,2 C 8,0 km/h (2 Bft) 97,37 %
14.07.2017 06:08 11,3 C 23,3 C 79 % 1015,4 hPa 0,0 l/m 4,5 km/h (1 Bft) O 93 0 min 0,000 mm 0,0 UV-I 46 W/m 7,8 C 11,3 C 9,7 km/h (2 Bft) 100,00 %
14.07.2017 06:10 11,4 C 23,3 C 78 % 1015,4 hPa 0,0 l/m 4,1 km/h (1 Bft) O 88 0 min 0,000 mm 0,0 UV-I 60 W/m 7,7 C 11,4 C 8,0 km/h (2 Bft) 96,00 %
14.07.2017 06:12 11,4 C 23,3 C 78 % 1015,4 hPa 0,0 l/m 4,3 km/h (1 Bft) O-NO 75 2 min 0,000 mm 0,0 UV-I 67 W/m 7,7 C 11,4 C 6,4 km/h (2 Bft) 96,00 %
14.07.2017 06:14 11,6 C 23,3 C 78 % 1015,4 hPa 0,0 l/m 4,5 km/h (1 Bft) O 90 0 min 0,000 mm 0,0 UV-I 48 W/m 7,9 C 11,6 C 9,7 km/h (2 Bft) 96,00 %
14.07.2017 06:16 11,6 C 23,3 C 78 % 1015,4 hPa 0,0 l/m 5,1 km/h (1 Bft) O-NO 71 0 min 0,000 mm 0,0 UV-I 45 W/m 7,9 C 11,6 C 8,0 km/h (2 Bft) 95,12 %
14.07.2017 06:18 11,7 C 23,3 C 77 % 1015,4 hPa 0,0 l/m 6,8 km/h (2 Bft) O 93 2 min 0,000 mm 0,0 UV-I 79 W/m 7,8 C 11,4 C 11,3 km/h (2 Bft) 96,23 %
14.07.2017 06:20 11,7 C 23,3 C 77 % 1015,4 hPa 0,0 l/m 6,1 km/h (2 Bft) O 82 0 min 0,000 mm 0,0 UV-I 59 W/m 7,8 C 11,7 C 11,3 km/h (2 Bft) 97,44 %
14.07.2017 06:22 11,8 C 23,3 C 77 % 1015,4 hPa 0,0 l/m 6,4 km/h (2 Bft) O 91 2 min 0,000 mm 0,0 UV-I 84 W/m 7,9 C 11,8 C 11,3 km/h (2 Bft) 96,00 %
14.07.2017 06:24 11,8 C 23,3 C 76 % 1015,4 hPa 0,0 l/m 5,5 km/h (1 Bft) O-NO 62 0 min 0,000 mm 0,0 UV-I 78 W/m 7,7 C 11,8 C 9,7 km/h (2 Bft) 93,62 %
14.07.2017 06:26 11,9 C 23,3 C 76 % 1015,5 hPa 0,0 l/m 4,6 km/h (1 Bft) O-NO 71 0 min 0,000 mm 0,0 UV-I 50 W/m 7,8 C 11,9 C 8,0 km/h (2 Bft) 96,00 %
14.07.2017 06:28 11,9 C 23,3 C 76 % 1015,5 hPa 0,0 l/m 5,2 km/h (1 Bft) O-NO 69 0 min 0,000 mm 0,0 UV-I 47 W/m 7,8 C 11,9 C 8,0 km/h (2 Bft) 96,00 %
14.07.2017 06:30 11,9 C 23,3 C 76 % 1015,5 hPa 0,0 l/m 5,2 km/h (1 Bft) O-NO 69 0 min 0,000 mm 0,0 UV-I 49 W/m 7,8 C 11,9 C 6,4 km/h (2 Bft) 97,37 %
14.07.2017 06:32 12,0 C 23,3 C 76 % 1015,5 hPa 0,0 l/m 4,7 km/h (1 Bft) O-NO 68 0 min 0,000 mm 0,0 UV-I 72 W/m 7,9 C 12,0 C 6,4 km/h (2 Bft) 96,00 %
14.07.2017 06:34 12,1 C 23,3 C 76 % 1015,5 hPa 0,0 l/m 2,7 km/h (1 Bft) O-NO 68 0 min 0,000 mm 0,0 UV-I 70 W/m 8,0 C 12,1 C 6,4 km/h (2 Bft) 97,87 %
14.07.2017 06:36 12,1 C 23,3 C 76 % 1015,5 hPa 0,0 l/m 2,6 km/h (1 Bft) O-NO 68 2 min 0,000 mm 0,0 UV-I 128 W/m 8,0 C 12,1 C 4,8 km/h (1 Bft) 97,87 %
14.07.2017 06:38 12,2 C 23,3 C 78 % 1015,5 hPa 0,0 l/m 1,7 km/h (1 Bft) O-NO 68 2 min 0,000 mm 0,0 UV-I 154 W/m 8,5 C 12,2 C 4,8 km/h (1 Bft) 97,56 %
14.07.2017 06:40 12,2 C 23,3 C 78 % 1015,6 hPa 0,0 l/m 1,1 km/h (1 Bft) O-NO 68 2 min 0,000 mm 0,0 UV-I 164 W/m 8,5 C 12,2 C 3,2 km/h (1 Bft) 94,00 %
14.07.2017 06:42 12,2 C 23,3 C 79 % 1015,6 hPa 0,0 l/m 0,4 km/h (0 Bft) O-NO 68 2 min 0,000 mm 0,0 UV-I 181 W/m 8,7 C 12,2 C 1,6 km/h (1 Bft) 93,18 %
14.07.2017 06:44 12,3 C 23,3 C 78 % 1015,6 hPa 0,0 l/m 1,0 km/h (0 Bft) O-NO 68 2 min 0,000 mm 0,0 UV-I 198 W/m 8,6 C 12,3 C 1,6 km/h (1 Bft) 96,00 %
14.07.2017 06:46 12,4 C 23,3 C 78 % 1015,6 hPa 0,0 l/m 0,9 km/h (0 Bft) O-NO 68 2 min 0,000 mm 0,0 UV-I 210 W/m 8,7 C 12,4 C 3,2 km/h (1 Bft) 91,49 %
14.07.2017 06:48 12,5 C 23,3 C 77 % 1015,6 hPa 0,0 l/m 2,2 km/h (1 Bft) N-NO 31 2 min 0,000 mm 0,0 UV-I 151 W/m 8,6 C 12,5 C 8,0 km/h (2 Bft) 94,00 %
14.07.2017 06:50 12,6 C 23,3 C 76 % 1015,6 hPa 0,0 l/m 2,8 km/h (1 Bft) N-NO 31 2 min 0,000 mm 0,0 UV-I 150 W/m 8,5 C 12,6 C 3,2 km/h (1 Bft) 95,74 %
14.07.2017 06:52 12,7 C 23,3 C 77 % 1015,6 hPa 0,0 l/m 4,3 km/h (1 Bft) NO 36 2 min 0,000 mm 0,0 UV-I 168 W/m 8,8 C 12,7 C 6,4 km/h (2 Bft) 95,12 %
14.07.2017 06:54 12,7 C 23,3 C 77 % 1015,6 hPa 0,0 l/m 4,1 km/h (1 Bft) NO 36 2 min 0,000 mm 0,0 UV-I 180 W/m 8,8 C 12,7 C 4,8 km/h (1 Bft) 100,00 %
14.07.2017 06:56 12,8 C 23,3 C 76 % 1015,6 hPa 0,0 l/m 4,8 km/h (1 Bft) NO 37 2 min 0,000 mm 0,0 UV-I 163 W/m 8,7 C 12,8 C 6,4 km/h (2 Bft) 90,48 %
14.07.2017 06:58 12,8 C 23,3 C 76 % 1015,6 hPa 0,0 l/m 3,7 km/h (1 Bft) NO 39 2 min 0,000 mm 0,0 UV-I 158 W/m 8,7 C 12,8 C 6,4 km/h (2 Bft) 98,00 %
14.07.2017 07:00 12,9 C 23,3 C 76 % 1015,6 hPa 0,0 l/m 4,1 km/h (1 Bft) NO 47 2 min 0,050 mm 0,0 UV-I 142 W/m 8,8 C 12,9 C 6,4 km/h (2 Bft) 100,00 %
14.07.2017 07:02 13,0 C 23,3 C 75 % 1015,6 hPa 0,0 l/m 2,2 km/h (1 Bft) NO 47 2 min 0,000 mm 0,0 UV-I 166 W/m 8,7 C 13,0 C 4,8 km/h (1 Bft) 95,83 %
14.07.2017 07:04 13,1 C 23,3 C 76 % 1015,6 hPa 0,0 l/m 3,6 km/h (1 Bft) NO 47 2 min 0,000 mm 0,0 UV-I 143 W/m 9,0 C 13,1 C 4,8 km/h (1 Bft) 97,87 %
14.07.2017 07:06 13,2 C 23,3 C 75 % 1015,6 hPa 0,0 l/m 3,6 km/h (1 Bft) NO 49 2 min 0,000 mm 0,0 UV-I 154 W/m 8,9 C 13,2 C 9,7 km/h (2 Bft) 98,00 %
14.07.2017 07:08 13,3 C 23,3 C 74 % 1015,6 hPa 0,0 l/m 5,0 km/h (1 Bft) N-NO 28 2 min 0,000 mm 0,0 UV-I 194 W/m 8,8 C 13,3 C 6,4 km/h (2 Bft) 100,00 %
14.07.2017 07:10 13,4 C 23,3 C 74 % 1015,5 hPa 0,0 l/m 3,7 km/h (1 Bft) N-NO 28 2 min 0,000 mm 0,0 UV-I 323 W/m 8,9 C 13,4 C 6,4 km/h (2 Bft) 96,23 %
14.07.2017 07:12 13,6 C 23,3 C 72 % 1015,5 hPa 0,0 l/m 5,5 km/h (1 Bft) NO 50 2 min 0,000 mm 0,0 UV-I 277 W/m 8,6 C 13,6 C 8,0 km/h (2 Bft) 92,00 %
14.07.2017 07:14 13,7 C 23,3 C 72 % 1015,5 hPa 0,0 l/m 6,3 km/h (2 Bft) NO 46 2 min 0,000 mm 0,0 UV-I 242 W/m 8,7 C 13,7 C 9,7 km/h (2 Bft) 100,00 %
14.07.2017 07:16 13,8 C 23,3 C 72 % 1015,4 hPa 0,0 l/m 6,4 km/h (2 Bft) NO 55 2 min 0,000 mm 0,0 UV-I 195 W/m 8,8 C 13,8 C 9,7 km/h (2 Bft) 89,47 %
14.07.2017 07:18 13,8 C 23,3 C 71 % 1015,4 hPa 0,0 l/m 7,1 km/h (2 Bft) NO 55 2 min 0,000 mm 0,0 UV-I 193 W/m 8,6 C 13,4 C 11,3 km/h (2 Bft) 96,43 %
14.07.2017 07:20 13,8 C 23,3 C 70 % 1015,4 hPa 0,0 l/m 10,2 km/h (2 Bft) O-NO 60 2 min 0,000 mm 0,0 UV-I 179 W/m 8,4 C 11,7 C 14,5 km/h (3 Bft) 94,74 %
14.07.2017 07:22 13,7 C 23,3 C 71 % 1015,4 hPa 0,0 l/m 7,6 km/h (2 Bft) NO 47 2 min 0,000 mm 0,0 UV-I 185 W/m 8,5 C 13,0 C 14,5 km/h (3 Bft) 91,49 %
14.07.2017 07:24 13,7 C 23,3 C 71 % 1015,3 hPa 0,0 l/m 7,2 km/h (2 Bft) O-NO 69 2 min 0,000 mm 0,2 UV-I 201 W/m 8,5 C 13,2 C 14,5 km/h (3 Bft) 96,36 %
14.07.2017 07:26 13,7 C 23,3 C 71 % 1015,3 hPa 0,0 l/m 9,2 km/h (2 Bft) O-NO 69 2 min 0,000 mm 0,5 UV-I 210 W/m 8,5 C 12,1 C 16,1 km/h (3 Bft) 94,74 %
14.07.2017 07:28 13,8 C 23,3 C 71 % 1015,3 hPa 0,0 l/m 8,2 km/h (2 Bft) O-NO 58 2 min 0,000 mm 0,5 UV-I 227 W/m 8,6 C 12,7 C 11,3 km/h (2 Bft) 92,45 %
14.07.2017 07:30 13,8 C 23,3 C 71 % 1015,3 hPa 0,0 l/m 9,9 km/h (2 Bft) O-NO 68 2 min 0,000 mm 0,5 UV-I 234 W/m 8,6 C 11,8 C 14,5 km/h (3 Bft) 88,89 %
14.07.2017 07:32 13,9 C 23,3 C 70 % 1015,3 hPa 0,0 l/m 13,5 km/h (3 Bft) O-NO 63 2 min 0,000 mm 0,6 UV-I 279 W/m 8,5 C 10,4 C 17,7 km/h (3 Bft) 96,72 %
14.07.2017 07:34 13,9 C 23,3 C 71 % 1015,3 hPa 0,0 l/m 12,7 km/h (3 Bft) O-NO 61 2 min 0,000 mm 0,6 UV-I 356 W/m 8,7 C 10,7 C 16,1 km/h (3 Bft) 97,87 %
14.07.2017 07:36 14,0 C 23,3 C 69 % 1015,2 hPa 0,0 l/m 9,5 km/h (2 Bft) O-NO 78 2 min 0,000 mm 0,6 UV-I 308 W/m 8,4 C 12,3 C 14,5 km/h (3 Bft) 92,86 %
14.07.2017 07:38 14,1 C 23,3 C 70 % 1015,3 hPa 0,0 l/m 9,9 km/h (2 Bft) O-NO 64 2 min 0,000 mm 0,6 UV-I 303 W/m 8,7 C 12,2 C 14,5 km/h (3 Bft) 96,23 %
14.07.2017 07:40 14,2 C 23,3 C 69 % 1015,2 hPa 0,0 l/m 11,4 km/h (2 Bft) O-NO 66 2 min 0,000 mm 0,6 UV-I 219 W/m 8,6 C 11,6 C 16,1 km/h (3 Bft) 98,08 %
14.07.2017 07:42 14,2 C 23,3 C 69 % 1015,3 hPa 0,0 l/m 10,7 km/h (2 Bft) O-NO 65 0 min 0,000 mm 0,5 UV-I 175 W/m 8,6 C 11,9 C 17,7 km/h (3 Bft) 97,62 %
14.07.2017 07:44 14,1 C 23,3 C 68 % 1015,3 hPa 0,0 l/m 9,6 km/h (2 Bft) NO 55 0 min 0,000 mm 0,6 UV-I 193 W/m 8,3 C 12,3 C 16,1 km/h (3 Bft) 93,62 %
14.07.2017 07:46 14,1 C 23,3 C 69 % 1015,2 hPa 0,0 l/m 11,1 km/h (2 Bft) O-NO 61 0 min 0,000 mm 0,6 UV-I 187 W/m 8,5 C 11,6 C 16,1 km/h (3 Bft) 96,23 %
14.07.2017 07:48 14,1 C 23,3 C 69 % 1015,3 hPa 0,0 l/m 10,8 km/h (2 Bft) O-NO 75 2 min 0,000 mm 0,6 UV-I 211 W/m 8,5 C 11,8 C 17,7 km/h (3 Bft) 95,74 %
14.07.2017 07:50 14,1 C 23,3 C 69 % 1015,2 hPa 0,0 l/m 9,1 km/h (2 Bft) NO 55 0 min 0,000 mm 0,6 UV-I 202 W/m 8,5 C 12,6 C 14,5 km/h (3 Bft) 97,37 %
14.07.2017 07:52 14,1 C 23,3 C 70 % 1015,2 hPa 0,0 l/m 7,1 km/h (2 Bft) O-NO 71 2 min 0,000 mm 0,7 UV-I 219 W/m 8,7 C 13,7 C 12,9 km/h (3 Bft) 96,00 %
14.07.2017 07:54 14,2 C 23,3 C 71 % 1015,2 hPa 0,0 l/m 7,0 km/h (2 Bft) O-NO 65 2 min 0,000 mm 0,7 UV-I 250 W/m 9,0 C 13,8 C 12,9 km/h (3 Bft) 96,23 %
14.07.2017 07:56 14,3 C 23,3 C 69 % 1015,2 hPa 0,0 l/m 12,9 km/h (3 Bft) O 79 2 min 0,000 mm 0,8 UV-I 265 W/m 8,7 C 11,1 C 19,3 km/h (3 Bft) 89,47 %
14.07.2017 07:58 14,4 C 23,3 C 68 % 1015,2 hPa 0,0 l/m 6,6 km/h (2 Bft) O 92 2 min 0,000 mm 0,8 UV-I 315 W/m 8,6 C 14,3 C 12,9 km/h (3 Bft) 94,34 %
14.07.2017 08:00 14,5 C 23,3 C 68 % 1015,2 hPa 0,0 l/m 11,1 km/h (2 Bft) O-NO 65 2 min 0,153 mm 0,8 UV-I 366 W/m 8,7 C 12,1 C 16,1 km/h (3 Bft) 97,56 %
14.07.2017 08:02 14,7 C 23,3 C 69 % 1015,2 hPa 0,0 l/m 9,2 km/h (2 Bft) O-NO 64 2 min 0,000 mm 0,9 UV-I 421 W/m 9,1 C 13,2 C 14,5 km/h (3 Bft) 98,11 %
14.07.2017 08:04 14,8 C 23,3 C 67 % 1015,2 hPa 0,0 l/m 9,2 km/h (2 Bft) O-NO 63 2 min 0,000 mm 0,8 UV-I 348 W/m 8,7 C 13,3 C 16,1 km/h (3 Bft) 100,00 %
14.07.2017 08:06 14,8 C 23,3 C 66 % 1015,3 hPa 0,0 l/m 12,6 km/h (3 Bft) O 92 2 min 0,000 mm 0,8 UV-I 258 W/m 8,5 C 11,8 C 17,7 km/h (3 Bft) 94,55 %
14.07.2017 08:08 14,7 C 23,3 C 66 % 1015,3 hPa 0,0 l/m 13,1 km/h (3 Bft) O-NO 74 2 min 0,000 mm 0,8 UV-I 241 W/m 8,4 C 11,5 C 17,7 km/h (3 Bft) 94,64 %
14.07.2017 08:10 14,6 C 23,3 C 67 % 1015,2 hPa 0,0 l/m 11,9 km/h (2 Bft) O-NO 70 2 min 0,000 mm 0,8 UV-I 240 W/m 8,5 C 11,9 C 16,1 km/h (3 Bft) 90,00 %
14.07.2017 08:12 14,6 C 23,3 C 67 % 1015,1 hPa 0,0 l/m 10,8 km/h (2 Bft) O-NO 57 2 min 0,000 mm 0,8 UV-I 262 W/m 8,5 C 12,3 C 17,7 km/h (3 Bft) 97,56 %
14.07.2017 08:14 14,6 C 23,3 C 67 % 1015,2 hPa 0,0 l/m 12,9 km/h (3 Bft) O 84 2 min 0,000 mm 0,9 UV-I 270 W/m 8,5 C 11,5 C 16,1 km/h (3 Bft) 100,00 %
14.07.2017 08:16 14,6 C 23,3 C 68 % 1015,2 hPa 0,0 l/m 12,7 km/h (3 Bft) NO 44 2 min 0,000 mm 0,9 UV-I 308 W/m 8,8 C 11,5 C 16,1 km/h (3 Bft) 94,87 %
14.07.2017 08:18 14,6 C 23,3 C 68 % 1015,1 hPa 0,0 l/m 9,9 km/h (2 Bft) NO 48 2 min 0,000 mm 0,9 UV-I 316 W/m 8,8 C 12,7 C 16,1 km/h (3 Bft) 95,74 %
14.07.2017 08:20 14,7 C 23,3 C 68 % 1015,0 hPa 0,0 l/m 10,9 km/h (2 Bft) O 90 2 min 0,000 mm 0,9 UV-I 296 W/m 8,9 C 12,4 C 14,5 km/h (3 Bft) 96,00 %
14.07.2017 08:22 14,7 C 23,3 C 67 % 1015,2 hPa 0,0 l/m 13,9 km/h (3 Bft) O-NO 61 2 min 0,000 mm 0,9 UV-I 283 W/m 8,6 C 11,2 C 17,7 km/h (3 Bft) 95,74 %
14.07.2017 08:24 14,7 C 23,3 C 68 % 1015,0 hPa 0,0 l/m 11,6 km/h (2 Bft) O 80 2 min 0,000 mm 0,8 UV-I 262 W/m 8,9 C 12,1 C 17,7 km/h (3 Bft) 97,56 %
14.07.2017 08:26 14,8 C 23,3 C 68 % 1015,1 hPa 0,0 l/m 12,3 km/h (3 Bft) O-NO 71 2 min 0,000 mm 0,9 UV-I 261 W/m 9,0 C 11,9 C 17,7 km/h (3 Bft) 94,34 %
14.07.2017 08:28 14,9 C 23,3 C 67 % 1015,0 hPa 0,0 l/m 15,2 km/h (3 Bft) O-NO 67 2 min 0,000 mm 0,9 UV-I 264 W/m 8,8 C 11,0 C 19,3 km/h (3 Bft) 95,12 %
14.07.2017 08:30 14,8 C 23,3 C 67 % 1015,1 hPa 0,0 l/m 11,7 km/h (2 Bft) O-NO 58 0 min 0,000 mm 0,9 UV-I 261 W/m 8,7 C 12,2 C 17,7 km/h (3 Bft) 96,00 %
14.07.2017 08:32 14,9 C 23,3 C 68 % 1015,1 hPa 0,0 l/m 7,8 km/h (2 Bft) O-NO 65 0 min 0,000 mm 0,9 UV-I 261 W/m 9,0 C 14,1 C 12,9 km/h (3 Bft) 95,74 %
14.07.2017 08:34 14,9 C 23,3 C 68 % 1015,1 hPa 0,0 l/m 9,3 km/h (2 Bft) O-NO 71 2 min 0,000 mm 0,9 UV-I 274 W/m 9,0 C 13,3 C 16,1 km/h (3 Bft) 91,49 %
14.07.2017 08:36 15,0 C 23,3 C 67 % 1015,1 hPa 0,0 l/m 12,5 km/h (3 Bft) O 95 2 min 0,000 mm 0,9 UV-I 279 W/m 8,9 C 12,1 C 16,1 km/h (3 Bft) 96,08 %
14.07.2017 08:38 15,0 C 23,3 C 67 % 1015,2 hPa 0,0 l/m 13,0 km/h (3 Bft) NO 50 2 min 0,000 mm 0,9 UV-I 281 W/m 8,9 C 11,9 C 16,1 km/h (3 Bft) 98,00 %
14.07.2017 08:40 15,0 C 23,3 C 67 % 1015,2 hPa 0,0 l/m 11,6 km/h (2 Bft) O-NO 78 2 min 0,000 mm 0,9 UV-I 282 W/m 8,9 C 12,4 C 19,3 km/h (3 Bft) 92,11 %
14.07.2017 08:42 15,1 C 23,3 C 66 % 1015,2 hPa 0,0 l/m 11,1 km/h (2 Bft) O 85 0 min 0,000 mm 0,9 UV-I 270 W/m 8,8 C 12,8 C 16,1 km/h (3 Bft) 96,00 %
14.07.2017 08:44 15,2 C 23,3 C 66 % 1015,2 hPa 0,0 l/m 12,3 km/h (3 Bft) NO 42 0 min 0,000 mm 0,9 UV-I 273 W/m 8,9 C 12,4 C 19,3 km/h (3 Bft) 95,12 %
14.07.2017 08:46 15,3 C 23,3 C 65 % 1015,3 hPa 0,0 l/m 11,9 km/h (2 Bft) O-NO 60 0 min 0,000 mm 0,9 UV-I 272 W/m 8,8 C 12,7 C 20,9 km/h (4 Bft) 100,00 %
14.07.2017 08:48 15,3 C 23,3 C 65 % 1015,3 hPa 0,0 l/m 10,8 km/h (2 Bft) O-NO 77 0 min 0,000 mm 0,9 UV-I 263 W/m 8,8 C 13,1 C 17,7 km/h (3 Bft) 100,00 %
14.07.2017 08:50 15,4 C 23,3 C 63 % 1015,4 hPa 0,0 l/m 15,7 km/h (3 Bft) O-NO 59 0 min 0,000 mm 0,9 UV-I 259 W/m 8,4 C 11,5 C 20,9 km/h (4 Bft) 100,00 %
14.07.2017 08:52 15,3 C 23,3 C 63 % 1015,3 hPa 0,0 l/m 18,7 km/h (3 Bft) O-NO 67 0 min 0,000 mm 0,9 UV-I 259 W/m 8,3 C 10,5 C 22,5 km/h (4 Bft) 98,21 %
14.07.2017 08:54 15,3 C 23,3 C 63 % 1015,3 hPa 0,0 l/m 15,3 km/h (3 Bft) O-NO 64 0 min 0,000 mm 0,9 UV-I 250 W/m 8,3 C 11,5 C 19,3 km/h (3 Bft) 100,00 %
14.07.2017 08:56 15,3 C 23,3 C 63 % 1015,5 hPa 0,0 l/m 15,8 km/h (3 Bft) O 98 0 min 0,000 mm 0,9 UV-I 242 W/m 8,3 C 11,3 C 22,5 km/h (4 Bft) 96,15 %
14.07.2017 08:58 15,3 C 23,3 C 63 % 1015,5 hPa 0,0 l/m 12,9 km/h (3 Bft) O-NO 76 0 min 0,000 mm 0,9 UV-I 231 W/m 8,3 C 12,3 C 19,3 km/h (3 Bft) 100,00 %
14.07.2017 09:00 15,3 C 23,3 C 64 % 1015,4 hPa 0,0 l/m 14,3 km/h (3 Bft) O 90 0 min 0,203 mm 0,8 UV-I 223 W/m 8,5 C 11,8 C 19,3 km/h (3 Bft) 98,00 %
14.07.2017 09:02 15,4 C 23,3 C 64 % 1015,5 hPa 0,0 l/m 11,8 km/h (2 Bft) O 80 0 min 0,000 mm 0,9 UV-I 221 W/m 8,6 C 12,8 C 17,7 km/h (3 Bft) 97,56 %
14.07.2017 09:04 15,4 C 23,3 C 64 % 1015,4 hPa 0,0 l/m 9,6 km/h (2 Bft) O-SO 123 0 min 0,000 mm 0,9 UV-I 224 W/m 8,6 C 13,7 C 14,5 km/h (3 Bft) 92,11 %
14.07.2017 09:06 15,5 C 23,3 C 64 % 1015,4 hPa 0,0 l/m 10,1 km/h (2 Bft) O-NO 57 0 min 0,000 mm 0,9 UV-I 229 W/m 8,7 C 13,6 C 14,5 km/h (3 Bft) 96,77 %
14.07.2017 09:08 15,6 C 23,3 C 64 % 1015,5 hPa 0,0 l/m 10,3 km/h (2 Bft) O-NO 70 0 min 0,000 mm 0,9 UV-I 230 W/m 8,8 C 13,7 C 14,5 km/h (3 Bft) 100,00 %
14.07.2017 09:10 15,6 C 23,3 C 64 % 1015,5 hPa 0,0 l/m 8,1 km/h (2 Bft) O-NO 71 0 min 0,000 mm 0,9 UV-I 227 W/m 8,8 C 14,7 C 14,5 km/h (3 Bft) 100,00 %
14.07.2017 09:12 15,6 C 23,3 C 63 % 1015,5 hPa 0,0 l/m 9,3 km/h (2 Bft) NO 43 0 min 0,000 mm 0,9 UV-I 220 W/m 8,6 C 14,1 C 16,1 km/h (3 Bft) 100,00 %
14.07.2017 09:14 15,6 C 23,3 C 63 % 1015,4 hPa 0,0 l/m 10,6 km/h (2 Bft) O-NO 63 0 min 0,000 mm 0,9 UV-I 224 W/m 8,6 C 13,5 C 16,1 km/h (3 Bft) 97,87 %
14.07.2017 09:16 15,7 C 23,3 C 63 % 1015,4 hPa 0,0 l/m 10,9 km/h (2 Bft) NO 44 0 min 0,000 mm 1,0 UV-I 236 W/m 8,7 C 13,5 C 16,1 km/h (3 Bft) 98,00 %
14.07.2017 09:18 15,7 C 23,3 C 63 % 1015,3 hPa 0,0 l/m 11,2 km/h (2 Bft) O-NO 66 0 min 0,000 mm 1,0 UV-I 242 W/m 8,7 C 13,4 C 16,1 km/h (3 Bft) 100,00 %
14.07.2017 09:20 15,7 C 23,3 C 62 % 1015,4 hPa 0,0 l/m 11,0 km/h (2 Bft) O-NO 61 0 min 0,000 mm 1,0 UV-I 238 W/m 8,4 C 13,5 C 16,1 km/h (3 Bft) 96,23 %
14.07.2017 09:22 15,7 C 23,3 C 63 % 1015,4 hPa 0,0 l/m 8,5 km/h (2 Bft) O 93 0 min 0,000 mm 1,0 UV-I 229 W/m 8,7 C 14,6 C 16,1 km/h (3 Bft) 97,87 %
14.07.2017 09:24 15,7 C 23,3 C 63 % 1015,3 hPa 0,0 l/m 4,9 km/h (1 Bft) O-NO 73 0 min 0,000 mm 0,9 UV-I 219 W/m 8,7 C 15,7 C 8,0 km/h (2 Bft) 97,56 %
14.07.2017 09:26 15,7 C 23,3 C 64 % 1015,3 hPa 0,0 l/m 5,6 km/h (1 Bft) O-NO 74 0 min 0,000 mm 1,0 UV-I 223 W/m 8,9 C 15,7 C 11,3 km/h (2 Bft) 100,00 %
14.07.2017 09:28 15,8 C 23,3 C 65 % 1015,3 hPa 0,0 l/m 6,7 km/h (2 Bft) O 87 0 min 0,000 mm 1,0 UV-I 235 W/m 9,2 C 15,6 C 11,3 km/h (2 Bft) 98,00 %
14.07.2017 09:30 15,9 C 23,3 C 64 % 1015,2 hPa 0,0 l/m 6,1 km/h (2 Bft) O 96 0 min 0,000 mm 1,2 UV-I 250 W/m 9,1 C 15,9 C 11,3 km/h (2 Bft) 100,00 %
14.07.2017 09:32 15,9 C 23,3 C 63 % 1015,2 hPa 0,0 l/m 7,9 km/h (2 Bft) O-NO 78 0 min 0,000 mm 1,3 UV-I 269 W/m 8,9 C 15,1 C 14,5 km/h (3 Bft) 97,87 %
14.07.2017 09:34 15,9 C 23,3 C 62 % 1015,2 hPa 0,0 l/m 13,5 km/h (3 Bft) O-NO 63 0 min 0,000 mm 1,4 UV-I 288 W/m 8,6 C 12,8 C 16,1 km/h (3 Bft) 98,00 %
14.07.2017 09:36 15,9 C 23,3 C 61 % 1015,2 hPa 0,0 l/m 10,3 km/h (2 Bft) O-NO 61 0 min 0,000 mm 1,4 UV-I 300 W/m 8,4 C 14,0 C 14,5 km/h (3 Bft) 100,00 %
14.07.2017 09:38 16,0 C 23,3 C 61 % 1015,2 hPa 0,0 l/m 9,3 km/h (2 Bft) O-NO 68 0 min 0,000 mm 1,5 UV-I 311 W/m 8,5 C 14,5 C 14,5 km/h (3 Bft) 100,00 %
14.07.2017 09:40 16,2 C 23,3 C 62 % 1015,2 hPa 0,0 l/m 10,4 km/h (2 Bft) O-SO 109 0 min 0,000 mm 1,6 UV-I 328 W/m 8,9 C 14,3 C 14,5 km/h (3 Bft) 100,00 %
14.07.2017 09:42 16,2 C 23,3 C 61 % 1015,2 hPa 0,0 l/m 8,0 km/h (2 Bft) O-NO 70 0 min 0,000 mm 1,6 UV-I 353 W/m 8,7 C 15,4 C 14,5 km/h (3 Bft) 100,00 %
14.07.2017 09:44 16,3 C 23,3 C 61 % 1015,1 hPa 0,0 l/m 9,1 km/h (2 Bft) O-NO 68 0 min 0,000 mm 1,6 UV-I 341 W/m 8,8 C 14,9 C 14,5 km/h (3 Bft) 100,00 %
14.07.2017 09:46 16,4 C 23,3 C 60 % 1015,1 hPa 0,0 l/m 7,6 km/h (2 Bft) O 88 0 min 0,000 mm 1,5 UV-I 323 W/m 8,6 C 15,8 C 12,9 km/h (3 Bft) 100,00 %
14.07.2017 09:48 16,5 C 23,3 C 60 % 1015,2 hPa 0,0 l/m 6,6 km/h (2 Bft) NO 43 0 min 0,000 mm 1,5 UV-I 297 W/m 8,7 C 16,4 C 14,5 km/h (3 Bft) 97,87 %
14.07.2017 09:50 16,5 C 23,3 C 60 % 1015,1 hPa 0,0 l/m 8,3 km/h (2 Bft) O-NO 66 0 min 0,000 mm 1,5 UV-I 287 W/m 8,7 C 15,5 C 12,9 km/h (3 Bft) 98,21 %
14.07.2017 09:52 16,5 C 23,3 C 60 % 1015,2 hPa 0,0 l/m 9,0 km/h (2 Bft) O-NO 78 0 min 0,000 mm 1,6 UV-I 297 W/m 8,7 C 15,2 C 16,1 km/h (3 Bft) 95,12 %
14.07.2017 09:54 16,5 C 23,3 C 62 % 1015,1 hPa 0,0 l/m 10,9 km/h (2 Bft) O-NO 66 0 min 0,000 mm 1,7 UV-I 309 W/m 9,2 C 14,4 C 16,1 km/h (3 Bft) 100,00 %
14.07.2017 09:56 16,6 C 23,3 C 61 % 1015,1 hPa 0,0 l/m 8,9 km/h (2 Bft) O-NO 76 0 min 0,000 mm 1,8 UV-I 305 W/m 9,0 C 15,4 C 14,5 km/h (3 Bft) 95,45 %
14.07.2017 09:58 16,6 C 23,3 C 60 % 1015,1 hPa 0,0 l/m 11,3 km/h (2 Bft) O-NO 68 2 min 0,000 mm 2,4 UV-I 399 W/m 8,8 C 14,4 C 17,7 km/h (3 Bft) 100,00 %
14.07.2017 10:00 16,6 C 23,3 C 60 % 1015,0 hPa 0,0 l/m 11,7 km/h (2 Bft) NO 46 2 min 0,203 mm 2,5 UV-I 399 W/m 8,8 C 14,2 C 16,1 km/h (3 Bft) 97,37 %
14.07.2017 10:02 16,8 C 23,3 C 61 % 1015,1 hPa 0,0 l/m 9,0 km/h (2 Bft) O-SO 106 2 min 0,000 mm 2,9 UV-I 399 W/m 9,2 C 15,5 C 14,5 km/h (3 Bft) 97,37 %
14.07.2017 10:04 17,2 C 23,3 C 63 % 1015,0 hPa 0,0 l/m 9,0 km/h (2 Bft) O-NO 73 2 min 0,000 mm 3,2 UV-I 959 W/m 10,1 C 16,0 C 14,5 km/h (3 Bft) 98,21 %
14.07.2017 10:06 17,6 C 23,3 C 59 % 1014,9 hPa 0,0 l/m 10,8 km/h (2 Bft) O-NO 74 2 min 0,000 mm 3,5 UV-I 967 W/m 9,5 C 15,7 C 19,3 km/h (3 Bft) 97,73 %
14.07.2017 10:08 17,9 C 23,3 C 58 % 1014,9 hPa 0,0 l/m 14,7 km/h (3 Bft) O 79 2 min 0,000 mm 3,3 UV-I 870 W/m 9,5 C 14,8 C 22,5 km/h (4 Bft) 98,21 %
14.07.2017 10:10 17,8 C 23,3 C 56 % 1014,9 hPa 0,0 l/m 13,7 km/h (3 Bft) O-NO 63 2 min 0,000 mm 2,6 UV-I 856 W/m 8,9 C 15,0 C 17,7 km/h (3 Bft) 97,56 %
14.07.2017 10:12 17,7 C 23,3 C 57 % 1014,8 hPa 0,0 l/m 12,5 km/h (3 Bft) NO 56 2 min 0,000 mm 3,1 UV-I 628 W/m 9,1 C 15,2 C 16,1 km/h (3 Bft) 94,00 %
14.07.2017 10:14 17,8 C 23,3 C 57 % 1014,9 hPa 0,0 l/m 14,5 km/h (3 Bft) O-NO 76 2 min 0,000 mm 3,2 UV-I 691 W/m 9,2 C 14,7 C 17,7 km/h (3 Bft) 98,00 %
14.07.2017 10:16 17,7 C 23,3 C 56 % 1014,9 hPa 0,0 l/m 13,8 km/h (3 Bft) O-NO 73 2 min 0,000 mm 2,6 UV-I 666 W/m 8,8 C 14,8 C 17,7 km/h (3 Bft) 97,87 %
14.07.2017 10:18 17,7 C 23,3 C 58 % 1014,9 hPa 0,0 l/m 8,4 km/h (2 Bft) O-NO 57 2 min 0,000 mm 2,7 UV-I 490 W/m 9,3 C 16,8 C 12,9 km/h (3 Bft) 95,24 %
14.07.2017 10:20 17,8 C 23,3 C 58 % 1015,0 hPa 0,0 l/m 8,7 km/h (2 Bft) O-NO 65 2 min 0,000 mm 2,8 UV-I 531 W/m 9,4 C 16,7 C 14,5 km/h (3 Bft) 98,00 %
14.07.2017 10:22 17,8 C 23,3 C 55 % 1015,0 hPa 0,0 l/m 10,8 km/h (2 Bft) O-NO 69 2 min 0,000 mm 3,2 UV-I 561 W/m 8,6 C 15,9 C 19,3 km/h (3 Bft) 96,00 %
14.07.2017 10:24 17,8 C 23,3 C 56 % 1015,0 hPa 0,0 l/m 9,6 km/h (2 Bft) O 82 2 min 0,000 mm 2,5 UV-I 516 W/m 8,9 C 16,4 C 17,7 km/h (3 Bft) 95,12 %
14.07.2017 10:26 17,8 C 23,3 C 56 % 1015,1 hPa 0,0 l/m 10,9 km/h (2 Bft) O-NO 63 2 min 0,000 mm 2,4 UV-I 470 W/m 8,9 C 15,9 C 16,1 km/h (3 Bft) 95,12 %
14.07.2017 10:28 17,7 C 23,3 C 55 % 1015,1 hPa 0,0 l/m 5,8 km/h (2 Bft) NO 51 2 min 0,000 mm 2,3 UV-I 456 W/m 8,5 C 17,7 C 11,3 km/h (2 Bft) 92,73 %
14.07.2017 10:30 17,7 C 23,3 C 57 % 1015,1 hPa 0,0 l/m 7,0 km/h (2 Bft) O 99 2 min 0,000 mm 2,2 UV-I 420 W/m 9,1 C 17,4 C 12,9 km/h (3 Bft) 97,56 %
14.07.2017 10:32 17,9 C 23,3 C 59 % 1015,1 hPa 0,0 l/m 3,9 km/h (1 Bft) O 96 0 min 0,000 mm 2,2 UV-I 404 W/m 9,8 C 17,9 C 11,3 km/h (2 Bft) 96,00 %
14.07.2017 10:34 17,8 C 23,3 C 55 % 1015,1 hPa 0,0 l/m 2,6 km/h (1 Bft) O 79 2 min 0,000 mm 2,2 UV-I 422 W/m 8,6 C 17,8 C 9,7 km/h (2 Bft) 97,56 %
14.07.2017 10:36 17,8 C 23,3 C 55 % 1015,0 hPa 0,0 l/m 7,9 km/h (2 Bft) O 92 0 min 0,000 mm 2,2 UV-I 405 W/m 8,6 C 17,1 C 12,9 km/h (3 Bft) 96,23 %
14.07.2017 10:38 17,8 C 23,3 C 57 % 1015,0 hPa 0,0 l/m 4,2 km/h (1 Bft) NO 44 0 min 0,000 mm 2,3 UV-I 414 W/m 9,2 C 17,8 C 11,3 km/h (2 Bft) 98,00 %
14.07.2017 10:40 18,0 C 23,3 C 56 % 1015,0 hPa 0,0 l/m 8,0 km/h (2 Bft) O-NO 61 2 min 0,000 mm 2,3 UV-I 427 W/m 9,1 C 17,3 C 12,9 km/h (3 Bft) 91,67 %
14.07.2017 10:42 18,2 C 23,3 C 55 % 1015,0 hPa 0,0 l/m 9,1 km/h (2 Bft) O-NO 78 2 min 0,000 mm 2,3 UV-I 421 W/m 9,0 C 17,0 C 12,9 km/h (3 Bft) 98,44 %
14.07.2017 10:44 18,1 C 23,3 C 55 % 1014,9 hPa 0,0 l/m 7,7 km/h (2 Bft) SO 139 0 min 0,000 mm 2,3 UV-I 410 W/m 8,9 C 17,5 C 12,9 km/h (3 Bft) 100,00 %
14.07.2017 10:46 18,2 C 23,3 C 55 % 1015,0 hPa 0,0 l/m 3,9 km/h (1 Bft) S-SO 161 0 min 0,000 mm 2,3 UV-I 414 W/m 9,0 C 18,2 C 9,7 km/h (2 Bft) 100,00 %
14.07.2017 10:48 18,2 C 23,3 C 56 % 1015,1 hPa 0,0 l/m 7,2 km/h (2 Bft) O 79 0 min 0,000 mm 2,2 UV-I 402 W/m 9,3 C 17,8 C 14,5 km/h (3 Bft) 96,00 %
14.07.2017 10:50 18,3 C 23,3 C 56 % 1015,0 hPa 0,0 l/m 7,6 km/h (2 Bft) N-NO 17 0 min 0,000 mm 2,0 UV-I 356 W/m 9,4 C 17,7 C 11,3 km/h (2 Bft) 100,00 %
14.07.2017 10:52 18,3 C 23,3 C 57 % 1015,1 hPa 0,0 l/m 2,3 km/h (1 Bft) NO 42 0 min 0,000 mm 1,7 UV-I 308 W/m 9,6 C 18,3 C 6,4 km/h (2 Bft) 98,08 %
14.07.2017 10:54 18,2 C 23,3 C 55 % 1015,0 hPa 0,0 l/m 6,7 km/h (2 Bft) NO 49 0 min 0,000 mm 1,5 UV-I 274 W/m 9,0 C 18,1 C 9,7 km/h (2 Bft) 96,00 %
14.07.2017 10:56 18,1 C 23,3 C 56 % 1014,9 hPa 0,0 l/m 7,5 km/h (2 Bft) O-NO 72 0 min 0,000 mm 1,5 UV-I 261 W/m 9,2 C 17,6 C 9,7 km/h (2 Bft) 97,44 %
14.07.2017 10:58 18,0 C 23,3 C 55 % 1014,9 hPa 0,0 l/m 7,3 km/h (2 Bft) O-NO 72 0 min 0,000 mm 1,6 UV-I 265 W/m 8,8 C 17,6 C 11,3 km/h (2 Bft) 96,43 %
14.07.2017 11:00 17,9 C 23,3 C 55 % 1014,9 hPa 0,0 l/m 6,9 km/h (2 Bft) O-NO 65 0 min 0,000 mm 1,7 UV-I 275 W/m 8,7 C 17,7 C 11,3 km/h (2 Bft) 93,62 %
14.07.2017 11:02 17,9 C 23,3 C 56 % 1014,9 hPa 0,0 l/m 6,8 km/h (2 Bft) O-SO 103 0 min 0,330 mm 1,7 UV-I 278 W/m 9,0 C 17,7 C 9,7 km/h (2 Bft) 95,12 %
14.07.2017 11:04 17,9 C 23,3 C 56 % 1015,1 hPa 0,0 l/m 5,6 km/h (1 Bft) O-SO 123 0 min 0,000 mm 1,5 UV-I 243 W/m 9,0 C 17,9 C 8,0 km/h (2 Bft) 94,74 %
14.07.2017 11:06 17,9 C 23,3 C 56 % 1015,0 hPa 0,0 l/m 6,2 km/h (2 Bft) NO 43 0 min 0,000 mm 1,3 UV-I 206 W/m 9,0 C 17,9 C 9,7 km/h (2 Bft) 94,00 %
14.07.2017 11:08 17,9 C 23,3 C 55 % 1015,1 hPa 0,0 l/m 6,3 km/h (2 Bft) O 84 0 min 0,000 mm 1,2 UV-I 201 W/m 8,7 C 17,9 C 11,3 km/h (2 Bft) 93,22 %
14.07.2017 11:10 17,9 C 23,3 C 55 % 1015,0 hPa 0,0 l/m 4,2 km/h (1 Bft) O-NO 63 0 min 0,000 mm 1,2 UV-I 202 W/m 8,7 C 17,9 C 8,0 km/h (2 Bft) 97,37 %
14.07.2017 11:12 17,8 C 23,3 C 55 % 1014,9 hPa 0,0 l/m 5,7 km/h (1 Bft) O-NO 59 0 min 0,000 mm 1,3 UV-I 217 W/m 8,6 C 17,8 C 9,7 km/h (2 Bft) 95,74 %
14.07.2017 11:14 17,8 C 23,3 C 55 % 1014,9 hPa 0,0 l/m 3,3 km/h (1 Bft) O-NO 60 0 min 0,000 mm 1,3 UV-I 216 W/m 8,6 C 17,8 C 6,4 km/h (2 Bft) 91,49 %
14.07.2017 11:16 17,9 C 23,3 C 57 % 1014,9 hPa 0,0 l/m 4,8 km/h (1 Bft) NO 47 0 min 0,000 mm 1,3 UV-I 209 W/m 9,3 C 17,9 C 8,0 km/h (2 Bft) 98,21 %
14.07.2017 11:18 17,9 C 23,3 C 58 % 1014,9 hPa 0,0 l/m 7,1 km/h (2 Bft) NO 49 0 min 0,000 mm 1,3 UV-I 206 W/m 9,5 C 17,6 C 9,7 km/h (2 Bft) 94,74 %
14.07.2017 11:20 17,9 C 23,3 C 55 % 1014,9 hPa 0,0 l/m 5,1 km/h (1 Bft) N-NO 16 0 min 0,000 mm 1,3 UV-I 215 W/m 8,7 C 17,9 C 8,0 km/h (2 Bft) 92,00 %
14.07.2017 11:22 18,1 C 23,3 C 57 % 1014,9 hPa 0,0 l/m 3,4 km/h (1 Bft) N-NO 24 0 min 0,000 mm 1,4 UV-I 236 W/m 9,4 C 18,1 C 8,0 km/h (2 Bft) 95,74 %
14.07.2017 11:24 18,0 C 23,3 C 57 % 1014,9 hPa 0,0 l/m 2,7 km/h (1 Bft) N 355 0 min 0,000 mm 1,6 UV-I 257 W/m 9,4 C 18,0 C 6,4 km/h (2 Bft) 96,00 %
14.07.2017 11:26 18,0 C 23,3 C 56 % 1014,9 hPa 0,0 l/m 2,4 km/h (1 Bft) N-NO 16 0 min 0,000 mm 1,7 UV-I 270 W/m 9,1 C 18,0 C 6,4 km/h (2 Bft) 97,87 %
14.07.2017 11:28 18,1 C 23,3 C 57 % 1015,0 hPa 0,0 l/m 1,7 km/h (1 Bft) N-NW 344 0 min 0,000 mm 1,5 UV-I 244 W/m 9,4 C 18,1 C 6,4 km/h (2 Bft) 93,18 %
14.07.2017 11:30 18,1 C 23,3 C 57 % 1015,1 hPa 0,0 l/m 0,8 km/h (0 Bft) N-NW 331 0 min 0,000 mm 1,1 UV-I 186 W/m 9,4 C 18,1 C 3,2 km/h (1 Bft) 92,00 %
14.07.2017 11:32 18,1 C 23,3 C 56 % 1015,1 hPa 0,0 l/m 0,7 km/h (0 Bft) N 350 0 min 0,000 mm 0,9 UV-I 148 W/m 9,2 C 18,1 C 1,6 km/h (1 Bft) 97,22 %
14.07.2017 11:34 17,9 C 23,3 C 56 % 1015,1 hPa 0,0 l/m 1,7 km/h (1 Bft) N 9 0 min 0,000 mm 0,9 UV-I 146 W/m 9,0 C 17,9 C 3,2 km/h (1 Bft) 92,86 %
14.07.2017 11:36 17,8 C 23,3 C 55 % 1015,1 hPa 0,0 l/m 0,5 km/h (0 Bft) N 355 0 min 0,000 mm 1,0 UV-I 156 W/m 8,6 C 17,8 C 1,6 km/h (1 Bft) 96,00 %
14.07.2017 11:38 17,8 C 23,3 C 57 % 1015,1 hPa 0,0 l/m 0,9 km/h (0 Bft) N 355 0 min 0,000 mm 1,0 UV-I 167 W/m 9,2 C 17,8 C 3,2 km/h (1 Bft) 91,43 %
14.07.2017 11:40 17,8 C 23,3 C 57 % 1015,1 hPa 0,0 l/m 0,5 km/h (0 Bft) N 355 0 min 0,000 mm 1,1 UV-I 177 W/m 9,2 C 17,8 C 3,2 km/h (1 Bft) 94,34 %
14.07.2017 11:42 17,8 C 23,3 C 56 % 1015,1 hPa 0,0 l/m 2,1 km/h (1 Bft) N 355 0 min 0,000 mm 1,1 UV-I 187 W/m 8,9 C 17,8 C 3,2 km/h (1 Bft) 94,34 %
14.07.2017 11:44 17,8 C 23,3 C 57 % 1015,1 hPa 0,0 l/m 2,7 km/h (1 Bft) N 5 0 min 0,000 mm 1,3 UV-I 205 W/m 9,2 C 17,8 C 4,8 km/h (1 Bft) 100,00 %
14.07.2017 11:46 17,8 C 23,3 C 58 % 1015,1 hPa 0,0 l/m 1,0 km/h (0 Bft) N 10 0 min 0,000 mm 1,4 UV-I 223 W/m 9,4 C 17,8 C 3,2 km/h (1 Bft) 94,34 %
14.07.2017 11:48 17,8 C 23,3 C 59 % 1015,3 hPa 0,0 l/m 0,7 km/h (0 Bft) N-NW 336 0 min 0,000 mm 1,5 UV-I 231 W/m 9,7 C 17,8 C 3,2 km/h (1 Bft) 92,11 %
14.07.2017 11:50 17,7 C 23,3 C 59 % 1015,4 hPa 0,0 l/m 1,3 km/h (1 Bft) N-NW 336 0 min 0,000 mm 1,4 UV-I 224 W/m 9,6 C 17,7 C 3,2 km/h (1 Bft) 98,00 %
14.07.2017 11:52 17,7 C 23,3 C 62 % 1015,4 hPa 0,0 l/m 2,1 km/h (1 Bft) W-NW 298 0 min 0,000 mm 1,6 UV-I 241 W/m 10,3 C 17,7 C 4,8 km/h (1 Bft) 94,34 %
14.07.2017 11:54 17,7 C 23,3 C 67 % 1015,5 hPa 0,0 l/m 2,4 km/h (1 Bft) W-NW 297 0 min 0,000 mm 1,9 UV-I 291 W/m 11,5 C 17,7 C 4,8 km/h (1 Bft) 100,00 %
14.07.2017 11:56 17,7 C 23,3 C 63 % 1015,4 hPa 0,0 l/m 3,0 km/h (1 Bft) SW 232 0 min 0,000 mm 2,0 UV-I 307 W/m 10,6 C 17,7 C 6,4 km/h (2 Bft) 96,00 %
14.07.2017 11:58 17,7 C 23,3 C 65 % 1015,4 hPa 0,0 l/m 3,8 km/h (1 Bft) W 271 0 min 0,000 mm 1,8 UV-I 269 W/m 11,0 C 17,7 C 6,4 km/h (2 Bft) 96,00 %
14.07.2017 12:00 17,7 C 23,3 C 65 % 1015,4 hPa 0,0 l/m 5,0 km/h (1 Bft) W-SW 254 0 min 0,000 mm 1,7 UV-I 253 W/m 11,0 C 17,7 C 6,4 km/h (2 Bft) 97,37 %
14.07.2017 12:02 17,6 C 23,3 C 62 % 1015,4 hPa 0,0 l/m 4,5 km/h (1 Bft) W 261 0 min 0,153 mm 1,6 UV-I 244 W/m 10,2 C 17,6 C 6,4 km/h (2 Bft) 95,74 %
14.07.2017 12:04 17,5 C 23,3 C 61 % 1015,4 hPa 0,0 l/m 4,3 km/h (1 Bft) W 261 0 min 0,000 mm 1,4 UV-I 224 W/m 9,9 C 17,5 C 6,4 km/h (2 Bft) 100,00 %
14.07.2017 12:06 17,4 C 23,3 C 60 % 1015,4 hPa 0,0 l/m 1,0 km/h (0 Bft) W 261 0 min 0,000 mm 1,4 UV-I 211 W/m 9,6 C 17,4 C 3,2 km/h (1 Bft) 98,00 %
14.07.2017 12:08 17,4 C 23,3 C 65 % 1015,3 hPa 0,0 l/m 1,2 km/h (1 Bft) W 261 0 min 0,000 mm 1,3 UV-I 210 W/m 10,8 C 17,4 C 4,8 km/h (1 Bft) 98,00 %
14.07.2017 12:10 17,5 C 23,3 C 62 % 1015,3 hPa 0,0 l/m 2,9 km/h (1 Bft) W 260 0 min 0,000 mm 1,3 UV-I 209 W/m 10,1 C 17,5 C 4,8 km/h (1 Bft) 91,49 %
14.07.2017 12:12 17,6 C 23,3 C 64 % 1015,3 hPa 0,0 l/m 1,1 km/h (1 Bft) W 260 0 min 0,000 mm 1,4 UV-I 229 W/m 10,7 C 17,6 C 3,2 km/h (1 Bft) 95,74 %
14.07.2017 12:14 17,7 C 23,3 C 65 % 1015,3 hPa 0,0 l/m 3,6 km/h (1 Bft) W 260 0 min 0,000 mm 1,7 UV-I 268 W/m 11,0 C 17,7 C 4,8 km/h (1 Bft) 92,00 %
14.07.2017 12:16 17,7 C 23,3 C 62 % 1015,4 hPa 0,0 l/m 3,7 km/h (1 Bft) W 261 0 min 0,000 mm 1,9 UV-I 292 W/m 10,3 C 17,7 C 6,4 km/h (2 Bft) 93,75 %
14.07.2017 12:18 17,7 C 23,3 C 62 % 1015,5 hPa 0,0 l/m 3,7 km/h (1 Bft) W-SW 254 0 min 0,000 mm 1,9 UV-I 294 W/m 10,3 C 17,7 C 6,4 km/h (2 Bft) 94,74 %
14.07.2017 12:20 17,8 C 23,3 C 62 % 1015,5 hPa 0,0 l/m 4,8 km/h (1 Bft) W-SW 243 0 min 0,000 mm 1,9 UV-I 278 W/m 10,4 C 17,8 C 6,4 km/h (2 Bft) 94,00 %
14.07.2017 12:22 17,7 C 23,3 C 62 % 1015,5 hPa 0,0 l/m 4,6 km/h (1 Bft) W-SW 248 0 min 0,000 mm 1,6 UV-I 248 W/m 10,3 C 17,7 C 6,4 km/h (2 Bft) 94,00 %
14.07.2017 12:24 17,8 C 23,3 C 61 % 1015,6 hPa 0,0 l/m 5,6 km/h (1 Bft) W 259 0 min 0,000 mm 1,5 UV-I 233 W/m 10,2 C 17,8 C 9,7 km/h (2 Bft) 97,87 %
14.07.2017 12:26 17,7 C 23,3 C 61 % 1015,5 hPa 0,0 l/m 4,2 km/h (1 Bft) W 265 0 min 0,000 mm 1,3 UV-I 215 W/m 10,1 C 17,7 C 6,4 km/h (2 Bft) 95,12 %
14.07.2017 12:28 17,7 C 23,3 C 61 % 1015,5 hPa 0,0 l/m 6,6 km/h (2 Bft) W-SW 245 0 min 0,000 mm 1,2 UV-I 202 W/m 10,1 C 17,6 C 11,3 km/h (2 Bft) 92,00 %
14.07.2017 12:30 17,7 C 23,3 C 61 % 1015,6 hPa 0,0 l/m 5,7 km/h (1 Bft) W-SW 250 0 min 0,000 mm 1,2 UV-I 198 W/m 10,1 C 17,7 C 8,0 km/h (2 Bft) 93,75 %
14.07.2017 12:32 17,6 C 23,3 C 61 % 1015,6 hPa 0,0 l/m 5,9 km/h (2 Bft) SW 232 0 min 0,000 mm 1,3 UV-I 202 W/m 10,0 C 17,6 C 8,0 km/h (2 Bft) 92,11 %
14.07.2017 12:34 17,6 C 23,3 C 61 % 1015,6 hPa 0,0 l/m 4,3 km/h (1 Bft) SW 233 0 min 0,000 mm 1,2 UV-I 191 W/m 10,0 C 17,6 C 9,7 km/h (2 Bft) 88,68 %
14.07.2017 12:36 17,6 C 23,3 C 61 % 1015,6 hPa 0,0 l/m 4,7 km/h (1 Bft) W-SW 248 0 min 0,000 mm 1,1 UV-I 178 W/m 10,0 C 17,6 C 6,4 km/h (2 Bft) 94,00 %
14.07.2017 12:38 17,6 C 23,3 C 63 % 1015,6 hPa 0,0 l/m 3,3 km/h (1 Bft) W-SW 248 0 min 0,000 mm 1,0 UV-I 167 W/m 10,5 C 17,6 C 6,4 km/h (2 Bft) 94,00 %
14.07.2017 12:40 17,5 C 23,3 C 64 % 1015,6 hPa 0,0 l/m 4,7 km/h (1 Bft) W-NW 287 0 min 0,000 mm 1,0 UV-I 156 W/m 10,6 C 17,5 C 9,7 km/h (2 Bft) 97,37 %
14.07.2017 12:42 17,5 C 23,3 C 66 % 1015,6 hPa 0,0 l/m 4,4 km/h (1 Bft) W-SW 238 0 min 0,000 mm 1,1 UV-I 164 W/m 11,1 C 17,5 C 6,4 km/h (2 Bft) 94,34 %
14.07.2017 12:44 17,5 C 23,3 C 64 % 1015,6 hPa 0,0 l/m 4,9 km/h (1 Bft) W-SW 244 0 min 0,000 mm 1,3 UV-I 189 W/m 10,6 C 17,5 C 6,4 km/h (2 Bft) 97,87 %
14.07.2017 12:46 17,6 C 23,3 C 66 % 1015,6 hPa 0,0 l/m 4,0 km/h (1 Bft) SW 234 0 min 0,000 mm 1,5 UV-I 221 W/m 11,2 C 17,6 C 6,4 km/h (2 Bft) 100,00 %
14.07.2017 12:48 17,7 C 23,3 C 64 % 1015,6 hPa 0,0 l/m 5,3 km/h (1 Bft) W-SW 243 0 min 0,000 mm 1,7 UV-I 234 W/m 10,8 C 17,7 C 8,0 km/h (2 Bft) 96,23 %
14.07.2017 12:50 17,7 C 23,3 C 63 % 1015,6 hPa 0,0 l/m 4,5 km/h (1 Bft) W-SW 240 0 min 0,000 mm 1,8 UV-I 235 W/m 10,6 C 17,7 C 6,4 km/h (2 Bft) 95,74 %
14.07.2017 12:52 17,8 C 23,3 C 64 % 1015,5 hPa 0,0 l/m 3,8 km/h (1 Bft) W-SW 238 0 min 0,000 mm 2,1 UV-I 273 W/m 10,9 C 17,8 C 6,4 km/h (2 Bft) 97,44 %
14.07.2017 12:54 17,9 C 23,3 C 64 % 1015,6 hPa 0,0 l/m 4,3 km/h (1 Bft) W-SW 238 0 min 0,000 mm 2,6 UV-I 351 W/m 11,0 C 17,9 C 6,4 km/h (2 Bft) 100,00 %
14.07.2017 12:56 18,1 C 23,3 C 63 % 1015,6 hPa 0,0 l/m 5,1 km/h (1 Bft) SW 234 0 min 0,000 mm 3,0 UV-I 452 W/m 10,9 C 18,1 C 6,4 km/h (2 Bft) 97,56 %
14.07.2017 12:58 18,3 C 23,3 C 62 % 1015,6 hPa 0,0 l/m 6,8 km/h (2 Bft) SW 229 0 min 0,000 mm 3,0 UV-I 437 W/m 10,9 C 18,1 C 11,3 km/h (2 Bft) 95,74 %
14.07.2017 13:00 18,4 C 23,3 C 62 % 1015,5 hPa 0,0 l/m 7,6 km/h (2 Bft) W-SW 238 0 min 0,152 mm 3,1 UV-I 430 W/m 11,0 C 17,8 C 12,9 km/h (3 Bft) 98,21 %
14.07.2017 13:02 18,4 C 23,3 C 63 % 1015,5 hPa 0,0 l/m 5,7 km/h (1 Bft) W-SW 238 0 min 0,000 mm 3,2 UV-I 424 W/m 11,2 C 18,4 C 11,3 km/h (2 Bft) 100,00 %
14.07.2017 13:04 18,6 C 23,3 C 63 % 1015,5 hPa 0,0 l/m 6,6 km/h (2 Bft) S-SW 208 2 min 0,000 mm 3,7 UV-I 509 W/m 11,4 C 18,5 C 9,7 km/h (2 Bft) 100,00 %
14.07.2017 13:06 18,6 C 23,3 C 63 % 1015,4 hPa 0,0 l/m 10,9 km/h (2 Bft) S-SW 198 2 min 0,000 mm 4,2 UV-I 607 W/m 11,4 C 16,8 C 16,1 km/h (3 Bft) 98,11 %
14.07.2017 13:08 18,6 C 23,3 C 64 % 1015,4 hPa 0,0 l/m 11,8 km/h (2 Bft) W-SW 248 2 min 0,000 mm 3,9 UV-I 561 W/m 11,7 C 16,5 C 16,1 km/h (3 Bft) 98,00 %
14.07.2017 13:10 18,6 C 23,3 C 65 % 1015,4 hPa 0,0 l/m 10,2 km/h (2 Bft) W 278 2 min 0,000 mm 4,1 UV-I 587 W/m 11,9 C 17,0 C 17,7 km/h (3 Bft) 92,11 %
14.07.2017 13:12 18,7 C 23,3 C 65 % 1015,4 hPa 0,0 l/m 7,5 km/h (2 Bft) W-SW 237 2 min 0,000 mm 4,0 UV-I 582 W/m 12,0 C 18,2 C 14,5 km/h (3 Bft) 95,12 %
14.07.2017 13:14 18,7 C 23,3 C 65 % 1015,5 hPa 0,0 l/m 9,6 km/h (2 Bft) W 263 0 min 0,000 mm 3,2 UV-I 478 W/m 12,0 C 17,4 C 16,1 km/h (3 Bft) 100,00 %
14.07.2017 13:16 18,7 C 23,3 C 65 % 1015,5 hPa 0,0 l/m 8,5 km/h (2 Bft) W-SW 238 0 min 0,000 mm 2,9 UV-I 413 W/m 12,0 C 17,8 C 16,1 km/h (3 Bft) 100,00 %
14.07.2017 13:18 18,6 C 23,3 C 63 % 1015,5 hPa 0,0 l/m 10,0 km/h (2 Bft) SW 219 0 min 0,000 mm 3,1 UV-I 446 W/m 11,4 C 17,1 C 14,5 km/h (3 Bft) 97,62 %
14.07.2017 13:20 18,6 C 23,3 C 65 % 1015,5 hPa 0,0 l/m 5,8 km/h (2 Bft) S-SW 209 0 min 0,000 mm 3,1 UV-I 444 W/m 11,9 C 18,6 C 11,3 km/h (2 Bft) 94,29 %
14.07.2017 13:22 18,7 C 23,3 C 64 % 1015,5 hPa 0,0 l/m 8,2 km/h (2 Bft) S-SW 211 0 min 0,000 mm 2,9 UV-I 409 W/m 11,7 C 17,9 C 14,5 km/h (3 Bft) 100,00 %
14.07.2017 13:24 18,6 C 23,3 C 63 % 1015,4 hPa 0,0 l/m 8,6 km/h (2 Bft) SW 229 0 min 0,000 mm 2,8 UV-I 390 W/m 11,4 C 17,6 C 16,1 km/h (3 Bft) 98,00 %
14.07.2017 13:26 18,6 C 23,3 C 64 % 1015,5 hPa 0,0 l/m 10,3 km/h (2 Bft) S-SW 194 0 min 0,000 mm 3,1 UV-I 442 W/m 11,7 C 17,0 C 16,1 km/h (3 Bft) 97,73 %
14.07.2017 13:28 18,7 C 23,3 C 63 % 1015,5 hPa 0,0 l/m 12,4 km/h (3 Bft) SW 217 2 min 0,000 mm 3,6 UV-I 494 W/m 11,5 C 16,4 C 17,7 km/h (3 Bft) 100,00 %
14.07.2017 13:30 18,7 C 23,3 C 62 % 1015,5 hPa 0,0 l/m 15,2 km/h (3 Bft) SW 229 2 min 0,000 mm 3,6 UV-I 491 W/m 11,3 C 15,6 C 20,9 km/h (4 Bft) 98,18 %
14.07.2017 13:32 18,7 C 23,3 C 62 % 1015,5 hPa 0,0 l/m 15,4 km/h (3 Bft) SW 221 0 min 0,000 mm 3,1 UV-I 460 W/m 11,3 C 15,6 C 20,9 km/h (4 Bft) 97,44 %
14.07.2017 13:34 18,7 C 23,3 C 62 % 1015,4 hPa 0,0 l/m 12,4 km/h (3 Bft) SW 224 0 min 0,000 mm 3,1 UV-I 440 W/m 11,3 C 16,4 C 19,3 km/h (3 Bft) 98,00 %
14.07.2017 13:36 18,6 C 23,3 C 62 % 1015,4 hPa 0,0 l/m 10,7 km/h (2 Bft) S-SW 198 0 min 0,000 mm 3,6 UV-I 424 W/m 11,2 C 16,8 C 14,5 km/h (3 Bft) 100,00 %
14.07.2017 13:38 18,7 C 23,3 C 63 % 1015,3 hPa 0,0 l/m 8,0 km/h (2 Bft) S-SW 196 0 min 0,000 mm 4,0 UV-I 465 W/m 11,5 C 18,0 C 14,5 km/h (3 Bft) 100,00 %
14.07.2017 13:40 18,9 C 23,3 C 63 % 1015,3 hPa 0,0 l/m 8,6 km/h (2 Bft) W-SW 253 2 min 0,000 mm 4,8 UV-I 751 W/m 11,7 C 18,0 C 12,9 km/h (3 Bft) 100,00 %
14.07.2017 13:42 19,3 C 23,3 C 63 % 1015,3 hPa 0,0 l/m 11,2 km/h (2 Bft) S-SW 205 2 min 0,000 mm 5,3 UV-I 772 W/m 12,1 C 17,5 C 17,7 km/h (3 Bft) 100,00 %
14.07.2017 13:44 19,5 C 23,3 C 60 % 1015,3 hPa 0,0 l/m 8,1 km/h (2 Bft) S-SW 212 2 min 0,000 mm 4,6 UV-I 772 W/m 11,5 C 18,8 C 20,9 km/h (4 Bft) 96,23 %
14.07.2017 13:46 19,4 C 23,3 C 60 % 1015,1 hPa 0,0 l/m 10,4 km/h (2 Bft) W-SW 255 2 min 0,000 mm 4,8 UV-I 772 W/m 11,4 C 17,8 C 19,3 km/h (3 Bft) 100,00 %
14.07.2017 13:48 19,4 C 23,3 C 61 % 1015,0 hPa 0,0 l/m 13,7 km/h (3 Bft) W-SW 251 2 min 0,000 mm 5,7 UV-I 840 W/m 11,7 C 16,9 C 19,3 km/h (3 Bft) 98,21 %
14.07.2017 13:50 19,4 C 23,3 C 61 % 1015,1 hPa 0,0 l/m 11,4 km/h (2 Bft) S-SW 211 2 min 0,000 mm 5,2 UV-I 1053 W/m 11,7 C 17,5 C 17,7 km/h (3 Bft) 100,00 %
14.07.2017 13:52 19,4 C 23,3 C 61 % 1015,1 hPa 0,0 l/m 10,8 km/h (2 Bft) W 262 2 min 0,000 mm 3,5 UV-I 720 W/m 11,7 C 17,7 C 16,1 km/h (3 Bft) 98,21 %
14.07.2017 13:54 19,4 C 23,3 C 62 % 1015,2 hPa 0,0 l/m 14,5 km/h (3 Bft) S-SW 196 2 min 0,000 mm 3,3 UV-I 495 W/m 11,9 C 16,6 C 20,9 km/h (4 Bft) 97,87 %
14.07.2017 13:56 19,3 C 23,3 C 63 % 1015,1 hPa 0,0 l/m 8,9 km/h (2 Bft) SW 234 2 min 0,000 mm 3,6 UV-I 555 W/m 12,1 C 18,3 C 14,5 km/h (3 Bft) 94,74 %
14.07.2017 13:58 19,4 C 23,3 C 64 % 1015,1 hPa 0,0 l/m 8,8 km/h (2 Bft) SW 221 2 min 0,000 mm 3,7 UV-I 582 W/m 12,4 C 18,4 C 16,1 km/h (3 Bft) 98,00 %
14.07.2017 14:00 19,5 C 23,3 C 63 % 1015,1 hPa 0,0 l/m 4,6 km/h (1 Bft) W-SW 253 2 min 0,381 mm 4,0 UV-I 609 W/m 12,3 C 19,5 C 9,7 km/h (2 Bft) 100,00 %
14.07.2017 14:02 19,8 C 23,3 C 64 % 1015,0 hPa 0,0 l/m 8,0 km/h (2 Bft) SW 217 2 min 0,000 mm 4,2 UV-I 629 W/m 12,8 C 19,1 C 14,5 km/h (3 Bft) 97,56 %
14.07.2017 14:04 20,2 C 23,3 C 62 % 1015,0 hPa 0,0 l/m 8,9 km/h (2 Bft) W 259 2 min 0,000 mm 5,1 UV-I 739 W/m 12,7 C 19,2 C 14,5 km/h (3 Bft) 97,73 %
14.07.2017 14:06 20,3 C 23,3 C 61 % 1015,0 hPa 0,0 l/m 11,9 km/h (2 Bft) W-SW 258 2 min 0,000 mm 4,0 UV-I 652 W/m 12,5 C 18,4 C 17,7 km/h (3 Bft) 96,00 %
14.07.2017 14:08 20,2 C 23,3 C 60 % 1015,1 hPa 0,0 l/m 8,3 km/h (2 Bft) W 263 2 min 0,000 mm 4,0 UV-I 604 W/m 12,2 C 19,4 C 16,1 km/h (3 Bft) 95,74 %
14.07.2017 14:10 20,1 C 23,3 C 62 % 1015,0 hPa 0,0 l/m 8,6 km/h (2 Bft) W 267 2 min 0,000 mm 3,6 UV-I 537 W/m 12,6 C 19,2 C 16,1 km/h (3 Bft) 97,92 %
14.07.2017 14:12 20,1 C 23,3 C 62 % 1015,0 hPa 0,0 l/m 11,3 km/h (2 Bft) SW 228 2 min 0,000 mm 3,6 UV-I 514 W/m 12,6 C 18,3 C 16,1 km/h (3 Bft) 92,11 %
14.07.2017 14:14 19,9 C 23,3 C 60 % 1014,8 hPa 0,0 l/m 9,4 km/h (2 Bft) W-SW 239 2 min 0,000 mm 4,0 UV-I 559 W/m 11,9 C 18,7 C 19,3 km/h (3 Bft) 97,56 %
14.07.2017 14:16 19,9 C 23,3 C 62 % 1014,7 hPa 0,0 l/m 4,4 km/h (1 Bft) SW 217 2 min 0,000 mm 4,2 UV-I 635 W/m 12,4 C 19,9 C 9,7 km/h (2 Bft) 94,34 %
14.07.2017 14:18 20,2 C 23,3 C 61 % 1014,6 hPa 0,0 l/m 6,9 km/h (2 Bft) S-SO 165 2 min 0,000 mm 4,0 UV-I 650 W/m 12,4 C 20,0 C 11,3 km/h (2 Bft) 92,45 %
14.07.2017 14:20 20,2 C 23,3 C 62 % 1014,6 hPa 0,0 l/m 6,9 km/h (2 Bft) S-SW 200 2 min 0,000 mm 4,8 UV-I 504 W/m 12,7 C 20,0 C 12,9 km/h (3 Bft) 96,00 %
14.07.2017 14:22 20,5 C 23,3 C 62 % 1014,6 hPa 0,0 l/m 8,1 km/h (2 Bft) S-SO 153 2 min 0,000 mm 5,5 UV-I 931 W/m 13,0 C 19,8 C 12,9 km/h (3 Bft) 98,00 %
14.07.2017 14:24 20,4 C 23,3 C 64 % 1014,6 hPa 0,0 l/m 3,9 km/h (1 Bft) W-SW 240 2 min 0,000 mm 5,3 UV-I 863 W/m 13,4 C 20,4 C 8,0 km/h (2 Bft) 94,74 %
14.07.2017 14:26 20,4 C 23,3 C 65 % 1014,6 hPa 0,0 l/m 5,8 km/h (2 Bft) SW 234 2 min 0,000 mm 5,2 UV-I 888 W/m 13,6 C 20,4 C 9,7 km/h (2 Bft) 98,11 %
14.07.2017 14:28 20,5 C 23,3 C 60 % 1014,5 hPa 0,0 l/m 2,9 km/h (1 Bft) S-SO 158 2 min 0,000 mm 5,3 UV-I 900 W/m 12,5 C 20,5 C 6,4 km/h (2 Bft) 97,56 %
14.07.2017 14:30 20,6 C 23,3 C 61 % 1014,5 hPa 0,0 l/m 10,5 km/h (2 Bft) W-SW 256 2 min 0,000 mm 5,0 UV-I 898 W/m 12,8 C 19,1 C 19,3 km/h (3 Bft) 94,34 %
14.07.2017 14:32 20,7 C 23,3 C 61 % 1014,6 hPa 0,0 l/m 11,1 km/h (2 Bft) S-SW 196 2 min 0,000 mm 5,1 UV-I 953 W/m 12,9 C 19,1 C 17,7 km/h (3 Bft) 95,45 %
14.07.2017 14:34 20,9 C 23,3 C 61 % 1014,6 hPa 0,0 l/m 5,8 km/h (2 Bft) NW 325 2 min 0,000 mm 5,3 UV-I 1001 W/m 13,1 C 20,9 C 11,3 km/h (2 Bft) 96,00 %
14.07.2017 14:36 21,1 C 23,3 C 60 % 1014,5 hPa 0,0 l/m 6,6 km/h (2 Bft) W 271 2 min 0,000 mm 4,7 UV-I 1028 W/m 13,0 C 21,0 C 12,9 km/h (3 Bft) 100,00 %
14.07.2017 14:38 21,0 C 23,3 C 59 % 1014,5 hPa 0,0 l/m 15,2 km/h (3 Bft) SW 218 0 min 0,000 mm 3,3 UV-I 364 W/m 12,7 C 18,4 C 24,1 km/h (4 Bft) 97,73 %
14.07.2017 14:40 21,0 C 23,3 C 61 % 1014,5 hPa 0,0 l/m 9,8 km/h (2 Bft) S 185 2 min 0,000 mm 4,5 UV-I 518 W/m 13,2 C 19,8 C 16,1 km/h (3 Bft) 98,11 %
14.07.2017 14:42 20,9 C 23,3 C 61 % 1014,5 hPa 0,0 l/m 4,3 km/h (1 Bft) W-SW 242 2 min 0,000 mm 5,1 UV-I 956 W/m 13,1 C 20,9 C 9,7 km/h (2 Bft) 97,87 %
14.07.2017 14:44 21,2 C 23,3 C 61 % 1014,5 hPa 0,0 l/m 9,5 km/h (2 Bft) SW 216 2 min 0,000 mm 5,1 UV-I 948 W/m 13,4 C 20,1 C 20,9 km/h (4 Bft) 100,00 %
14.07.2017 14:46 21,2 C 23,3 C 60 % 1014,5 hPa 0,0 l/m 13,8 km/h (3 Bft) W 267 2 min 0,000 mm 3,3 UV-I 868 W/m 13,1 C 19,0 C 19,3 km/h (3 Bft) 98,28 %
14.07.2017 14:48 20,9 C 23,3 C 60 % 1014,5 hPa 0,0 l/m 8,2 km/h (2 Bft) W 267 0 min 0,000 mm 3,3 UV-I 360 W/m 12,8 C 20,2 C 16,1 km/h (3 Bft) 100,00 %
14.07.2017 14:50 20,6 C 23,3 C 61 % 1014,4 hPa 0,0 l/m 9,1 km/h (2 Bft) S 175 0 min 0,000 mm 2,7 UV-I 366 W/m 12,8 C 19,6 C 14,5 km/h (3 Bft) 94,29 %
14.07.2017 14:52 20,7 C 23,3 C 63 % 1014,4 hPa 0,0 l/m 11,1 km/h (2 Bft) SW 230 0 min 0,000 mm 3,5 UV-I 422 W/m 13,4 C 19,1 C 16,1 km/h (3 Bft) 100,00 %
14.07.2017 14:54 20,7 C 23,3 C 62 % 1014,4 hPa 0,0 l/m 12,9 km/h (3 Bft) S-SW 202 2 min 0,000 mm 3,1 UV-I 485 W/m 13,2 C 18,6 C 20,9 km/h (4 Bft) 97,56 %
14.07.2017 14:56 20,8 C 23,3 C 62 % 1014,4 hPa 0,0 l/m 9,2 km/h (2 Bft) W-SW 244 2 min 0,000 mm 3,0 UV-I 534 W/m 13,2 C 19,8 C 17,7 km/h (3 Bft) 97,56 %
14.07.2017 14:58 20,9 C 23,3 C 62 % 1014,4 hPa 0,0 l/m 5,6 km/h (1 Bft) W-SW 239 2 min 0,000 mm 3,6 UV-I 534 W/m 13,3 C 20,9 C 9,7 km/h (2 Bft) 98,11 %
14.07.2017 15:00 20,8 C 23,9 C 62 % 1014,3 hPa 0,0 l/m 5,3 km/h (1 Bft) W 275 2 min 0,457 mm 3,6 UV-I 640 W/m 13,2 C 20,8 C 9,7 km/h (2 Bft) 100,00 %
14.07.2017 15:02 20,8 C 23,3 C 62 % 1014,3 hPa 0,0 l/m 7,1 km/h (2 Bft) W-SW 250 2 min 0,000 mm 3,3 UV-I 517 W/m 13,2 C 20,5 C 14,5 km/h (3 Bft) 97,56 %
14.07.2017 15:04 20,9 C 23,3 C 61 % 1014,3 hPa 0,0 l/m 7,9 km/h (2 Bft) W-SW 256 2 min 0,000 mm 2,9 UV-I 450 W/m 13,1 C 20,3 C 16,1 km/h (3 Bft) 100,00 %
14.07.2017 15:06 20,8 C 23,9 C 61 % 1014,2 hPa 0,0 l/m 5,7 km/h (1 Bft) SW 235 2 min 0,000 mm 4,0 UV-I 461 W/m 13,0 C 20,8 C 9,7 km/h (2 Bft) 97,37 %
14.07.2017 15:08 20,9 C 23,9 C 61 % 1014,3 hPa 0,0 l/m 4,1 km/h (1 Bft) SW 225 2 min 0,000 mm 4,3 UV-I 461 W/m 13,1 C 20,9 C 14,5 km/h (3 Bft) 100,00 %
14.07.2017 15:10 21,1 C 23,9 C 59 % 1014,2 hPa 0,0 l/m 8,4 km/h (2 Bft) W-NW 290 2 min 0,000 mm 3,2 UV-I 442 W/m 12,8 C 20,4 C 17,7 km/h (3 Bft) 96,23 %
14.07.2017 15:12 21,0 C 23,9 C 60 % 1014,1 hPa 0,0 l/m 4,9 km/h (1 Bft) NW 308 0 min 0,000 mm 2,7 UV-I 330 W/m 12,9 C 21,0 C 11,3 km/h (2 Bft) 98,00 %
14.07.2017 15:14 20,9 C 23,9 C 60 % 1014,1 hPa 0,0 l/m 3,5 km/h (1 Bft) W-NW 288 2 min 0,000 mm 3,6 UV-I 654 W/m 12,8 C 20,9 C 8,0 km/h (2 Bft) 97,87 %
14.07.2017 15:16 21,0 C 23,9 C 59 % 1014,1 hPa 0,0 l/m 5,4 km/h (1 Bft) W-NW 286 2 min 0,000 mm 4,2 UV-I 916 W/m 12,7 C 21,0 C 9,7 km/h (2 Bft) 94,74 %
14.07.2017 15:18 21,3 C 23,9 C 60 % 1014,0 hPa 0,0 l/m 4,6 km/h (1 Bft) W 281 2 min 0,000 mm 3,2 UV-I 916 W/m 13,2 C 21,3 C 11,3 km/h (2 Bft) 96,43 %
14.07.2017 15:20 21,3 C 23,9 C 60 % 1014,0 hPa 0,0 l/m 4,2 km/h (1 Bft) W 274 2 min 0,000 mm 3,6 UV-I 916 W/m 13,2 C 21,3 C 11,3 km/h (2 Bft) 97,37 %
14.07.2017 15:22 21,4 C 23,9 C 58 % 1013,9 hPa 0,0 l/m 4,5 km/h (1 Bft) NW 313 2 min 0,000 mm 4,2 UV-I 964 W/m 12,8 C 21,4 C 12,9 km/h (3 Bft) 96,00 %
14.07.2017 15:24 21,5 C 23,9 C 58 % 1013,9 hPa 0,0 l/m 3,6 km/h (1 Bft) N 5 2 min 0,000 mm 4,2 UV-I 936 W/m 12,9 C 21,5 C 8,0 km/h (2 Bft) 93,33 %
14.07.2017 15:26 21,6 C 23,9 C 58 % 1013,9 hPa 0,0 l/m 5,0 km/h (1 Bft) W 267 2 min 0,000 mm 2,4 UV-I 803 W/m 13,0 C 21,6 C 12,9 km/h (3 Bft) 95,92 %
14.07.2017 15:28 21,6 C 23,9 C 57 % 1013,9 hPa 0,0 l/m 5,4 km/h (1 Bft) W 268 0 min 0,000 mm 3,3 UV-I 287 W/m 12,7 C 21,6 C 12,9 km/h (3 Bft) 96,00 %
14.07.2017 15:30 21,6 C 23,9 C 58 % 1013,7 hPa 0,0 l/m 4,5 km/h (1 Bft) NW 313 0 min 0,000 mm 3,7 UV-I 287 W/m 13,0 C 21,6 C 8,0 km/h (2 Bft) 95,24 %
14.07.2017 15:32 21,7 C 23,9 C 56 % 1013,7 hPa 0,0 l/m 4,5 km/h (1 Bft) W-SW 249 0 min 0,000 mm 2,5 UV-I 294 W/m 12,5 C 21,7 C 9,7 km/h (2 Bft) 96,30 %
14.07.2017 15:34 21,8 C 23,9 C 58 % 1013,6 hPa 0,0 l/m 3,9 km/h (1 Bft) NW 323 0 min 0,000 mm 3,6 UV-I 323 W/m 13,2 C 21,8 C 8,0 km/h (2 Bft) 97,87 %
14.07.2017 15:36 22,0 C 23,9 C 57 % 1013,6 hPa 0,0 l/m 3,7 km/h (1 Bft) N-NW 347 0 min 0,000 mm 3,5 UV-I 323 W/m 13,1 C 22,0 C 6,4 km/h (2 Bft) 95,12 %
14.07.2017 15:38 21,9 C 23,9 C 54 % 1013,5 hPa 0,0 l/m 7,3 km/h (2 Bft) W-NW 284 0 min 0,000 mm 3,0 UV-I 315 W/m 12,2 C 21,6 C 12,9 km/h (3 Bft) 95,12 %
14.07.2017 15:40 21,9 C 23,9 C 56 % 1013,6 hPa 0,0 l/m 4,4 km/h (1 Bft) NW 319 2 min 0,000 mm 4,0 UV-I 751 W/m 12,7 C 21,9 C 9,7 km/h (2 Bft) 96,23 %
14.07.2017 15:42 21,9 C 23,9 C 55 % 1013,5 hPa 0,0 l/m 4,3 km/h (1 Bft) N-NW 333 2 min 0,000 mm 3,2 UV-I 831 W/m 12,4 C 21,9 C 8,0 km/h (2 Bft) 97,73 %
14.07.2017 15:44 21,8 C 23,9 C 55 % 1013,5 hPa 0,0 l/m 4,7 km/h (1 Bft) W-NW 283 2 min 0,000 mm 2,7 UV-I 831 W/m 12,4 C 21,8 C 9,7 km/h (2 Bft) 96,23 %
14.07.2017 15:46 21,6 C 23,9 C 57 % 1013,5 hPa 0,0 l/m 5,4 km/h (1 Bft) SW 231 0 min 0,000 mm 2,2 UV-I 295 W/m 12,7 C 21,6 C 11,3 km/h (2 Bft) 97,56 %
14.07.2017 15:48 21,4 C 23,9 C 56 % 1013,4 hPa 0,0 l/m 3,7 km/h (1 Bft) W 263 2 min 0,000 mm 3,3 UV-I 447 W/m 12,3 C 21,4 C 8,0 km/h (2 Bft) 89,36 %
14.07.2017 15:50 21,4 C 23,9 C 56 % 1013,4 hPa 0,0 l/m 4,6 km/h (1 Bft) W-SW 254 2 min 0,000 mm 3,6 UV-I 786 W/m 12,3 C 21,4 C 9,7 km/h (2 Bft) 94,74 %
14.07.2017 15:52 21,6 C 23,9 C 56 % 1013,3 hPa 0,0 l/m 4,4 km/h (1 Bft) SW 235 2 min 0,000 mm 3,3 UV-I 650 W/m 12,4 C 21,6 C 6,4 km/h (2 Bft) 93,55 %
14.07.2017 15:54 21,7 C 23,9 C 55 % 1013,3 hPa 0,0 l/m 1,9 km/h (1 Bft) N-NO 33 2 min 0,000 mm 3,1 UV-I 559 W/m 12,3 C 21,7 C 6,4 km/h (2 Bft) 91,43 %
14.07.2017 15:56 21,7 C 23,9 C 55 % 1013,3 hPa 0,0 l/m 1,9 km/h (1 Bft) O-SO 111 0 min 0,000 mm 2,2 UV-I 382 W/m 12,3 C 21,7 C 6,4 km/h (2 Bft) 92,86 %
14.07.2017 15:58 21,8 C 23,9 C 55 % 1013,3 hPa 0,0 l/m 4,8 km/h (1 Bft) W 280 0 min 0,000 mm 2,2 UV-I 315 W/m 12,4 C 21,8 C 11,3 km/h (2 Bft) 90,91 %
14.07.2017 16:00 22,0 C 23,9 C 54 % 1013,4 hPa 0,0 l/m 3,6 km/h (1 Bft) NW 313 0 min 0,381 mm 3,0 UV-I 365 W/m 12,3 C 22,0 C 8,0 km/h (2 Bft) 94,34 %
14.07.2017 16:02 21,9 C 23,9 C 53 % 1013,3 hPa 0,0 l/m 5,8 km/h (2 Bft) S-SW 195 0 min 0,000 mm 2,2 UV-I 393 W/m 11,9 C 21,9 C 12,9 km/h (3 Bft) 89,36 %
14.07.2017 16:04 21,9 C 23,9 C 53 % 1013,3 hPa 0,0 l/m 5,7 km/h (1 Bft) W-NW 302 0 min 0,000 mm 2,1 UV-I 370 W/m 11,9 C 21,9 C 11,3 km/h (2 Bft) 92,31 %
14.07.2017 16:06 21,8 C 23,9 C 54 % 1013,3 hPa 0,0 l/m 5,2 km/h (1 Bft) W-SW 253 0 min 0,000 mm 2,0 UV-I 353 W/m 12,1 C 21,8 C 9,7 km/h (2 Bft) 94,55 %
14.07.2017 16:08 21,9 C 23,9 C 54 % 1013,4 hPa 0,0 l/m 3,8 km/h (1 Bft) N-NW 338 0 min 0,000 mm 1,8 UV-I 318 W/m 12,2 C 21,9 C 6,4 km/h (2 Bft) 92,86 %
14.07.2017 16:10 21,9 C 23,9 C 54 % 1013,3 hPa 0,0 l/m 3,8 km/h (1 Bft) NW 317 0 min 0,000 mm 1,6 UV-I 301 W/m 12,2 C 21,9 C 8,0 km/h (2 Bft) 95,74 %
14.07.2017 16:12 21,8 C 23,9 C 53 % 1013,3 hPa 0,0 l/m 3,8 km/h (1 Bft) NW 310 0 min 0,000 mm 1,5 UV-I 278 W/m 11,8 C 21,8 C 12,9 km/h (3 Bft) 92,68 %
14.07.2017 16:14 21,6 C 23,9 C 52 % 1013,3 hPa 0,0 l/m 4,7 km/h (1 Bft) N-NW 347 0 min 0,000 mm 1,4 UV-I 264 W/m 11,3 C 21,6 C 12,9 km/h (3 Bft) 92,45 %
14.07.2017 16:16 21,5 C 23,9 C 54 % 1013,3 hPa 0,0 l/m 3,7 km/h (1 Bft) W 277 0 min 0,000 mm 1,3 UV-I 228 W/m 11,8 C 21,5 C 12,9 km/h (3 Bft) 93,62 %
14.07.2017 16:18 21,4 C 23,9 C 55 % 1013,3 hPa 0,0 l/m 7,1 km/h (2 Bft) W 280 0 min 0,000 mm 1,2 UV-I 216 W/m 12,0 C 21,1 C 16,1 km/h (3 Bft) 95,74 %
14.07.2017 16:20 21,3 C 23,9 C 55 % 1013,3 hPa 0,0 l/m 3,3 km/h (1 Bft) W-SW 252 0 min 0,000 mm 1,3 UV-I 236 W/m 11,9 C 21,3 C 6,4 km/h (2 Bft) 89,36 %
14.07.2017 16:22 21,3 C 23,9 C 54 % 1013,3 hPa 0,0 l/m 5,2 km/h (1 Bft) W-SW 257 0 min 0,000 mm 1,3 UV-I 267 W/m 11,6 C 21,3 C 11,3 km/h (2 Bft) 96,00 %
14.07.2017 16:24 21,3 C 23,9 C 55 % 1013,3 hPa 0,0 l/m 1,8 km/h (1 Bft) W-SW 257 0 min 0,000 mm 1,4 UV-I 293 W/m 11,9 C 21,3 C 4,8 km/h (1 Bft) 93,62 %
14.07.2017 16:26 21,4 C 23,9 C 56 % 1013,3 hPa 0,0 l/m 2,5 km/h (1 Bft) NW 311 0 min 0,000 mm 1,6 UV-I 340 W/m 12,3 C 21,4 C 4,8 km/h (1 Bft) 93,18 %
14.07.2017 16:28 21,5 C 23,9 C 54 % 1013,3 hPa 0,0 l/m 2,9 km/h (1 Bft) N-NW 337 0 min 0,000 mm 1,6 UV-I 344 W/m 11,8 C 21,5 C 8,0 km/h (2 Bft) 97,73 %
14.07.2017 16:30 21,5 C 23,9 C 53 % 1013,3 hPa 0,0 l/m 4,3 km/h (1 Bft) NW 311 0 min 0,000 mm 1,5 UV-I 315 W/m 11,5 C 21,5 C 9,7 km/h (2 Bft) 100,00 %
14.07.2017 16:32 21,4 C 23,9 C 53 % 1013,2 hPa 0,0 l/m 5,7 km/h (1 Bft) W-NW 298 0 min 0,000 mm 1,3 UV-I 273 W/m 11,4 C 21,4 C 11,3 km/h (2 Bft) 94,74 %
14.07.2017 16:34 21,4 C 23,9 C 54 % 1013,3 hPa 0,0 l/m 3,4 km/h (1 Bft) NW 325 0 min 0,000 mm 1,3 UV-I 249 W/m 11,7 C 21,4 C 6,4 km/h (2 Bft) 100,00 %
14.07.2017 16:36 21,4 C 23,9 C 54 % 1013,2 hPa 0,0 l/m 2,7 km/h (1 Bft) NW 315 0 min 0,000 mm 1,1 UV-I 218 W/m 11,7 C 21,4 C 6,4 km/h (2 Bft) 98,11 %
14.07.2017 16:38 21,4 C 23,9 C 54 % 1013,3 hPa 0,0 l/m 3,1 km/h (1 Bft) NW 323 0 min 0,000 mm 0,9 UV-I 185 W/m 11,7 C 21,4 C 11,3 km/h (2 Bft) 97,56 %
14.07.2017 16:40 21,3 C 23,9 C 54 % 1013,3 hPa 0,0 l/m 5,6 km/h (1 Bft) N 11 0 min 0,000 mm 0,8 UV-I 151 W/m 11,6 C 21,3 C 11,3 km/h (2 Bft) 100,00 %
14.07.2017 16:42 21,2 C 23,9 C 54 % 1013,3 hPa 0,0 l/m 3,1 km/h (1 Bft) NW 312 0 min 0,000 mm 0,6 UV-I 131 W/m 11,5 C 21,2 C 8,0 km/h (2 Bft) 97,62 %
14.07.2017 16:44 21,1 C 23,9 C 55 % 1013,3 hPa 0,0 l/m 2,5 km/h (1 Bft) NW 311 0 min 0,000 mm 0,5 UV-I 112 W/m 11,7 C 21,1 C 4,8 km/h (1 Bft) 100,00 %
14.07.2017 16:46 21,0 C 23,9 C 55 % 1013,5 hPa 0,0 l/m 2,3 km/h (1 Bft) NW 312 0 min 0,000 mm 0,1 UV-I 80 W/m 11,6 C 21,0 C 4,8 km/h (1 Bft) 97,87 %
14.07.2017 16:48 20,9 C 23,9 C 56 % 1013,6 hPa 0,0 l/m 2,0 km/h (1 Bft) N 355 0 min 0,000 mm 0,0 UV-I 61 W/m 11,8 C 20,9 C 6,4 km/h (2 Bft) 100,00 %
14.07.2017 16:50 20,8 C 23,9 C 55 % 1013,6 hPa 0,0 l/m 5,1 km/h (1 Bft) SW 232 0 min 0,000 mm 0,0 UV-I 57 W/m 11,4 C 20,8 C 11,3 km/h (2 Bft) 100,00 %
14.07.2017 16:52 20,8 C 23,9 C 56 % 1013,7 hPa 0,0 l/m 5,5 km/h (1 Bft) W-SW 244 0 min 0,000 mm 0,0 UV-I 50 W/m 11,7 C 20,8 C 11,3 km/h (2 Bft) 100,00 %
14.07.2017 16:54 20,7 C 23,9 C 55 % 1013,8 hPa 0,0 l/m 5,5 km/h (1 Bft) W-SW 252 0 min 0,000 mm 0,0 UV-I 42 W/m 11,3 C 20,7 C 8,0 km/h (2 Bft) 97,37 %
14.07.2017 16:56 20,7 C 23,9 C 56 % 1013,9 hPa 0,0 l/m 6,2 km/h (2 Bft) W 263 0 min 0,000 mm 0,0 UV-I 40 W/m 11,6 C 20,7 C 9,7 km/h (2 Bft) 100,00 %
14.07.2017 16:58 20,6 C 23,9 C 56 % 1014,0 hPa 0,0 l/m 7,9 km/h (2 Bft) W-NW 294 0 min 0,000 mm 0,0 UV-I 36 W/m 11,5 C 20,0 C 14,5 km/h (3 Bft) 97,56 %
14.07.2017 17:00 20,6 C 23,9 C 56 % 1014,0 hPa 0,0 l/m 6,1 km/h (2 Bft) W-SW 255 0 min 0,000 mm 0,0 UV-I 33 W/m 11,5 C 20,6 C 9,7 km/h (2 Bft) 96,00 %
14.07.2017 17:02 20,5 C 23,9 C 56 % 1014,0 hPa 0,0 l/m 10,6 km/h (2 Bft) W-SW 255 0 min 0,153 mm 0,0 UV-I 38 W/m 11,4 C 19,0 C 17,7 km/h (3 Bft) 97,56 %
14.07.2017 17:04 20,4 C 23,9 C 56 % 1014,1 hPa 0,0 l/m 7,2 km/h (2 Bft) W 263 0 min 0,000 mm 0,0 UV-I 40 W/m 11,3 C 20,1 C 14,5 km/h (3 Bft) 98,11 %
14.07.2017 17:06 20,4 C 23,9 C 56 % 1014,0 hPa 0,0 l/m 9,6 km/h (2 Bft) W 263 0 min 0,000 mm 0,0 UV-I 42 W/m 11,3 C 19,2 C 14,5 km/h (3 Bft) 100,00 %
14.07.2017 17:08 20,3 C 23,9 C 56 % 1014,0 hPa 0,0 l/m 11,3 km/h (2 Bft) W 263 0 min 0,000 mm 0,0 UV-I 49 W/m 11,2 C 18,6 C 25,7 km/h (4 Bft) 98,11 %
14.07.2017 17:10 20,3 C 23,9 C 56 % 1013,9 hPa 0,0 l/m 8,4 km/h (2 Bft) W-SW 248 0 min 0,000 mm 0,0 UV-I 66 W/m 11,2 C 19,5 C 17,7 km/h (3 Bft) 100,00 %
14.07.2017 17:12 20,3 C 23,9 C 56 % 1014,0 hPa 0,0 l/m 9,3 km/h (2 Bft) W-SW 246 0 min 0,000 mm 0,0 UV-I 83 W/m 11,2 C 19,2 C 14,5 km/h (3 Bft) 98,11 %
14.07.2017 17:14 20,2 C 23,9 C 56 % 1014,0 hPa 0,0 l/m 6,8 km/h (2 Bft) W-SW 254 0 min 0,000 mm 0,0 UV-I 97 W/m 11,1 C 20,0 C 11,3 km/h (2 Bft) 97,37 %
14.07.2017 17:16 20,2 C 23,9 C 56 % 1014,0 hPa 0,0 l/m 5,1 km/h (1 Bft) W 272 0 min 0,000 mm 0,0 UV-I 89 W/m 11,1 C 20,2 C 9,7 km/h (2 Bft) 100,00 %
14.07.2017 17:18 20,2 C 23,9 C 57 % 1014,1 hPa 0,0 l/m 5,7 km/h (1 Bft) W-SW 247 0 min 0,000 mm 0,0 UV-I 68 W/m 11,4 C 20,2 C 12,9 km/h (3 Bft) 97,87 %
14.07.2017 17:20 20,2 C 23,9 C 53 % 1014,0 hPa 0,0 l/m 8,7 km/h (2 Bft) W 265 0 min 0,000 mm 0,0 UV-I 54 W/m 10,3 C 19,3 C 24,1 km/h (4 Bft) 100,00 %
14.07.2017 17:22 20,2 C 23,9 C 51 % 1014,1 hPa 0,0 l/m 7,1 km/h (2 Bft) W-NW 292 0 min 0,000 mm 0,0 UV-I 45 W/m 9,7 C 19,9 C 17,7 km/h (3 Bft) 98,00 %
14.07.2017 17:24 20,1 C 23,9 C 50 % 1014,1 hPa 0,0 l/m 9,0 km/h (2 Bft) W-SW 250 0 min 0,000 mm 0,0 UV-I 39 W/m 9,3 C 19,1 C 14,5 km/h (3 Bft) 97,44 %
14.07.2017 17:26 20,0 C 23,9 C 50 % 1014,1 hPa 0,0 l/m 7,6 km/h (2 Bft) W-NW 282 0 min 0,000 mm 0,0 UV-I 38 W/m 9,3 C 19,5 C 12,9 km/h (3 Bft) 100,00 %
14.07.2017 17:28 19,9 C 23,9 C 48 % 1014,2 hPa 0,0 l/m 7,9 km/h (2 Bft) W-NW 289 0 min 0,000 mm 0,0 UV-I 39 W/m 8,6 C 19,3 C 14,5 km/h (3 Bft) 98,11 %
14.07.2017 17:30 19,8 C 23,9 C 47 % 1014,3 hPa 0,0 l/m 10,8 km/h (2 Bft) W-NW 288 0 min 0,000 mm 0,0 UV-I 42 W/m 8,2 C 18,2 C 16,1 km/h (3 Bft) 100,00 %
14.07.2017 17:32 19,8 C 23,9 C 46 % 1014,2 hPa 0,0 l/m 11,4 km/h (2 Bft) W-SW 253 0 min 0,000 mm 0,0 UV-I 48 W/m 7,8 C 18,0 C 22,5 km/h (4 Bft) 100,00 %
14.07.2017 17:34 19,8 C 23,9 C 46 % 1014,3 hPa 0,0 l/m 5,8 km/h (2 Bft) W 266 0 min 0,000 mm 0,0 UV-I 47 W/m 7,8 C 19,8 C 12,9 km/h (3 Bft) 100,00 %
14.07.2017 17:36 19,8 C 23,9 C 46 % 1014,4 hPa 0,0 l/m 7,6 km/h (2 Bft) W 260 0 min 0,000 mm 0,0 UV-I 54 W/m 7,8 C 19,3 C 14,5 km/h (3 Bft) 96,23 %
14.07.2017 17:38 19,7 C 23,9 C 47 % 1014,4 hPa 0,0 l/m 11,0 km/h (2 Bft) W-SW 252 0 min 0,000 mm 0,0 UV-I 69 W/m 8,1 C 18,0 C 17,7 km/h (3 Bft) 92,68 %
14.07.2017 17:40 19,7 C 23,9 C 49 % 1014,5 hPa 0,0 l/m 15,3 km/h (3 Bft) SW 223 0 min 0,000 mm 0,0 UV-I 70 W/m 8,7 C 16,8 C 22,5 km/h (4 Bft) 97,73 %
14.07.2017 17:42 19,3 C 23,9 C 58 % 1014,5 hPa 0,0 l/m 17,0 km/h (3 Bft) SW 224 0 min 0,000 mm 0,0 UV-I 66 W/m 10,8 C 15,9 C 24,1 km/h (4 Bft) 96,23 %
14.07.2017 17:44 18,7 C 23,9 C 63 % 1014,5 hPa 0,0 l/m 16,0 km/h (3 Bft) SW 216 0 min 0,000 mm 0,0 UV-I 59 W/m 11,5 C 15,4 C 22,5 km/h (4 Bft) 98,00 %
14.07.2017 17:46 18,3 C 23,9 C 66 % 1014,6 hPa 0,0 l/m 20,6 km/h (4 Bft) W-SW 238 0 min 0,000 mm 0,0 UV-I 42 W/m 11,8 C 13,9 C 30,6 km/h (5 Bft) 94,29 %
14.07.2017 17:48 17,8 C 23,9 C 69 % 1014,7 hPa 0,0 l/m 17,6 km/h (3 Bft) W-SW 246 0 min 0,000 mm 0,0 UV-I 31 W/m 12,0 C 13,9 C 29,0 km/h (5 Bft) 98,11 %
14.07.2017 17:50 17,5 C 23,9 C 71 % 1014,8 hPa 0,0 l/m 18,9 km/h (3 Bft) W-SW 245 0 min 0,000 mm 0,0 UV-I 30 W/m 12,2 C 13,2 C 29,0 km/h (5 Bft) 97,56 %
14.07.2017 17:52 17,2 C 23,9 C 73 % 1014,9 hPa 0,0 l/m 19,3 km/h (3 Bft) W-SW 254 0 min 0,000 mm 0,0 UV-I 35 W/m 12,3 C 12,7 C 27,4 km/h (4 Bft) 96,43 %
14.07.2017 17:54 17,0 C 23,9 C 74 % 1014,8 hPa 0,0 l/m 18,9 km/h (3 Bft) S-SW 207 0 min 0,000 mm 0,0 UV-I 44 W/m 12,3 C 12,6 C 30,6 km/h (5 Bft) 97,37 %
14.07.2017 17:56 16,8 C 23,9 C 76 % 1014,9 hPa 0,0 l/m 18,0 km/h (3 Bft) SW 229 0 min 0,000 mm 0,0 UV-I 60 W/m 12,5 C 12,6 C 32,2 km/h (5 Bft) 89,29 %
14.07.2017 17:58 16,6 C 23,9 C 76 % 1014,7 hPa 0,0 l/m 19,2 km/h (3 Bft) SW 214 0 min 0,000 mm 0,0 UV-I 76 W/m 12,3 C 12,0 C 32,2 km/h (5 Bft) 97,87 %
14.07.2017 18:00 16,4 C 23,9 C 77 % 1014,7 hPa 0,0 l/m 18,3 km/h (3 Bft) S-SW 209 0 min 0,101 mm 0,0 UV-I 78 W/m 12,4 C 12,0 C 25,7 km/h (4 Bft) 97,44 %
14.07.2017 18:02 16,2 C 23,9 C 77 % 1014,6 hPa 0,0 l/m 16,1 km/h (3 Bft) W-SW 244 0 min 0,000 mm 0,0 UV-I 70 W/m 12,2 C 12,3 C 25,7 km/h (4 Bft) 98,08 %
14.07.2017 18:04 16,1 C 23,9 C 78 % 1014,5 hPa 0,0 l/m 16,9 km/h (3 Bft) SW 222 0 min 0,000 mm 0,0 UV-I 56 W/m 12,3 C 12,0 C 25,7 km/h (4 Bft) 97,78 %
14.07.2017 18:06 16,1 C 23,3 C 80 % 1014,6 hPa 0,0 l/m 13,8 km/h (3 Bft) S-SO 160 0 min 0,000 mm 0,0 UV-I 53 W/m 12,6 C 12,9 C 20,9 km/h (4 Bft) 95,45 %
14.07.2017 18:08 15,9 C 23,3 C 80 % 1014,5 hPa 0,0 l/m 13,9 km/h (3 Bft) S-SW 196 0 min 0,000 mm 0,0 UV-I 59 W/m 12,5 C 12,6 C 27,4 km/h (4 Bft) 94,34 %
14.07.2017 18:10 15,8 C 23,3 C 81 % 1014,5 hPa 0,0 l/m 16,8 km/h (3 Bft) S-SW 202 0 min 0,000 mm 0,0 UV-I 69 W/m 12,5 C 11,6 C 30,6 km/h (5 Bft) 96,00 %
14.07.2017 18:12 15,7 C 23,3 C 82 % 1014,5 hPa 0,0 l/m 12,8 km/h (3 Bft) SW 221 0 min 0,000 mm 0,0 UV-I 78 W/m 12,6 C 12,8 C 19,3 km/h (3 Bft) 93,62 %
14.07.2017 18:14 15,6 C 23,3 C 82 % 1014,6 hPa 0,0 l/m 16,3 km/h (3 Bft) S-SW 193 0 min 0,000 mm 0,0 UV-I 74 W/m 12,5 C 11,5 C 25,7 km/h (4 Bft) 100,00 %
14.07.2017 18:16 15,6 C 23,3 C 83 % 1014,6 hPa 0,0 l/m 11,9 km/h (2 Bft) S-SW 198 0 min 0,000 mm 0,0 UV-I 70 W/m 12,7 C 13,0 C 17,7 km/h (3 Bft) 97,87 %
14.07.2017 18:18 15,4 C 23,3 C 83 % 1014,6 hPa 0,0 l/m 10,5 km/h (2 Bft) W-SW 244 0 min 0,000 mm 0,0 UV-I 69 W/m 12,5 C 13,3 C 20,9 km/h (4 Bft) 97,73 %
14.07.2017 18:20 15,4 C 23,3 C 84 % 1014,7 hPa 0,0 l/m 15,7 km/h (3 Bft) S-SW 205 0 min 0,000 mm 0,0 UV-I 67 W/m 12,7 C 11,5 C 22,5 km/h (4 Bft) 95,12 %
14.07.2017 18:22 15,4 C 23,3 C 84 % 1014,7 hPa 0,0 l/m 16,0 km/h (3 Bft) W-SW 245 0 min 0,000 mm 0,0 UV-I 67 W/m 12,7 C 11,4 C 24,1 km/h (4 Bft) 94,00 %
14.07.2017 18:24 15,3 C 23,3 C 84 % 1014,8 hPa 0,0 l/m 17,3 km/h (3 Bft) S-SW 199 0 min 0,000 mm 0,0 UV-I 69 W/m 12,6 C 10,9 C 22,5 km/h (4 Bft) 92,68 %
14.07.2017 18:26 15,3 C 23,3 C 84 % 1014,7 hPa 0,0 l/m 14,2 km/h (3 Bft) S-SW 204 0 min 0,000 mm 0,0 UV-I 69 W/m 12,6 C 11,8 C 22,5 km/h (4 Bft) 98,31 %
14.07.2017 18:28 15,3 C 23,3 C 84 % 1014,7 hPa 0,0 l/m 10,6 km/h (2 Bft) S-SO 163 0 min 0,000 mm 0,0 UV-I 63 W/m 12,6 C 13,2 C 19,3 km/h (3 Bft) 100,00 %
14.07.2017 18:30 15,3 C 23,3 C 83 % 1014,7 hPa 0,0 l/m 14,4 km/h (3 Bft) SW 223 0 min 0,000 mm 0,0 UV-I 61 W/m 12,4 C 11,8 C 27,4 km/h (4 Bft) 100,00 %
14.07.2017 18:32 15,4 C 23,3 C 83 % 1014,7 hPa 0,0 l/m 10,1 km/h (2 Bft) S-SW 211 0 min 0,000 mm 0,0 UV-I 74 W/m 12,5 C 13,5 C 20,9 km/h (4 Bft) 97,87 %
14.07.2017 18:34 15,4 C 23,3 C 83 % 1014,6 hPa 0,0 l/m 11,4 km/h (2 Bft) SW 217 0 min 0,000 mm 0,0 UV-I 96 W/m 12,5 C 13,0 C 24,1 km/h (4 Bft) 94,00 %
14.07.2017 18:36 15,4 C 23,3 C 83 % 1014,6 hPa 0,0 l/m 11,4 km/h (2 Bft) S-SW 211 0 min 0,000 mm 0,0 UV-I 102 W/m 12,5 C 13,0 C 20,9 km/h (4 Bft) 97,56 %
14.07.2017 18:38 15,4 C 23,3 C 83 % 1014,6 hPa 0,0 l/m 11,3 km/h (2 Bft) SW 217 0 min 0,000 mm 0,0 UV-I 111 W/m 12,5 C 13,0 C 19,3 km/h (3 Bft) 94,64 %
14.07.2017 18:40 15,5 C 23,3 C 84 % 1014,5 hPa 0,0 l/m 9,8 km/h (2 Bft) S-SW 202 0 min 0,000 mm 0,0 UV-I 131 W/m 12,8 C 13,8 C 16,1 km/h (3 Bft) 95,45 %
14.07.2017 18:42 15,5 C 23,3 C 84 % 1014,5 hPa 0,0 l/m 9,9 km/h (2 Bft) S-SW 199 0 min 0,000 mm 0,0 UV-I 137 W/m 12,8 C 13,7 C 17,7 km/h (3 Bft) 95,74 %
14.07.2017 18:44 15,6 C 23,3 C 84 % 1014,5 hPa 0,0 l/m 8,0 km/h (2 Bft) S-SW 210 0 min 0,000 mm 0,0 UV-I 154 W/m 12,9 C 14,7 C 16,1 km/h (3 Bft) 93,62 %
14.07.2017 18:46 15,7 C 23,3 C 83 % 1014,5 hPa 0,0 l/m 10,9 km/h (2 Bft) S-SW 198 0 min 0,000 mm 0,0 UV-I 152 W/m 12,8 C 13,5 C 19,3 km/h (3 Bft) 97,44 %
14.07.2017 18:48 15,8 C 23,3 C 83 % 1014,5 hPa 0,0 l/m 11,5 km/h (2 Bft) S-SW 197 2 min 0,000 mm 0,0 UV-I 197 W/m 12,9 C 13,4 C 19,3 km/h (3 Bft) 100,00 %
14.07.2017 18:50 15,9 C 23,3 C 83 % 1014,4 hPa 0,0 l/m 9,2 km/h (2 Bft) S-SW 211 2 min 0,000 mm 0,0 UV-I 207 W/m 13,0 C 14,5 C 22,5 km/h (4 Bft) 96,55 %
14.07.2017 18:52 16,1 C 23,3 C 82 % 1014,4 hPa 0,0 l/m 8,1 km/h (2 Bft) S 169 2 min 0,000 mm 0,0 UV-I 232 W/m 13,0 C 15,2 C 14,5 km/h (3 Bft) 97,56 %
14.07.2017 18:54 16,2 C 23,3 C 82 % 1014,4 hPa 0,0 l/m 14,3 km/h (3 Bft) S-SW 208 2 min 0,000 mm 0,0 UV-I 184 W/m 13,1 C 12,9 C 22,5 km/h (4 Bft) 100,00 %
14.07.2017 18:56 16,2 C 23,3 C 82 % 1014,4 hPa 0,0 l/m 11,4 km/h (2 Bft) S-SW 205 2 min 0,000 mm 0,0 UV-I 174 W/m 13,1 C 13,9 C 17,7 km/h (3 Bft) 94,00 %
14.07.2017 18:58 16,4 C 23,3 C 81 % 1014,5 hPa 0,0 l/m 9,7 km/h (2 Bft) S-SW 208 2 min 0,000 mm 0,0 UV-I 240 W/m 13,1 C 14,8 C 16,1 km/h (3 Bft) 96,23 %
14.07.2017 19:00 16,5 C 23,3 C 81 % 1014,4 hPa 0,0 l/m 15,3 km/h (3 Bft) W-SW 243 0 min 0,102 mm 0,0 UV-I 162 W/m 13,2 C 12,9 C 22,5 km/h (4 Bft) 97,87 %
14.07.2017 19:02 16,6 C 23,3 C 81 % 1014,5 hPa 0,0 l/m 12,1 km/h (2 Bft) S-SW 213 2 min 0,000 mm 0,0 UV-I 217 W/m 13,3 C 14,1 C 16,1 km/h (3 Bft) 94,74 %
14.07.2017 19:04 16,8 C 23,3 C 80 % 1014,3 hPa 0,0 l/m 8,2 km/h (2 Bft) W-SW 241 2 min 0,000 mm 0,0 UV-I 270 W/m 13,3 C 15,9 C 12,9 km/h (3 Bft) 92,45 %
14.07.2017 19:06 16,8 C 23,3 C 80 % 1014,3 hPa 0,0 l/m 10,6 km/h (2 Bft) S-SW 198 2 min 0,000 mm 0,0 UV-I 246 W/m 13,3 C 14,9 C 22,5 km/h (4 Bft) 97,56 %
14.07.2017 19:08 16,9 C 23,3 C 79 % 1014,4 hPa 0,0 l/m 13,7 km/h (3 Bft) SW 236 2 min 0,000 mm 0,0 UV-I 254 W/m 13,2 C 13,9 C 22,5 km/h (4 Bft) 96,00 %
14.07.2017 19:10 17,1 C 23,3 C 79 % 1014,4 hPa 0,0 l/m 12,1 km/h (2 Bft) SW 216 2 min 0,000 mm 0,0 UV-I 232 W/m 13,4 C 14,7 C 22,5 km/h (4 Bft) 96,23 %
14.07.2017 19:12 17,1 C 23,3 C 78 % 1014,3 hPa 0,0 l/m 9,9 km/h (2 Bft) S-SW 209 2 min 0,000 mm 0,0 UV-I 150 W/m 13,2 C 15,5 C 19,3 km/h (3 Bft) 93,62 %
14.07.2017 19:14 17,1 C 23,3 C 77 % 1014,3 hPa 0,0 l/m 12,4 km/h (3 Bft) S-SW 207 0 min 0,000 mm 0,0 UV-I 94 W/m 13,0 C 14,6 C 20,9 km/h (4 Bft) 95,45 %
14.07.2017 19:16 16,9 C 23,3 C 77 % 1014,3 hPa 0,0 l/m 15,4 km/h (3 Bft) SW 223 0 min 0,000 mm 0,0 UV-I 75 W/m 12,8 C 13,4 C 22,5 km/h (4 Bft) 95,74 %
14.07.2017 19:18 16,8 C 23,3 C 78 % 1014,2 hPa 0,0 l/m 12,3 km/h (3 Bft) S 188 0 min 0,000 mm 0,0 UV-I 65 W/m 12,9 C 14,2 C 20,9 km/h (4 Bft) 97,56 %
14.07.2017 19:20 16,8 C 23,3 C 78 % 1014,2 hPa 0,0 l/m 10,5 km/h (2 Bft) S-SW 210 0 min 0,000 mm 0,0 UV-I 63 W/m 12,9 C 14,9 C 16,1 km/h (3 Bft) 95,56 %
14.07.2017 19:22 16,7 C 23,3 C 78 % 1014,2 hPa 0,0 l/m 8,4 km/h (2 Bft) S-SO 152 0 min 0,000 mm 0,0 UV-I 63 W/m 12,8 C 15,7 C 14,5 km/h (3 Bft) 97,73 %
14.07.2017 19:24 16,6 C 23,3 C 78 % 1014,2 hPa 0,0 l/m 10,6 km/h (2 Bft) S-SW 198 0 min 0,000 mm 0,0 UV-I 60 W/m 12,7 C 14,6 C 20,9 km/h (4 Bft) 98,11 %
14.07.2017 19:26 16,6 C 23,3 C 78 % 1014,3 hPa 0,0 l/m 9,4 km/h (2 Bft) S 191 0 min 0,000 mm 0,0 UV-I 63 W/m 12,7 C 15,1 C 14,5 km/h (3 Bft) 92,45 %
14.07.2017 19:28 16,5 C 23,3 C 79 % 1014,2 hPa 0,0 l/m 8,5 km/h (2 Bft) SW 220 0 min 0,000 mm 0,0 UV-I 104 W/m 12,8 C 15,4 C 14,5 km/h (3 Bft) 97,73 %
14.07.2017 19:30 16,5 C 23,3 C 79 % 1014,3 hPa 0,0 l/m 10,8 km/h (2 Bft) SW 231 0 min 0,000 mm 0,0 UV-I 100 W/m 12,8 C 14,5 C 19,3 km/h (3 Bft) 100,00 %
14.07.2017 19:33 16,5 C 23,3 C 79 % 1014,3 hPa 0,0 l/m 8,8 km/h (2 Bft) S-SW 203 0 min 0,000 mm 0,0 UV-I 105 W/m 12,8 C 15,3 C 17,7 km/h (3 Bft) 93,62 %
14.07.2017 19:34 16,5 C 23,3 C 79 % 1014,3 hPa 0,0 l/m 10,0 km/h (2 Bft) SW 215 0 min 0,000 mm 0,0 UV-I 107 W/m 12,8 C 14,8 C 14,5 km/h (3 Bft) 100,00 %
14.07.2017 19:36 16,5 C 23,3 C 79 % 1014,3 hPa 0,0 l/m 9,8 km/h (2 Bft) S-SW 205 0 min 0,000 mm 0,0 UV-I 108 W/m 12,8 C 14,9 C 17,7 km/h (3 Bft) 98,08 %
14.07.2017 19:38 16,5 C 23,3 C 79 % 1014,3 hPa 0,0 l/m 8,3 km/h (2 Bft) S 178 0 min 0,000 mm 0,0 UV-I 100 W/m 12,8 C 15,5 C 12,9 km/h (3 Bft) 97,56 %
14.07.2017 19:40 16,5 C 23,3 C 80 % 1014,4 hPa 0,0 l/m 7,0 km/h (2 Bft) S 182 0 min 0,000 mm 0,0 UV-I 90 W/m 13,0 C 16,2 C 12,9 km/h (3 Bft) 96,00 %
14.07.2017 19:42 16,5 C 23,3 C 80 % 1014,3 hPa 0,0 l/m 7,6 km/h (2 Bft) S 190 0 min 0,000 mm 0,0 UV-I 72 W/m 13,0 C 15,9 C 14,5 km/h (3 Bft) 93,62 %
14.07.2017 19:44 16,5 C 23,3 C 80 % 1014,4 hPa 0,0 l/m 6,8 km/h (2 Bft) S-SO 161 0 min 0,000 mm 0,0 UV-I 61 W/m 13,0 C 16,3 C 12,9 km/h (3 Bft) 91,49 %
14.07.2017 19:46 16,5 C 23,3 C 80 % 1014,4 hPa 0,0 l/m 7,5 km/h (2 Bft) S-SW 194 0 min 0,000 mm 0,0 UV-I 53 W/m 13,0 C 15,9 C 12,9 km/h (3 Bft) 96,23 %
14.07.2017 19:48 16,4 C 23,3 C 80 % 1014,4 hPa 0,0 l/m 7,6 km/h (2 Bft) S-SW 207 0 min 0,000 mm 0,0 UV-I 48 W/m 12,9 C 15,8 C 11,3 km/h (2 Bft) 95,12 %
14.07.2017 19:50 16,4 C 23,3 C 80 % 1014,4 hPa 0,0 l/m 6,5 km/h (2 Bft) S 174 0 min 0,000 mm 0,0 UV-I 43 W/m 12,9 C 16,4 C 9,7 km/h (2 Bft) 90,91 %
14.07.2017 19:52 16,4 C 23,3 C 80 % 1014,4 hPa 0,0 l/m 6,1 km/h (2 Bft) S-SW 198 0 min 0,000 mm 0,0 UV-I 40 W/m 12,9 C 16,4 C 11,3 km/h (2 Bft) 90,24 %
14.07.2017 19:54 16,4 C 23,3 C 80 % 1014,4 hPa 0,0 l/m 8,3 km/h (2 Bft) SW 214 0 min 0,000 mm 0,0 UV-I 37 W/m 12,9 C 15,4 C 14,5 km/h (3 Bft) 96,00 %
14.07.2017 19:56 16,4 C 23,3 C 80 % 1014,3 hPa 0,0 l/m 8,2 km/h (2 Bft) S 172 0 min 0,000 mm 0,0 UV-I 36 W/m 12,9 C 15,5 C 16,1 km/h (3 Bft) 95,83 %
14.07.2017 19:58 16,4 C 23,3 C 80 % 1014,4 hPa 0,0 l/m 6,3 km/h (2 Bft) S 187 0 min 0,000 mm 0,0 UV-I 34 W/m 12,9 C 16,4 C 9,7 km/h (2 Bft) 93,62 %
14.07.2017 20:00 16,4 C 23,3 C 80 % 1014,4 hPa 0,0 l/m 4,8 km/h (1 Bft) S 182 0 min 0,000 mm 0,0 UV-I 33 W/m 12,9 C 16,4 C 11,3 km/h (2 Bft) 93,62 %
14.07.2017 20:02 16,3 C 23,3 C 80 % 1014,4 hPa 0,0 l/m 6,2 km/h (2 Bft) S 188 0 min 0,076 mm 0,0 UV-I 32 W/m 12,8 C 16,3 C 9,7 km/h (2 Bft) 94,00 %
14.07.2017 20:04 16,3 C 23,3 C 81 % 1014,4 hPa 0,0 l/m 6,1 km/h (2 Bft) S-SW 200 0 min 0,000 mm 0,0 UV-I 32 W/m 13,0 C 16,3 C 9,7 km/h (2 Bft) 92,00 %
14.07.2017 20:06 16,3 C 23,3 C 81 % 1014,4 hPa 0,0 l/m 5,9 km/h (2 Bft) SW 227 0 min 0,000 mm 0,0 UV-I 33 W/m 13,0 C 16,3 C 11,3 km/h (2 Bft) 96,00 %
14.07.2017 20:08 16,3 C 23,3 C 81 % 1014,3 hPa 0,0 l/m 5,9 km/h (2 Bft) S-SW 210 0 min 0,000 mm 0,0 UV-I 33 W/m 13,0 C 16,3 C 9,7 km/h (2 Bft) 93,18 %
14.07.2017 20:10 16,3 C 23,3 C 81 % 1014,3 hPa 0,0 l/m 4,2 km/h (1 Bft) S-SW 202 0 min 0,000 mm 0,0 UV-I 33 W/m 13,0 C 16,3 C 8,0 km/h (2 Bft) 92,00 %
14.07.2017 20:12 16,3 C 23,3 C 81 % 1014,3 hPa 0,0 l/m 4,7 km/h (1 Bft) S 185 0 min 0,000 mm 0,0 UV-I 32 W/m 13,0 C 16,3 C 9,7 km/h (2 Bft) 93,62 %
14.07.2017 20:14 16,2 C 23,3 C 82 % 1014,3 hPa 0,0 l/m 7,4 km/h (2 Bft) S-SW 201 0 min 0,000 mm 0,0 UV-I 31 W/m 13,1 C 15,7 C 12,9 km/h (3 Bft) 93,62 %
14.07.2017 20:16 16,2 C 23,3 C 82 % 1014,3 hPa 0,0 l/m 6,9 km/h (2 Bft) S-SW 211 0 min 0,000 mm 0,0 UV-I 28 W/m 13,1 C 15,9 C 12,9 km/h (3 Bft) 97,73 %
14.07.2017 20:18 16,2 C 23,3 C 82 % 1014,4 hPa 0,0 l/m 5,6 km/h (1 Bft) S-SO 159 0 min 0,000 mm 0,0 UV-I 26 W/m 13,1 C 16,2 C 9,7 km/h (2 Bft) 93,18 %
14.07.2017 20:20 16,2 C 23,3 C 82 % 1014,4 hPa 0,0 l/m 6,3 km/h (2 Bft) S 190 0 min 0,000 mm 0,0 UV-I 26 W/m 13,1 C 16,2 C 9,7 km/h (2 Bft) 92,68 %
14.07.2017 20:22 16,2 C 23,3 C 81 % 1014,4 hPa 0,0 l/m 3,8 km/h (1 Bft) S-SO 161 0 min 0,000 mm 0,0 UV-I 24 W/m 12,9 C 16,2 C 8,0 km/h (2 Bft) 94,34 %
14.07.2017 20:24 16,2 C 23,3 C 81 % 1014,4 hPa 0,0 l/m 4,8 km/h (1 Bft) S-SW 199 0 min 0,000 mm 0,0 UV-I 23 W/m 12,9 C 16,2 C 11,3 km/h (2 Bft) 97,87 %
14.07.2017 20:25 16,2 C 23,3 C 81 % 1014,4 hPa 0,0 l/m 4,8 km/h (1 Bft) S-SW 202 0 min 0,000 mm 0,0 UV-I 22 W/m 12,9 C 16,2 C 11,3 km/h (2 Bft) 97,37 %
14.07.2017 20:28 16,2 C 23,3 C 81 % 1014,5 hPa 0,0 l/m 5,6 km/h (1 Bft) S-SW 210 0 min 0,000 mm 0,0 UV-I 16 W/m 12,9 C 16,2 C 6,4 km/h (2 Bft) 96,00 %
14.07.2017 20:30 16,1 C 23,3 C 82 % 1014,5 hPa 0,0 l/m 4,9 km/h (1 Bft) S-SW 203 0 min 0,000 mm 0,0 UV-I 13 W/m 13,0 C 16,1 C 9,7 km/h (2 Bft) 96,00 %
14.07.2017 20:32 16,1 C 23,3 C 82 % 1014,5 hPa 0,0 l/m 4,2 km/h (1 Bft) S-SW 206 0 min 0,000 mm 0,0 UV-I 11 W/m 13,0 C 16,1 C 8,0 km/h (2 Bft) 98,00 %
14.07.2017 20:34 16,1 C 23,3 C 82 % 1014,6 hPa 0,0 l/m 4,7 km/h (1 Bft) S-SW 210 0 min 0,000 mm 0,0 UV-I 11 W/m 13,0 C 16,1 C 9,7 km/h (2 Bft) 97,56 %
14.07.2017 20:36 16,1 C 23,3 C 82 % 1014,6 hPa 0,0 l/m 5,2 km/h (1 Bft) S 186 0 min 0,000 mm 0,0 UV-I 9 W/m 13,0 C 16,1 C 8,0 km/h (2 Bft) 97,73 %
14.07.2017 20:38 16,1 C 23,3 C 82 % 1014,6 hPa 0,0 l/m 5,6 km/h (1 Bft) SW 217 0 min 0,000 mm 0,0 UV-I 9 W/m 13,0 C 16,1 C 8,0 km/h (2 Bft) 97,87 %
14.07.2017 20:40 16,1 C 23,3 C 82 % 1014,6 hPa 0,0 l/m 5,4 km/h (1 Bft) S-SW 212 0 min 0,000 mm 0,0 UV-I 7 W/m 13,0 C 16,1 C 9,7 km/h (2 Bft) 100,00 %
14.07.2017 20:42 16,1 C 23,3 C 82 % 1014,6 hPa 0,0 l/m 4,8 km/h (1 Bft) S-SW 202 0 min 0,000 mm 0,0 UV-I 7 W/m 13,0 C 16,1 C 8,0 km/h (2 Bft) 98,21 %
14.07.2017 20:44 16,1 C 23,3 C 82 % 1014,7 hPa 0,0 l/m 4,3 km/h (1 Bft) S 184 0 min 0,000 mm 0,0 UV-I 5 W/m 13,0 C 16,1 C 8,0 km/h (2 Bft) 100,00 %
14.07.2017 20:46 16,1 C 23,3 C 82 % 1014,7 hPa 0,0 l/m 4,5 km/h (1 Bft) S 191 0 min 0,000 mm 0,0 UV-I 5 W/m 13,0 C 16,1 C 8,0 km/h (2 Bft) 97,56 %
14.07.2017 20:48 16,1 C 23,3 C 83 % 1014,7 hPa 0,0 l/m 5,1 km/h (1 Bft) SW 223 0 min 0,000 mm 0,0 UV-I 5 W/m 13,2 C 16,1 C 8,0 km/h (2 Bft) 100,00 %
14.07.2017 20:50 16,1 C 23,3 C 83 % 1014,7 hPa 0,0 l/m 4,7 km/h (1 Bft) S-SW 207 0 min 0,000 mm 0,0 UV-I 5 W/m 13,2 C 16,1 C 8,0 km/h (2 Bft) 98,21 %
14.07.2017 20:52 16,0 C 23,3 C 83 % 1014,7 hPa 0,0 l/m 5,5 km/h (1 Bft) S-SW 200 0 min 0,000 mm 0,0 UV-I 5 W/m 13,1 C 16,0 C 9,7 km/h (2 Bft) 97,87 %
14.07.2017 20:54 16,0 C 23,3 C 83 % 1014,7 hPa 0,0 l/m 4,0 km/h (1 Bft) S-SW 205 0 min 0,000 mm 0,0 UV-I 5 W/m 13,1 C 16,0 C 6,4 km/h (2 Bft) 100,00 %
14.07.2017 20:56 16,0 C 23,3 C 84 % 1014,7 hPa 0,0 l/m 5,5 km/h (1 Bft) S-SW 205 0 min 0,000 mm 0,0 UV-I 5 W/m 13,3 C 16,0 C 9,7 km/h (2 Bft) 95,74 %
14.07.2017 20:58 16,0 C 23,3 C 84 % 1014,8 hPa 0,0 l/m 6,0 km/h (2 Bft) SW 224 0 min 0,000 mm 0,0 UV-I 5 W/m 13,3 C 16,0 C 9,7 km/h (2 Bft) 100,00 %
14.07.2017 21:00 15,9 C 23,3 C 84 % 1014,8 hPa 0,0 l/m 5,3 km/h (1 Bft) S-SW 213 0 min 0,026 mm 0,0 UV-I 4 W/m 13,2 C 15,9 C 8,0 km/h (2 Bft) 98,11 %
14.07.2017 21:02 15,9 C 23,3 C 84 % 1014,9 hPa 0,0 l/m 7,3 km/h (2 Bft) W-SW 241 0 min 0,000 mm 0,0 UV-I 0 W/m 13,2 C 15,4 C 11,3 km/h (2 Bft) 98,00 %
14.07.2017 21:04 15,9 C 23,3 C 84 % 1014,9 hPa 0,0 l/m 6,6 km/h (2 Bft) S-SW 213 0 min 0,000 mm 0,0 UV-I 0 W/m 13,2 C 15,8 C 11,3 km/h (2 Bft) 97,87 %
14.07.2017 21:06 15,8 C 23,3 C 84 % 1014,9 hPa 0,0 l/m 5,5 km/h (1 Bft) SW 223 0 min 0,000 mm 0,0 UV-I 0 W/m 13,1 C 15,8 C 6,4 km/h (2 Bft) 97,37 %
14.07.2017 21:08 15,8 C 23,3 C 85 % 1015,0 hPa 0,0 l/m 5,3 km/h (1 Bft) SW 231 0 min 0,000 mm 0,0 UV-I 0 W/m 13,3 C 15,8 C 8,0 km/h (2 Bft) 100,00 %
14.07.2017 21:10 15,8 C 23,3 C 85 % 1015,0 hPa 0,0 l/m 6,8 km/h (2 Bft) SW 234 0 min 0,000 mm 0,0 UV-I 0 W/m 13,3 C 15,6 C 9,7 km/h (2 Bft) 97,56 %
14.07.2017 21:12 15,8 C 23,3 C 85 % 1015,0 hPa 0,0 l/m 7,0 km/h (2 Bft) W-SW 246 0 min 0,000 mm 0,0 UV-I 0 W/m 13,3 C 15,5 C 9,7 km/h (2 Bft) 98,11 %
14.07.2017 21:14 15,7 C 23,3 C 86 % 1015,0 hPa 0,0 l/m 8,2 km/h (2 Bft) W-SW 257 0 min 0,000 mm 0,0 UV-I 0 W/m 13,4 C 14,7 C 12,9 km/h (3 Bft) 100,00 %
14.07.2017 21:16 15,7 C 23,3 C 86 % 1015,1 hPa 0,0 l/m 9,5 km/h (2 Bft) W-SW 255 0 min 0,000 mm 0,0 UV-I 0 W/m 13,4 C 14,1 C 14,5 km/h (3 Bft) 97,56 %
14.07.2017 21:18 15,7 C 23,3 C 86 % 1015,1 hPa 0,0 l/m 8,1 km/h (2 Bft) W 259 0 min 0,000 mm 0,0 UV-I 0 W/m 13,4 C 14,8 C 14,5 km/h (3 Bft) 100,00 %
14.07.2017 21:20 15,6 C 23,3 C 86 % 1015,2 hPa 0,0 l/m 9,3 km/h (2 Bft) SW 229 0 min 0,000 mm 0,0 UV-I 0 W/m 13,3 C 14,1 C 14,5 km/h (3 Bft) 98,21 %
14.07.2017 21:22 15,6 C 23,3 C 87 % 1015,1 hPa 0,0 l/m 12,0 km/h (2 Bft) W-SW 253 0 min 0,000 mm 0,0 UV-I 0 W/m 13,4 C 13,0 C 16,1 km/h (3 Bft) 96,61 %
14.07.2017 21:24 15,6 C 23,3 C 87 % 1015,1 hPa 0,0 l/m 13,7 km/h (3 Bft) W-SW 244 0 min 0,000 mm 0,0 UV-I 0 W/m 13,4 C 12,3 C 17,7 km/h (3 Bft) 97,56 %
14.07.2017 21:26 15,6 C 23,3 C 87 % 1015,2 hPa 0,0 l/m 12,8 km/h (3 Bft) W-SW 242 0 min 0,000 mm 0,0 UV-I 0 W/m 13,4 C 12,7 C 17,7 km/h (3 Bft) 100,00 %
14.07.2017 21:28 15,5 C 23,3 C 88 % 1015,2 hPa 0,0 l/m 12,4 km/h (3 Bft) SW 221 0 min 0,000 mm 0,0 UV-I 0 W/m 13,5 C 12,7 C 19,3 km/h (3 Bft) 98,00 %
14.07.2017 21:30 15,5 C 23,3 C 88 % 1015,3 hPa 0,2 l/m 16,4 km/h (3 Bft) W 265 0 min 0,000 mm 0,0 UV-I 0 W/m 13,5 C 11,4 C 27,4 km/h (4 Bft) 98,11 %
14.07.2017 21:32 15,5 C 23,3 C 88 % 1015,3 hPa 0,0 l/m 15,9 km/h (3 Bft) W-SW 248 0 min 0,000 mm 0,0 UV-I 0 W/m 13,5 C 11,5 C 25,7 km/h (4 Bft) 100,00 %
14.07.2017 21:34 15,5 C 23,3 C 88 % 1015,2 hPa 0,0 l/m 12,2 km/h (2 Bft) W-SW 242 0 min 0,000 mm 0,0 UV-I 0 W/m 13,5 C 12,8 C 16,1 km/h (3 Bft) 97,87 %
14.07.2017 21:36 15,5 C 23,3 C 88 % 1015,3 hPa 0,0 l/m 14,0 km/h (3 Bft) W-SW 242 0 min 0,000 mm 0,0 UV-I 0 W/m 13,5 C 12,1 C 19,3 km/h (3 Bft) 100,00 %
14.07.2017 21:38 15,4 C 23,3 C 88 % 1015,3 hPa 0,2 l/m 12,8 km/h (3 Bft) W-SW 256 0 min 0,000 mm 0,0 UV-I 0 W/m 13,4 C 12,4 C 17,7 km/h (3 Bft) 97,56 %
14.07.2017 21:40 15,4 C 23,3 C 89 % 1015,4 hPa 0,0 l/m 11,6 km/h (2 Bft) W 266 0 min 0,000 mm 0,0 UV-I 0 W/m 13,6 C 12,9 C 16,1 km/h (3 Bft) 100,00 %
14.07.2017 21:42 15,3 C 23,3 C 89 % 1015,3 hPa 0,0 l/m 11,3 km/h (2 Bft) W-SW 241 0 min 0,000 mm 0,0 UV-I 0 W/m 13,5 C 12,9 C 16,1 km/h (3 Bft) 98,21 %
14.07.2017 21:44 15,3 C 23,3 C 89 % 1015,3 hPa 0,0 l/m 9,1 km/h (2 Bft) W 280 0 min 0,000 mm 0,0 UV-I 0 W/m 13,5 C 13,9 C 16,1 km/h (3 Bft) 95,74 %
14.07.2017 21:46 15,2 C 23,3 C 89 % 1015,3 hPa 0,2 l/m 7,2 km/h (2 Bft) W 279 0 min 0,000 mm 0,0 UV-I 0 W/m 13,4 C 14,8 C 14,5 km/h (3 Bft) 100,00 %
14.07.2017 21:48 15,2 C 23,3 C 89 % 1015,3 hPa 0,0 l/m 6,3 km/h (2 Bft) W-SW 247 0 min 0,000 mm 0,0 UV-I 0 W/m 13,4 C 15,2 C 9,7 km/h (2 Bft) 96,00 %
14.07.2017 21:50 15,2 C 23,3 C 89 % 1015,4 hPa 0,0 l/m 7,1 km/h (2 Bft) W-SW 249 0 min 0,000 mm 0,0 UV-I 0 W/m 13,4 C 14,8 C 11,3 km/h (2 Bft) 92,68 %
14.07.2017 21:52 15,2 C 23,3 C 89 % 1015,4 hPa 0,0 l/m 7,5 km/h (2 Bft) W-SW 250 0 min 0,000 mm 0,0 UV-I 0 W/m 13,4 C 14,6 C 11,3 km/h (2 Bft) 98,00 %
14.07.2017 21:54 15,1 C 23,3 C 89 % 1015,4 hPa 0,0 l/m 6,8 km/h (2 Bft) W-SW 248 0 min 0,000 mm 0,0 UV-I 0 W/m 13,3 C 14,9 C 11,3 km/h (2 Bft) 92,68 %
14.07.2017 21:56 15,1 C 23,3 C 90 % 1015,4 hPa 0,0 l/m 6,5 km/h (2 Bft) SW 217 0 min 0,000 mm 0,0 UV-I 0 W/m 13,5 C 15,1 C 9,7 km/h (2 Bft) 98,11 %
14.07.2017 21:58 15,1 C 23,3 C 90 % 1015,4 hPa 0,0 l/m 7,6 km/h (2 Bft) SW 229 0 min 0,000 mm 0,0 UV-I 0 W/m 13,5 C 14,4 C 11,3 km/h (2 Bft) 95,12 %
14.07.2017 22:00 15,1 C 23,3 C 90 % 1015,3 hPa 0,0 l/m 7,3 km/h (2 Bft) W-SW 246 0 min 0,025 mm 0,0 UV-I 0 W/m 13,5 C 14,6 C 11,3 km/h (2 Bft) 96,00 %
14.07.2017 22:02 15,1 C 23,3 C 91 % 1015,4 hPa 0,0 l/m 7,6 km/h (2 Bft) SW 232 0 min 0,000 mm 0,0 UV-I 0 W/m 13,6 C 14,4 C 9,7 km/h (2 Bft) 97,56 %
14.07.2017 22:04 15,1 C 23,3 C 91 % 1015,3 hPa 0,2 l/m 6,3 km/h (2 Bft) SW 231 0 min 0,000 mm 0,0 UV-I 0 W/m 13,6 C 15,1 C 8,0 km/h (2 Bft) 97,87 %
14.07.2017 22:06 15,1 C 23,3 C 91 % 1015,2 hPa 0,0 l/m 5,3 km/h (1 Bft) SW 233 0 min 0,000 mm 0,0 UV-I 0 W/m 13,6 C 15,1 C 8,0 km/h (2 Bft) 96,43 %
14.07.2017 22:08 15,1 C 23,3 C 91 % 1015,1 hPa 0,0 l/m 6,2 km/h (2 Bft) SW 221 0 min 0,000 mm 0,0 UV-I 0 W/m 13,6 C 15,1 C 9,7 km/h (2 Bft) 97,56 %
14.07.2017 22:10 15,1 C 23,3 C 91 % 1015,1 hPa 0,0 l/m 7,1 km/h (2 Bft) SW 214 0 min 0,000 mm 0,0 UV-I 0 W/m 13,6 C 14,7 C 9,7 km/h (2 Bft) 94,87 %
14.07.2017 22:12 15,1 C 23,3 C 91 % 1015,3 hPa 0,0 l/m 7,2 km/h (2 Bft) S-SW 213 0 min 0,000 mm 0,0 UV-I 0 W/m 13,6 C 14,6 C 9,7 km/h (2 Bft) 98,18 %
14.07.2017 22:14 15,1 C 23,3 C 91 % 1015,3 hPa 0,0 l/m 7,5 km/h (2 Bft) SW 224 0 min 0,000 mm 0,0 UV-I 0 W/m 13,6 C 14,5 C 11,3 km/h (2 Bft) 96,00 %
14.07.2017 22:16 15,1 C 23,3 C 91 % 1015,3 hPa 0,0 l/m 9,8 km/h (2 Bft) S-SO 163 0 min 0,000 mm 0,0 UV-I 0 W/m 13,6 C 13,3 C 14,5 km/h (3 Bft) 94,44 %
14.07.2017 22:18 15,1 C 23,3 C 91 % 1015,3 hPa 0,0 l/m 6,2 km/h (2 Bft) S 188 0 min 0,000 mm 0,0 UV-I 0 W/m 13,6 C 15,1 C 11,3 km/h (2 Bft) 96,55 %
14.07.2017 22:20 15,1 C 23,3 C 91 % 1015,2 hPa 0,0 l/m 8,1 km/h (2 Bft) S-SW 199 0 min 0,000 mm 0,0 UV-I 0 W/m 13,6 C 14,2 C 12,9 km/h (3 Bft) 94,87 %
14.07.2017 22:22 15,1 C 22,8 C 91 % 1015,2 hPa 0,0 l/m 8,0 km/h (2 Bft) S-SW 201 0 min 0,000 mm 0,0 UV-I 0 W/m 13,6 C 14,2 C 11,3 km/h (2 Bft) 98,21 %
14.07.2017 22:24 15,1 C 22,8 C 91 % 1015,3 hPa 0,0 l/m 10,0 km/h (2 Bft) SO 140 0 min 0,000 mm 0,0 UV-I 0 W/m 13,6 C 13,2 C 16,1 km/h (3 Bft) 95,12 %
14.07.2017 22:26 15,0 C 22,8 C 91 % 1015,2 hPa 0,0 l/m 9,9 km/h (2 Bft) S-SW 193 0 min 0,000 mm 0,0 UV-I 0 W/m 13,5 C 13,2 C 20,9 km/h (4 Bft) 98,11 %
14.07.2017 22:28 15,0 C 22,8 C 90 % 1015,2 hPa 0,0 l/m 10,0 km/h (2 Bft) S-SW 192 0 min 0,000 mm 0,0 UV-I 0 W/m 13,4 C 13,1 C 20,9 km/h (4 Bft) 100,00 %
14.07.2017 22:30 15,0 C 22,8 C 90 % 1015,2 hPa 0,0 l/m 11,0 km/h (2 Bft) SW 219 0 min 0,000 mm 0,0 UV-I 0 W/m 13,4 C 12,7 C 17,7 km/h (3 Bft) 96,00 %
14.07.2017 22:32 14,9 C 22,8 C 90 % 1015,2 hPa 0,0 l/m 9,9 km/h (2 Bft) S-SW 209 0 min 0,000 mm 0,0 UV-I 0 W/m 13,3 C 13,1 C 16,1 km/h (3 Bft) 100,00 %
14.07.2017 22:34 14,9 C 22,8 C 90 % 1015,2 hPa 0,0 l/m 10,2 km/h (2 Bft) S-SW 213 0 min 0,000 mm 0,0 UV-I 0 W/m 13,3 C 12,9 C 14,5 km/h (3 Bft) 95,12 %
14.07.2017 22:36 14,9 C 22,8 C 90 % 1015,2 hPa 0,0 l/m 9,2 km/h (2 Bft) S-SW 200 0 min 0,000 mm 0,0 UV-I 0 W/m 13,3 C 13,4 C 17,7 km/h (3 Bft) 98,00 %
14.07.2017 22:38 14,9 C 22,8 C 89 % 1015,3 hPa 0,0 l/m 11,3 km/h (2 Bft) S-SW 207 0 min 0,000 mm 0,0 UV-I 0 W/m 13,1 C 12,4 C 19,3 km/h (3 Bft) 97,56 %
14.07.2017 22:40 14,9 C 22,8 C 89 % 1015,3 hPa 0,0 l/m 10,9 km/h (2 Bft) W-SW 248 0 min 0,000 mm 0,0 UV-I 0 W/m 13,1 C 12,6 C 17,7 km/h (3 Bft) 100,00 %
14.07.2017 22:42 14,9 C 22,8 C 89 % 1015,4 hPa 0,0 l/m 10,7 km/h (2 Bft) SW 215 0 min 0,000 mm 0,0 UV-I 0 W/m 13,1 C 12,7 C 14,5 km/h (3 Bft) 100,00 %
14.07.2017 22:44 14,8 C 22,8 C 89 % 1015,4 hPa 0,0 l/m 11,2 km/h (2 Bft) W-SW 248 0 min 0,000 mm 0,0 UV-I 0 W/m 13,0 C 12,4 C 17,7 km/h (3 Bft) 100,00 %
14.07.2017 22:46 14,8 C 22,8 C 89 % 1015,5 hPa 0,0 l/m 12,8 km/h (3 Bft) S-SW 206 0 min 0,000 mm 0,0 UV-I 0 W/m 13,0 C 11,7 C 20,9 km/h (4 Bft) 100,00 %
14.07.2017 22:48 14,8 C 22,8 C 89 % 1015,5 hPa 0,0 l/m 11,9 km/h (2 Bft) S-SW 212 0 min 0,000 mm 0,0 UV-I 0 W/m 13,0 C 12,1 C 17,7 km/h (3 Bft) 100,00 %
14.07.2017 22:50 14,8 C 22,8 C 89 % 1015,6 hPa 0,0 l/m 9,9 km/h (2 Bft) SW 230 0 min 0,000 mm 0,0 UV-I 0 W/m 13,0 C 12,9 C 17,7 km/h (3 Bft) 98,31 %
14.07.2017 22:52 14,7 C 22,8 C 89 % 1015,5 hPa 0,0 l/m 11,3 km/h (2 Bft) SW 217 0 min 0,000 mm 0,0 UV-I 0 W/m 12,9 C 12,2 C 19,3 km/h (3 Bft) 100,00 %
14.07.2017 22:54 14,7 C 22,8 C 90 % 1015,6 hPa 0,0 l/m 12,6 km/h (3 Bft) S-SW 210 0 min 0,000 mm 0,0 UV-I 0 W/m 13,1 C 11,7 C 17,7 km/h (3 Bft) 96,36 %
14.07.2017 22:56 14,7 C 22,8 C 89 % 1015,6 hPa 0,0 l/m 12,6 km/h (3 Bft) W-SW 238 0 min 0,000 mm 0,0 UV-I 0 W/m 12,9 C 11,7 C 22,5 km/h (4 Bft) 94,87 %
14.07.2017 22:58 14,6 C 22,8 C 89 % 1015,7 hPa 0,0 l/m 11,5 km/h (2 Bft) SW 235 0 min 0,000 mm 0,0 UV-I 0 W/m 12,8 C 12,0 C 20,9 km/h (4 Bft) 98,00 %
14.07.2017 23:00 14,6 C 22,8 C 90 % 1015,7 hPa 0,0 l/m 12,4 km/h (3 Bft) S-SW 207 0 min 0,025 mm 0,0 UV-I 0 W/m 13,0 C 11,7 C 19,3 km/h (3 Bft) 90,91 %
14.07.2017 23:02 14,5 C 22,8 C 89 % 1015,7 hPa 0,0 l/m 15,7 km/h (3 Bft) SW 223 0 min 0,000 mm 0,0 UV-I 0 W/m 12,7 C 10,4 C 25,7 km/h (4 Bft) 96,23 %
14.07.2017 23:04 14,5 C 22,8 C 89 % 1015,8 hPa 0,0 l/m 16,6 km/h (3 Bft) W-SW 248 0 min 0,000 mm 0,0 UV-I 0 W/m 12,7 C 10,1 C 25,7 km/h (4 Bft) 96,00 %
14.07.2017 23:06 14,4 C 22,8 C 89 % 1015,8 hPa 0,0 l/m 19,7 km/h (3 Bft) W-SW 254 0 min 0,000 mm 0,0 UV-I 0 W/m 12,6 C 9,1 C 27,4 km/h (4 Bft) 94,74 %
14.07.2017 23:08 14,4 C 22,8 C 89 % 1015,9 hPa 0,0 l/m 17,7 km/h (3 Bft) W-SW 247 0 min 0,000 mm 0,0 UV-I 0 W/m 12,6 C 9,6 C 25,7 km/h (4 Bft) 98,21 %
14.07.2017 23:10 14,4 C 22,8 C 89 % 1015,9 hPa 0,0 l/m 12,7 km/h (3 Bft) S-SW 207 0 min 0,000 mm 0,0 UV-I 0 W/m 12,6 C 11,3 C 19,3 km/h (3 Bft) 94,74 %
14.07.2017 23:12 14,3 C 22,8 C 89 % 1015,9 hPa 0,0 l/m 16,2 km/h (3 Bft) W-SW 244 0 min 0,000 mm 0,0 UV-I 0 W/m 12,5 C 9,9 C 24,1 km/h (4 Bft) 95,74 %
14.07.2017 23:14 14,3 C 22,8 C 89 % 1015,8 hPa 0,0 l/m 16,4 km/h (3 Bft) W-SW 252 0 min 0,000 mm 0,0 UV-I 0 W/m 12,5 C 9,9 C 29,0 km/h (5 Bft) 95,12 %
14.07.2017 23:16 14,3 C 22,8 C 89 % 1015,8 hPa 0,0 l/m 16,8 km/h (3 Bft) SW 234 0 min 0,000 mm 0,0 UV-I 0 W/m 12,5 C 9,8 C 27,4 km/h (4 Bft) 98,00 %
14.07.2017 23:18 14,2 C 22,8 C 89 % 1015,9 hPa 0,0 l/m 14,7 km/h (3 Bft) W-SW 238 0 min 0,000 mm 0,0 UV-I 0 W/m 12,4 C 10,3 C 19,3 km/h (3 Bft) 96,43 %
14.07.2017 23:20 14,2 C 22,8 C 89 % 1015,9 hPa 0,0 l/m 15,9 km/h (3 Bft) W-SW 240 0 min 0,000 mm 0,0 UV-I 0 W/m 12,4 C 9,9 C 30,6 km/h (5 Bft) 92,11 %
14.07.2017 23:22 14,2 C 22,8 C 88 % 1015,9 hPa 0,0 l/m 15,9 km/h (3 Bft) SW 224 0 min 0,000 mm 0,0 UV-I 0 W/m 12,2 C 9,9 C 24,1 km/h (4 Bft) 96,43 %
14.07.2017 23:24 14,2 C 22,8 C 88 % 1015,9 hPa 0,0 l/m 18,5 km/h (3 Bft) W 259 0 min 0,000 mm 0,0 UV-I 0 W/m 12,2 C 9,1 C 25,7 km/h (4 Bft) 92,68 %
14.07.2017 23:26 14,1 C 22,8 C 88 % 1015,8 hPa 0,0 l/m 16,7 km/h (3 Bft) S-SW 210 0 min 0,000 mm 0,0 UV-I 0 W/m 12,1 C 9,5 C 29,0 km/h (5 Bft) 97,87 %
14.07.2017 23:28 14,1 C 22,8 C 88 % 1015,9 hPa 0,0 l/m 15,9 km/h (3 Bft) W-SW 237 0 min 0,000 mm 0,0 UV-I 0 W/m 12,1 C 9,8 C 24,1 km/h (4 Bft) 97,22 %
14.07.2017 23:30 14,1 C 22,8 C 88 % 1015,9 hPa 0,0 l/m 12,5 km/h (3 Bft) SW 229 0 min 0,000 mm 0,0 UV-I 0 W/m 12,1 C 11,0 C 19,3 km/h (3 Bft) 98,44 %
14.07.2017 23:32 14,1 C 22,8 C 88 % 1015,9 hPa 0,0 l/m 11,4 km/h (2 Bft) SW 232 0 min 0,000 mm 0,0 UV-I 0 W/m 12,1 C 11,5 C 19,3 km/h (3 Bft) 95,83 %
14.07.2017 23:34 14,1 C 22,8 C 88 % 1015,8 hPa 0,0 l/m 12,5 km/h (3 Bft) SW 227 0 min 0,000 mm 0,0 UV-I 0 W/m 12,1 C 11,0 C 22,5 km/h (4 Bft) 98,31 %
14.07.2017 23:36 14,1 C 22,8 C 88 % 1015,8 hPa 0,0 l/m 12,4 km/h (3 Bft) W-SW 250 0 min 0,000 mm 0,0 UV-I 0 W/m 12,1 C 11,1 C 17,7 km/h (3 Bft) 96,36 %
14.07.2017 23:38 14,1 C 22,8 C 88 % 1015,8 hPa 0,0 l/m 14,9 km/h (3 Bft) SW 229 0 min 0,000 mm 0,0 UV-I 0 W/m 12,1 C 10,1 C 20,9 km/h (4 Bft) 97,92 %
14.07.2017 23:40 14,1 C 22,8 C 89 % 1015,9 hPa 0,0 l/m 11,3 km/h (2 Bft) SW 232 0 min 0,000 mm 0,0 UV-I 0 W/m 12,3 C 11,5 C 20,9 km/h (4 Bft) 94,74 %
14.07.2017 23:42 14,1 C 22,8 C 89 % 1015,9 hPa 0,0 l/m 12,7 km/h (3 Bft) S-SW 208 0 min 0,000 mm 0,0 UV-I 0 W/m 12,3 C 11,0 C 19,3 km/h (3 Bft) 96,00 %
14.07.2017 23:44 14,1 C 22,8 C 89 % 1015,9 hPa 0,0 l/m 10,9 km/h (2 Bft) S-SW 208 0 min 0,000 mm 0,0 UV-I 0 W/m 12,3 C 11,7 C 16,1 km/h (3 Bft) 97,87 %
14.07.2017 23:46 14,1 C 22,8 C 89 % 1016,0 hPa 0,0 l/m 10,4 km/h (2 Bft) SW 233 0 min 0,000 mm 0,0 UV-I 0 W/m 12,3 C 11,9 C 22,5 km/h (4 Bft) 97,56 %
14.07.2017 23:48 14,1 C 22,8 C 89 % 1016,0 hPa 0,0 l/m 10,0 km/h (2 Bft) SW 231 0 min 0,000 mm 0,0 UV-I 0 W/m 12,3 C 12,1 C 16,1 km/h (3 Bft) 96,61 %
14.07.2017 23:50 14,0 C 22,8 C 89 % 1015,9 hPa 0,0 l/m 10,2 km/h (2 Bft) W-SW 254 0 min 0,000 mm 0,0 UV-I 0 W/m 12,2 C 11,9 C 17,7 km/h (3 Bft) 94,74 %
14.07.2017 23:52 14,0 C 22,8 C 89 % 1016,0 hPa 0,0 l/m 13,5 km/h (3 Bft) W 266 0 min 0,000 mm 0,0 UV-I 0 W/m 12,2 C 10,5 C 20,9 km/h (4 Bft) 96,43 %
14.07.2017 23:54 14,0 C 22,8 C 89 % 1016,0 hPa 0,0 l/m 14,3 km/h (3 Bft) W 265 0 min 0,000 mm 0,0 UV-I 0 W/m 12,2 C 10,2 C 22,5 km/h (4 Bft) 95,74 %
14.07.2017 23:56 14,0 C 22,8 C 89 % 1016,1 hPa 0,0 l/m 13,7 km/h (3 Bft) W-SW 254 0 min 0,000 mm 0,0 UV-I 0 W/m 12,2 C 10,4 C 22,5 km/h (4 Bft) 95,74 %
14.07.2017 23:58 14,0 C 22,8 C 89 % 1016,1 hPa 0,0 l/m 14,0 km/h (3 Bft) W-SW 252 0 min 0,000 mm 0,0 UV-I 0 W/m 12,2 C 10,3 C 17,7 km/h (3 Bft) 97,56 %
_ Min-Zeit 05:54 22:22 17:32 16:32 - 00:00 - - - - - - 01:16 03:54 00:00 12:34
Minimum _ 10,7 C 22,8 C 46 % 1013,2 hPa - 0,0 km/h (0 Bft) - - - - - - 6,3 C 8,3 C 0,0 km/h (0 Bft) 88,68 %
_ Max-Zeit 15:38 00:00 22:02 00:00 21:30 17:46 - - 05:32 15:00 13:48 13:50 22:02 15:36 17:56 00:34
Maximum _ 22,1 C 25,0 C 91 % 1017,0 hPa 0,2 l/m 20,6 km/h
W-SW (4 Bft)
- - 2 min 0,457 mm 5,7 UV-I 1053 W/m 13,6 C 22,0 C 32,2 km/h
S (5 Bft)
100,00 %
Durchschnitt _ 15,7 C 23,5 C 71 % 1015,2 hPa #0,8 l/m 6,9 km/h (2 Bft) O-NO - #5:12 h #3,073 mm 2,2 UV-I 260 W/m 10,3 C 14,7 C 11,5 km/h (2 Bft) 96,61 %